<?xml version="1.0" encoding="UTF-8" standalone="no" ?>
<gpx xmlns="http://www.topografix.com/GPX/1/1" xmlns:xsi="http://www.w3.org/2001/XMLSchema-instance" xsi:schemaLocation="http://www.topografix.com/GPX/1/1 http://www.topografix.com/GPX/1/1/gpx.xsd" version="1.1" creator="VisuGPX - https://www.visugpx.com">
  <metadata>
    <name>Saint clair 48</name>
  </metadata>
  <trk>
    <name><![CDATA[Saint clair 48_1]]></name>
    <trkseg>
      <trkpt lat="48.7477" lon="-0.57188">
        <ele>222.2</ele>
        <time>2014-04-10T08:09:32Z</time>
      </trkpt>
      <trkpt lat="48.74774" lon="-0.57194">
        <ele>222.2</ele>
        <time>2014-04-10T08:09:33Z</time>
      </trkpt>
      <trkpt lat="48.74778" lon="-0.57201">
        <ele>222.2</ele>
        <time>2014-04-10T08:09:48Z</time>
      </trkpt>
      <trkpt lat="48.74777" lon="-0.57208">
        <ele>222.4</ele>
        <time>2014-04-10T08:09:51Z</time>
      </trkpt>
      <trkpt lat="48.74763" lon="-0.57252">
        <ele>222.6</ele>
        <time>2014-04-10T08:10:04Z</time>
      </trkpt>
      <trkpt lat="48.74735" lon="-0.57318">
        <ele>223.2</ele>
        <time>2014-04-10T08:10:20Z</time>
      </trkpt>
      <trkpt lat="48.74708" lon="-0.57389">
        <ele>224.8</ele>
        <time>2014-04-10T08:10:35Z</time>
      </trkpt>
      <trkpt lat="48.74686" lon="-0.57438">
        <ele>226.2</ele>
        <time>2014-04-10T08:10:46Z</time>
      </trkpt>
      <trkpt lat="48.74664" lon="-0.57501">
        <ele>227.8</ele>
        <time>2014-04-10T08:10:59Z</time>
      </trkpt>
      <trkpt lat="48.74637" lon="-0.57565">
        <ele>228.8</ele>
        <time>2014-04-10T08:11:13Z</time>
      </trkpt>
      <trkpt lat="48.74615" lon="-0.5764">
        <ele>230.6</ele>
        <time>2014-04-10T08:11:27Z</time>
      </trkpt>
      <trkpt lat="48.74582" lon="-0.57723">
        <ele>230.4</ele>
        <time>2014-04-10T08:11:42Z</time>
      </trkpt>
      <trkpt lat="48.74531" lon="-0.57852">
        <ele>230</ele>
        <time>2014-04-10T08:12:05Z</time>
      </trkpt>
      <trkpt lat="48.74483" lon="-0.5797">
        <ele>230.6</ele>
        <time>2014-04-10T08:12:26Z</time>
      </trkpt>
      <trkpt lat="48.74436" lon="-0.58086">
        <ele>231</ele>
        <time>2014-04-10T08:12:46Z</time>
      </trkpt>
      <trkpt lat="48.74431" lon="-0.58097">
        <ele>231</ele>
        <time>2014-04-10T08:12:48Z</time>
      </trkpt>
      <trkpt lat="48.74428" lon="-0.58103">
        <ele>231</ele>
        <time>2014-04-10T08:12:49Z</time>
      </trkpt>
      <trkpt lat="48.74387" lon="-0.58185">
        <ele>231.8</ele>
        <time>2014-04-10T08:13:05Z</time>
      </trkpt>
      <trkpt lat="48.74324" lon="-0.58328">
        <ele>232.6</ele>
        <time>2014-04-10T08:13:32Z</time>
      </trkpt>
      <trkpt lat="48.74275" lon="-0.5844">
        <ele>234</ele>
        <time>2014-04-10T08:13:54Z</time>
      </trkpt>
      <trkpt lat="48.74222" lon="-0.58553">
        <ele>236</ele>
        <time>2014-04-10T08:14:16Z</time>
      </trkpt>
      <trkpt lat="48.74161" lon="-0.58636">
        <ele>235.8</ele>
        <time>2014-04-10T08:14:34Z</time>
      </trkpt>
      <trkpt lat="48.74107" lon="-0.58705">
        <ele>235.2</ele>
        <time>2014-04-10T08:14:49Z</time>
      </trkpt>
      <trkpt lat="48.74048" lon="-0.58782">
        <ele>234.8</ele>
        <time>2014-04-10T08:15:05Z</time>
      </trkpt>
      <trkpt lat="48.74038" lon="-0.58796">
        <ele>234.6</ele>
        <time>2014-04-10T08:15:08Z</time>
      </trkpt>
      <trkpt lat="48.74036" lon="-0.58802">
        <ele>234.6</ele>
        <time>2014-04-10T08:15:09Z</time>
      </trkpt>
      <trkpt lat="48.74034" lon="-0.58808">
        <ele>234.6</ele>
        <time>2014-04-10T08:15:10Z</time>
      </trkpt>
      <trkpt lat="48.74027" lon="-0.58826">
        <ele>234.6</ele>
        <time>2014-04-10T08:15:13Z</time>
      </trkpt>
      <trkpt lat="48.74026" lon="-0.58833">
        <ele>234.6</ele>
        <time>2014-04-10T08:15:14Z</time>
      </trkpt>
      <trkpt lat="48.74015" lon="-0.58883">
        <ele>234.4</ele>
        <time>2014-04-10T08:15:22Z</time>
      </trkpt>
      <trkpt lat="48.74013" lon="-0.5889">
        <ele>234.4</ele>
        <time>2014-04-10T08:15:23Z</time>
      </trkpt>
      <trkpt lat="48.74012" lon="-0.58896">
        <ele>234.4</ele>
        <time>2014-04-10T08:15:24Z</time>
      </trkpt>
      <trkpt lat="48.73994" lon="-0.58991">
        <ele>235</ele>
        <time>2014-04-10T08:15:39Z</time>
      </trkpt>
      <trkpt lat="48.73989" lon="-0.59015">
        <ele>235.2</ele>
        <time>2014-04-10T08:15:43Z</time>
      </trkpt>
      <trkpt lat="48.73963" lon="-0.59128">
        <ele>236.6</ele>
        <time>2014-04-10T08:16:02Z</time>
      </trkpt>
      <trkpt lat="48.73926" lon="-0.59223">
        <ele>237.4</ele>
        <time>2014-04-10T08:16:20Z</time>
      </trkpt>
      <trkpt lat="48.73924" lon="-0.59234">
        <ele>237.6</ele>
        <time>2014-04-10T08:16:22Z</time>
      </trkpt>
      <trkpt lat="48.73921" lon="-0.59239">
        <ele>237.6</ele>
        <time>2014-04-10T08:16:23Z</time>
      </trkpt>
      <trkpt lat="48.73918" lon="-0.59243">
        <ele>237.8</ele>
        <time>2014-04-10T08:16:24Z</time>
      </trkpt>
      <trkpt lat="48.73912" lon="-0.59251">
        <ele>237.8</ele>
        <time>2014-04-10T08:16:26Z</time>
      </trkpt>
      <trkpt lat="48.73909" lon="-0.59256">
        <ele>237.8</ele>
        <time>2014-04-10T08:16:27Z</time>
      </trkpt>
      <trkpt lat="48.7385" lon="-0.59387">
        <ele>239</ele>
        <time>2014-04-10T08:16:51Z</time>
      </trkpt>
      <trkpt lat="48.73801" lon="-0.59522">
        <ele>240.4</ele>
        <time>2014-04-10T08:17:14Z</time>
      </trkpt>
      <trkpt lat="48.73764" lon="-0.59607">
        <ele>241</ele>
        <time>2014-04-10T08:17:29Z</time>
      </trkpt>
      <trkpt lat="48.73706" lon="-0.59719">
        <ele>240.8</ele>
        <time>2014-04-10T08:17:50Z</time>
      </trkpt>
      <trkpt lat="48.73653" lon="-0.59815">
        <ele>241.4</ele>
        <time>2014-04-10T08:18:09Z</time>
      </trkpt>
      <trkpt lat="48.73612" lon="-0.5988">
        <ele>242</ele>
        <time>2014-04-10T08:18:23Z</time>
      </trkpt>
      <trkpt lat="48.7361" lon="-0.59886">
        <ele>242.2</ele>
        <time>2014-04-10T08:18:24Z</time>
      </trkpt>
      <trkpt lat="48.7361" lon="-0.59892">
        <ele>242.2</ele>
        <time>2014-04-10T08:18:25Z</time>
      </trkpt>
      <trkpt lat="48.73611" lon="-0.59898">
        <ele>242.2</ele>
        <time>2014-04-10T08:18:26Z</time>
      </trkpt>
      <trkpt lat="48.73613" lon="-0.59904">
        <ele>242</ele>
        <time>2014-04-10T08:18:27Z</time>
      </trkpt>
      <trkpt lat="48.73617" lon="-0.59909">
        <ele>242</ele>
        <time>2014-04-10T08:18:28Z</time>
      </trkpt>
      <trkpt lat="48.73621" lon="-0.59913">
        <ele>241.8</ele>
        <time>2014-04-10T08:18:29Z</time>
      </trkpt>
      <trkpt lat="48.73624" lon="-0.59918">
        <ele>241.8</ele>
        <time>2014-04-10T08:18:30Z</time>
      </trkpt>
      <trkpt lat="48.73627" lon="-0.59924">
        <ele>241.6</ele>
        <time>2014-04-10T08:18:31Z</time>
      </trkpt>
      <trkpt lat="48.73628" lon="-0.59931">
        <ele>241.6</ele>
        <time>2014-04-10T08:18:32Z</time>
      </trkpt>
      <trkpt lat="48.73627" lon="-0.59937">
        <ele>241.4</ele>
        <time>2014-04-10T08:18:33Z</time>
      </trkpt>
      <trkpt lat="48.73625" lon="-0.59942">
        <ele>241.4</ele>
        <time>2014-04-10T08:18:34Z</time>
      </trkpt>
      <trkpt lat="48.73622" lon="-0.59947">
        <ele>241.4</ele>
        <time>2014-04-10T08:18:35Z</time>
      </trkpt>
      <trkpt lat="48.73619" lon="-0.59951">
        <ele>241.4</ele>
        <time>2014-04-10T08:18:36Z</time>
      </trkpt>
      <trkpt lat="48.73578" lon="-0.60024">
        <ele>242.6</ele>
        <time>2014-04-10T08:18:52Z</time>
      </trkpt>
      <trkpt lat="48.73546" lon="-0.60121">
        <ele>243.8</ele>
        <time>2014-04-10T08:19:10Z</time>
      </trkpt>
      <trkpt lat="48.73513" lon="-0.60194">
        <ele>245</ele>
        <time>2014-04-10T08:19:25Z</time>
      </trkpt>
      <trkpt lat="48.73499" lon="-0.6028">
        <ele>245</ele>
        <time>2014-04-10T08:19:39Z</time>
      </trkpt>
      <trkpt lat="48.73487" lon="-0.60367">
        <ele>244.8</ele>
        <time>2014-04-10T08:19:54Z</time>
      </trkpt>
      <trkpt lat="48.73478" lon="-0.60436">
        <ele>244.2</ele>
        <time>2014-04-10T08:20:09Z</time>
      </trkpt>
      <trkpt lat="48.73465" lon="-0.60477">
        <ele>244</ele>
        <time>2014-04-10T08:20:17Z</time>
      </trkpt>
      <trkpt lat="48.73463" lon="-0.60483">
        <ele>244</ele>
        <time>2014-04-10T08:20:18Z</time>
      </trkpt>
      <trkpt lat="48.73461" lon="-0.60488">
        <ele>244.2</ele>
        <time>2014-04-10T08:20:19Z</time>
      </trkpt>
      <trkpt lat="48.73458" lon="-0.60492">
        <ele>244.2</ele>
        <time>2014-04-10T08:20:20Z</time>
      </trkpt>
      <trkpt lat="48.73456" lon="-0.60497">
        <ele>244.2</ele>
        <time>2014-04-10T08:20:21Z</time>
      </trkpt>
      <trkpt lat="48.73454" lon="-0.60501">
        <ele>244.2</ele>
        <time>2014-04-10T08:20:22Z</time>
      </trkpt>
      <trkpt lat="48.73434" lon="-0.60555">
        <ele>244.2</ele>
        <time>2014-04-10T08:20:33Z</time>
      </trkpt>
      <trkpt lat="48.73426" lon="-0.60586">
        <ele>243.8</ele>
        <time>2014-04-10T08:20:38Z</time>
      </trkpt>
      <trkpt lat="48.73425" lon="-0.60592">
        <ele>243.8</ele>
        <time>2014-04-10T08:20:39Z</time>
      </trkpt>
      <trkpt lat="48.73423" lon="-0.60599">
        <ele>243.8</ele>
        <time>2014-04-10T08:20:40Z</time>
      </trkpt>
      <trkpt lat="48.73409" lon="-0.60661">
        <ele>243.6</ele>
        <time>2014-04-10T08:20:49Z</time>
      </trkpt>
      <trkpt lat="48.73404" lon="-0.60674">
        <ele>243.6</ele>
        <time>2014-04-10T08:20:51Z</time>
      </trkpt>
      <trkpt lat="48.73402" lon="-0.6068">
        <ele>243.4</ele>
        <time>2014-04-10T08:20:52Z</time>
      </trkpt>
      <trkpt lat="48.73376" lon="-0.60758">
        <ele>242.6</ele>
        <time>2014-04-10T08:21:05Z</time>
      </trkpt>
      <trkpt lat="48.73366" lon="-0.6077">
        <ele>242.4</ele>
        <time>2014-04-10T08:21:08Z</time>
      </trkpt>
      <trkpt lat="48.7334" lon="-0.60795">
        <ele>242.4</ele>
        <time>2014-04-10T08:21:15Z</time>
      </trkpt>
      <trkpt lat="48.73336" lon="-0.60799">
        <ele>242.4</ele>
        <time>2014-04-10T08:21:16Z</time>
      </trkpt>
      <trkpt lat="48.73333" lon="-0.60803">
        <ele>242.4</ele>
        <time>2014-04-10T08:21:17Z</time>
      </trkpt>
      <trkpt lat="48.7333" lon="-0.60809">
        <ele>242.4</ele>
        <time>2014-04-10T08:21:18Z</time>
      </trkpt>
      <trkpt lat="48.73327" lon="-0.60814">
        <ele>242.6</ele>
        <time>2014-04-10T08:21:19Z</time>
      </trkpt>
      <trkpt lat="48.73322" lon="-0.60826">
        <ele>242.6</ele>
        <time>2014-04-10T08:21:21Z</time>
      </trkpt>
      <trkpt lat="48.73319" lon="-0.60832">
        <ele>242.4</ele>
        <time>2014-04-10T08:21:22Z</time>
      </trkpt>
      <trkpt lat="48.73314" lon="-0.60845">
        <ele>242.4</ele>
        <time>2014-04-10T08:21:24Z</time>
      </trkpt>
      <trkpt lat="48.73309" lon="-0.60858">
        <ele>242.2</ele>
        <time>2014-04-10T08:21:26Z</time>
      </trkpt>
      <trkpt lat="48.73297" lon="-0.60889">
        <ele>241.8</ele>
        <time>2014-04-10T08:21:31Z</time>
      </trkpt>
      <trkpt lat="48.73297" lon="-0.60896">
        <ele>241.6</ele>
        <time>2014-04-10T08:21:32Z</time>
      </trkpt>
      <trkpt lat="48.73297" lon="-0.60901">
        <ele>241.6</ele>
        <time>2014-04-10T08:21:33Z</time>
      </trkpt>
      <trkpt lat="48.73298" lon="-0.60907">
        <ele>241.4</ele>
        <time>2014-04-10T08:21:34Z</time>
      </trkpt>
      <trkpt lat="48.73299" lon="-0.60913">
        <ele>241.4</ele>
        <time>2014-04-10T08:21:35Z</time>
      </trkpt>
      <trkpt lat="48.733" lon="-0.60919">
        <ele>241.4</ele>
        <time>2014-04-10T08:21:36Z</time>
      </trkpt>
      <trkpt lat="48.73309" lon="-0.60966">
        <ele>241.8</ele>
        <time>2014-04-10T08:21:43Z</time>
      </trkpt>
      <trkpt lat="48.73305" lon="-0.61007">
        <ele>242</ele>
        <time>2014-04-10T08:21:49Z</time>
      </trkpt>
      <trkpt lat="48.73304" lon="-0.61014">
        <ele>242</ele>
        <time>2014-04-10T08:21:50Z</time>
      </trkpt>
      <trkpt lat="48.73303" lon="-0.61021">
        <ele>242</ele>
        <time>2014-04-10T08:21:51Z</time>
      </trkpt>
      <trkpt lat="48.73303" lon="-0.61028">
        <ele>242</ele>
        <time>2014-04-10T08:21:52Z</time>
      </trkpt>
      <trkpt lat="48.73303" lon="-0.61034">
        <ele>241.8</ele>
        <time>2014-04-10T08:21:53Z</time>
      </trkpt>
      <trkpt lat="48.73303" lon="-0.6104">
        <ele>241.8</ele>
        <time>2014-04-10T08:21:54Z</time>
      </trkpt>
      <trkpt lat="48.73302" lon="-0.61046">
        <ele>241.8</ele>
        <time>2014-04-10T08:21:55Z</time>
      </trkpt>
      <trkpt lat="48.733" lon="-0.61052">
        <ele>241.8</ele>
        <time>2014-04-10T08:21:56Z</time>
      </trkpt>
      <trkpt lat="48.73299" lon="-0.61058">
        <ele>241.6</ele>
        <time>2014-04-10T08:21:57Z</time>
      </trkpt>
      <trkpt lat="48.73298" lon="-0.61064">
        <ele>241.6</ele>
        <time>2014-04-10T08:21:58Z</time>
      </trkpt>
      <trkpt lat="48.73263" lon="-0.61144">
        <ele>241.8</ele>
        <time>2014-04-10T08:22:12Z</time>
      </trkpt>
      <trkpt lat="48.7326" lon="-0.6115">
        <ele>241.8</ele>
        <time>2014-04-10T08:22:13Z</time>
      </trkpt>
      <trkpt lat="48.73236" lon="-0.6122">
        <ele>243.2</ele>
        <time>2014-04-10T08:22:27Z</time>
      </trkpt>
      <trkpt lat="48.73237" lon="-0.61223">
        <ele>243.4</ele>
        <time>2014-04-10T08:22:28Z</time>
      </trkpt>
      <trkpt lat="48.73237" lon="-0.61225">
        <ele>243.6</ele>
        <time>2014-04-10T08:22:29Z</time>
      </trkpt>
      <trkpt lat="48.73239" lon="-0.61228">
        <ele>243.8</ele>
        <time>2014-04-10T08:22:30Z</time>
      </trkpt>
      <trkpt lat="48.73241" lon="-0.61229">
        <ele>243.8</ele>
        <time>2014-04-10T08:22:31Z</time>
      </trkpt>
      <trkpt lat="48.73243" lon="-0.61231">
        <ele>244</ele>
        <time>2014-04-10T08:22:32Z</time>
      </trkpt>
      <trkpt lat="48.73244" lon="-0.61235">
        <ele>244.2</ele>
        <time>2014-04-10T08:22:33Z</time>
      </trkpt>
      <trkpt lat="48.73245" lon="-0.61238">
        <ele>244.2</ele>
        <time>2014-04-10T08:22:34Z</time>
      </trkpt>
      <trkpt lat="48.73244" lon="-0.61242">
        <ele>244.2</ele>
        <time>2014-04-10T08:22:35Z</time>
      </trkpt>
      <trkpt lat="48.73235" lon="-0.61294">
        <ele>244.2</ele>
        <time>2014-04-10T08:22:45Z</time>
      </trkpt>
      <trkpt lat="48.73225" lon="-0.61364">
        <ele>244.4</ele>
        <time>2014-04-10T08:22:58Z</time>
      </trkpt>
      <trkpt lat="48.73208" lon="-0.61443">
        <ele>244.6</ele>
        <time>2014-04-10T08:23:11Z</time>
      </trkpt>
      <trkpt lat="48.73192" lon="-0.61505">
        <ele>244.6</ele>
        <time>2014-04-10T08:23:21Z</time>
      </trkpt>
      <trkpt lat="48.73191" lon="-0.61519">
        <ele>244.6</ele>
        <time>2014-04-10T08:23:23Z</time>
      </trkpt>
      <trkpt lat="48.73182" lon="-0.61563">
        <ele>244.2</ele>
        <time>2014-04-10T08:23:30Z</time>
      </trkpt>
      <trkpt lat="48.73171" lon="-0.61618">
        <ele>244.2</ele>
        <time>2014-04-10T08:23:39Z</time>
      </trkpt>
      <trkpt lat="48.7315" lon="-0.61658">
        <ele>244.4</ele>
        <time>2014-04-10T08:23:45Z</time>
      </trkpt>
      <trkpt lat="48.73128" lon="-0.61684">
        <ele>244.4</ele>
        <time>2014-04-10T08:23:50Z</time>
      </trkpt>
      <trkpt lat="48.7308" lon="-0.61713">
        <ele>244.6</ele>
        <time>2014-04-10T08:24:02Z</time>
      </trkpt>
      <trkpt lat="48.73049" lon="-0.61736">
        <ele>245.2</ele>
        <time>2014-04-10T08:24:12Z</time>
      </trkpt>
      <trkpt lat="48.73032" lon="-0.6175">
        <ele>244.4</ele>
        <time>2014-04-10T08:24:23Z</time>
      </trkpt>
      <trkpt lat="48.73023" lon="-0.61761">
        <ele>244.4</ele>
        <time>2014-04-10T08:24:28Z</time>
      </trkpt>
      <trkpt lat="48.73015" lon="-0.61773">
        <ele>244.6</ele>
        <time>2014-04-10T08:24:34Z</time>
      </trkpt>
      <trkpt lat="48.73006" lon="-0.61788">
        <ele>245.2</ele>
        <time>2014-04-10T08:24:39Z</time>
      </trkpt>
      <trkpt lat="48.72989" lon="-0.61828">
        <ele>248</ele>
        <time>2014-04-10T08:24:51Z</time>
      </trkpt>
      <trkpt lat="48.72987" lon="-0.6183">
        <ele>248.2</ele>
        <time>2014-04-10T08:24:52Z</time>
      </trkpt>
      <trkpt lat="48.72984" lon="-0.61827">
        <ele>248.6</ele>
        <time>2014-04-10T08:24:54Z</time>
      </trkpt>
      <trkpt lat="48.72983" lon="-0.61824">
        <ele>248.6</ele>
        <time>2014-04-10T08:24:55Z</time>
      </trkpt>
      <trkpt lat="48.72982" lon="-0.61821">
        <ele>248.8</ele>
        <time>2014-04-10T08:24:56Z</time>
      </trkpt>
      <trkpt lat="48.72982" lon="-0.61817">
        <ele>249</ele>
        <time>2014-04-10T08:24:57Z</time>
      </trkpt>
      <trkpt lat="48.7296" lon="-0.61794">
        <ele>251.2</ele>
        <time>2014-04-10T08:25:08Z</time>
      </trkpt>
      <trkpt lat="48.72922" lon="-0.618">
        <ele>254.4</ele>
        <time>2014-04-10T08:25:21Z</time>
      </trkpt>
      <trkpt lat="48.7287" lon="-0.61775">
        <ele>255.6</ele>
        <time>2014-04-10T08:25:36Z</time>
      </trkpt>
      <trkpt lat="48.72861" lon="-0.61772">
        <ele>255.2</ele>
        <time>2014-04-10T08:25:38Z</time>
      </trkpt>
      <trkpt lat="48.7284" lon="-0.61765">
        <ele>254.6</ele>
        <time>2014-04-10T08:25:43Z</time>
      </trkpt>
      <trkpt lat="48.72836" lon="-0.61762">
        <ele>254.4</ele>
        <time>2014-04-10T08:25:44Z</time>
      </trkpt>
      <trkpt lat="48.72833" lon="-0.6176">
        <ele>254.4</ele>
        <time>2014-04-10T08:25:45Z</time>
      </trkpt>
      <trkpt lat="48.72829" lon="-0.61756">
        <ele>254.4</ele>
        <time>2014-04-10T08:25:46Z</time>
      </trkpt>
      <trkpt lat="48.72825" lon="-0.61753">
        <ele>254.4</ele>
        <time>2014-04-10T08:25:47Z</time>
      </trkpt>
      <trkpt lat="48.72822" lon="-0.61749">
        <ele>254.2</ele>
        <time>2014-04-10T08:25:48Z</time>
      </trkpt>
      <trkpt lat="48.72819" lon="-0.61744">
        <ele>254.2</ele>
        <time>2014-04-10T08:25:49Z</time>
      </trkpt>
      <trkpt lat="48.72816" lon="-0.61738">
        <ele>254</ele>
        <time>2014-04-10T08:25:50Z</time>
      </trkpt>
      <trkpt lat="48.72814" lon="-0.61733">
        <ele>254</ele>
        <time>2014-04-10T08:25:51Z</time>
      </trkpt>
      <trkpt lat="48.72806" lon="-0.61716">
        <ele>253.6</ele>
        <time>2014-04-10T08:25:54Z</time>
      </trkpt>
      <trkpt lat="48.72759" lon="-0.61609">
        <ele>256.4</ele>
        <time>2014-04-10T08:26:14Z</time>
      </trkpt>
      <trkpt lat="48.72739" lon="-0.61567">
        <ele>259.4</ele>
        <time>2014-04-10T08:26:25Z</time>
      </trkpt>
      <trkpt lat="48.72723" lon="-0.61537">
        <ele>262</ele>
        <time>2014-04-10T08:26:34Z</time>
      </trkpt>
      <trkpt lat="48.72698" lon="-0.61479">
        <ele>264.8</ele>
        <time>2014-04-10T08:26:48Z</time>
      </trkpt>
      <trkpt lat="48.72675" lon="-0.61432">
        <ele>265.8</ele>
        <time>2014-04-10T08:27:05Z</time>
      </trkpt>
      <trkpt lat="48.7267" lon="-0.61431">
        <ele>266</ele>
        <time>2014-04-10T08:27:07Z</time>
      </trkpt>
      <trkpt lat="48.72668" lon="-0.61433">
        <ele>266</ele>
        <time>2014-04-10T08:27:08Z</time>
      </trkpt>
      <trkpt lat="48.72666" lon="-0.61435">
        <ele>266</ele>
        <time>2014-04-10T08:27:09Z</time>
      </trkpt>
      <trkpt lat="48.72619" lon="-0.61478">
        <ele>266.2</ele>
        <time>2014-04-10T08:27:25Z</time>
      </trkpt>
      <trkpt lat="48.72568" lon="-0.6151">
        <ele>266.4</ele>
        <time>2014-04-10T08:27:40Z</time>
      </trkpt>
      <trkpt lat="48.72543" lon="-0.61462">
        <ele>265.4</ele>
        <time>2014-04-10T08:27:52Z</time>
      </trkpt>
      <trkpt lat="48.72533" lon="-0.61453">
        <ele>265</ele>
        <time>2014-04-10T08:27:56Z</time>
      </trkpt>
      <trkpt lat="48.7249" lon="-0.61443">
        <ele>264</ele>
        <time>2014-04-10T08:28:07Z</time>
      </trkpt>
      <trkpt lat="48.72477" lon="-0.6144">
        <ele>263.6</ele>
        <time>2014-04-10T08:28:10Z</time>
      </trkpt>
      <trkpt lat="48.7243" lon="-0.61438">
        <ele>263.6</ele>
        <time>2014-04-10T08:28:22Z</time>
      </trkpt>
      <trkpt lat="48.72388" lon="-0.61432">
        <ele>266.8</ele>
        <time>2014-04-10T08:28:35Z</time>
      </trkpt>
      <trkpt lat="48.72369" lon="-0.61427">
        <ele>270</ele>
        <time>2014-04-10T08:28:43Z</time>
      </trkpt>
      <trkpt lat="48.72339" lon="-0.61426">
        <ele>273.2</ele>
        <time>2014-04-10T08:28:53Z</time>
      </trkpt>
      <trkpt lat="48.72311" lon="-0.61432">
        <ele>276.2</ele>
        <time>2014-04-10T08:29:03Z</time>
      </trkpt>
      <trkpt lat="48.72276" lon="-0.61436">
        <ele>278.6</ele>
        <time>2014-04-10T08:29:20Z</time>
      </trkpt>
      <trkpt lat="48.7224" lon="-0.61446">
        <ele>280.2</ele>
        <time>2014-04-10T08:29:35Z</time>
      </trkpt>
      <trkpt lat="48.72195" lon="-0.61463">
        <ele>281.6</ele>
        <time>2014-04-10T08:29:52Z</time>
      </trkpt>
      <trkpt lat="48.72148" lon="-0.61474">
        <ele>282.6</ele>
        <time>2014-04-10T08:30:08Z</time>
      </trkpt>
      <trkpt lat="48.7209" lon="-0.61459">
        <ele>284</ele>
        <time>2014-04-10T08:30:27Z</time>
      </trkpt>
      <trkpt lat="48.72047" lon="-0.61432">
        <ele>285</ele>
        <time>2014-04-10T08:30:41Z</time>
      </trkpt>
      <trkpt lat="48.71999" lon="-0.6139">
        <ele>286.4</ele>
        <time>2014-04-10T08:30:57Z</time>
      </trkpt>
      <trkpt lat="48.71954" lon="-0.61358">
        <ele>289</ele>
        <time>2014-04-10T08:31:12Z</time>
      </trkpt>
      <trkpt lat="48.71899" lon="-0.61362">
        <ele>291.2</ele>
        <time>2014-04-10T08:31:31Z</time>
      </trkpt>
      <trkpt lat="48.71864" lon="-0.61391">
        <ele>291.8</ele>
        <time>2014-04-10T08:31:43Z</time>
      </trkpt>
      <trkpt lat="48.71812" lon="-0.61434">
        <ele>293</ele>
        <time>2014-04-10T08:32:00Z</time>
      </trkpt>
      <trkpt lat="48.71774" lon="-0.61445">
        <ele>294</ele>
        <time>2014-04-10T08:32:11Z</time>
      </trkpt>
      <trkpt lat="48.71717" lon="-0.61464">
        <ele>297</ele>
        <time>2014-04-10T08:32:29Z</time>
      </trkpt>
      <trkpt lat="48.71678" lon="-0.6147">
        <ele>299.6</ele>
        <time>2014-04-10T08:32:43Z</time>
      </trkpt>
      <trkpt lat="48.71652" lon="-0.61468">
        <ele>302.2</ele>
        <time>2014-04-10T08:32:53Z</time>
      </trkpt>
      <trkpt lat="48.71618" lon="-0.61466">
        <ele>305.2</ele>
        <time>2014-04-10T08:33:05Z</time>
      </trkpt>
      <trkpt lat="48.71591" lon="-0.61462">
        <ele>306.6</ele>
        <time>2014-04-10T08:33:15Z</time>
      </trkpt>
      <trkpt lat="48.7156" lon="-0.61456">
        <ele>308</ele>
        <time>2014-04-10T08:33:26Z</time>
      </trkpt>
      <trkpt lat="48.71522" lon="-0.61452">
        <ele>309.6</ele>
        <time>2014-04-10T08:33:41Z</time>
      </trkpt>
      <trkpt lat="48.7151" lon="-0.61454">
        <ele>309.8</ele>
        <time>2014-04-10T08:33:51Z</time>
      </trkpt>
      <trkpt lat="48.71509" lon="-0.61454">
        <ele>309.8</ele>
        <time>2014-04-10T08:33:54Z</time>
      </trkpt>
      <trkpt lat="48.71496" lon="-0.61445">
        <ele>310</ele>
        <time>2014-04-10T08:35:20Z</time>
      </trkpt>
      <trkpt lat="48.71472" lon="-0.61453">
        <ele>309.6</ele>
        <time>2014-04-10T08:35:32Z</time>
      </trkpt>
      <trkpt lat="48.71437" lon="-0.61462">
        <ele>308.4</ele>
        <time>2014-04-10T08:35:45Z</time>
      </trkpt>
      <trkpt lat="48.71416" lon="-0.61467">
        <ele>307.8</ele>
        <time>2014-04-10T08:35:52Z</time>
      </trkpt>
      <trkpt lat="48.71393" lon="-0.61496">
        <ele>306</ele>
        <time>2014-04-10T08:36:01Z</time>
      </trkpt>
      <trkpt lat="48.7139" lon="-0.61496">
        <ele>305.8</ele>
        <time>2014-04-10T08:36:02Z</time>
      </trkpt>
      <trkpt lat="48.71387" lon="-0.61496">
        <ele>305.6</ele>
        <time>2014-04-10T08:36:03Z</time>
      </trkpt>
      <trkpt lat="48.7135" lon="-0.615">
        <ele>305.6</ele>
        <time>2014-04-10T08:36:13Z</time>
      </trkpt>
      <trkpt lat="48.71313" lon="-0.6151">
        <ele>306</ele>
        <time>2014-04-10T08:36:24Z</time>
      </trkpt>
      <trkpt lat="48.71274" lon="-0.61511">
        <ele>306.2</ele>
        <time>2014-04-10T08:36:36Z</time>
      </trkpt>
      <trkpt lat="48.71233" lon="-0.61532">
        <ele>306.6</ele>
        <time>2014-04-10T08:36:48Z</time>
      </trkpt>
      <trkpt lat="48.71162" lon="-0.61542">
        <ele>303.4</ele>
        <time>2014-04-10T08:37:01Z</time>
      </trkpt>
      <trkpt lat="48.71157" lon="-0.61544">
        <ele>303</ele>
        <time>2014-04-10T08:37:02Z</time>
      </trkpt>
      <trkpt lat="48.71152" lon="-0.61547">
        <ele>302.8</ele>
        <time>2014-04-10T08:37:03Z</time>
      </trkpt>
      <trkpt lat="48.71148" lon="-0.61549">
        <ele>302.4</ele>
        <time>2014-04-10T08:37:04Z</time>
      </trkpt>
      <trkpt lat="48.71143" lon="-0.61551">
        <ele>302</ele>
        <time>2014-04-10T08:37:05Z</time>
      </trkpt>
      <trkpt lat="48.71139" lon="-0.61551">
        <ele>301.6</ele>
        <time>2014-04-10T08:37:06Z</time>
      </trkpt>
      <trkpt lat="48.71134" lon="-0.6155">
        <ele>301.2</ele>
        <time>2014-04-10T08:37:07Z</time>
      </trkpt>
      <trkpt lat="48.7113" lon="-0.61548">
        <ele>300.8</ele>
        <time>2014-04-10T08:37:08Z</time>
      </trkpt>
      <trkpt lat="48.71127" lon="-0.61545">
        <ele>300.6</ele>
        <time>2014-04-10T08:37:09Z</time>
      </trkpt>
      <trkpt lat="48.71124" lon="-0.61541">
        <ele>300.2</ele>
        <time>2014-04-10T08:37:10Z</time>
      </trkpt>
      <trkpt lat="48.71123" lon="-0.61537">
        <ele>300</ele>
        <time>2014-04-10T08:37:11Z</time>
      </trkpt>
      <trkpt lat="48.71122" lon="-0.61533">
        <ele>299.8</ele>
        <time>2014-04-10T08:37:12Z</time>
      </trkpt>
      <trkpt lat="48.71111" lon="-0.61494">
        <ele>300.4</ele>
        <time>2014-04-10T08:37:21Z</time>
      </trkpt>
      <trkpt lat="48.71108" lon="-0.61478">
        <ele>301</ele>
        <time>2014-04-10T08:37:25Z</time>
      </trkpt>
      <trkpt lat="48.71087" lon="-0.61406">
        <ele>302.2</ele>
        <time>2014-04-10T08:37:40Z</time>
      </trkpt>
      <trkpt lat="48.71083" lon="-0.61397">
        <ele>302.4</ele>
        <time>2014-04-10T08:37:42Z</time>
      </trkpt>
      <trkpt lat="48.71066" lon="-0.61389">
        <ele>302</ele>
        <time>2014-04-10T08:37:49Z</time>
      </trkpt>
      <trkpt lat="48.7102" lon="-0.61415">
        <ele>300.4</ele>
        <time>2014-04-10T08:38:02Z</time>
      </trkpt>
      <trkpt lat="48.70981" lon="-0.61441">
        <ele>299.4</ele>
        <time>2014-04-10T08:38:11Z</time>
      </trkpt>
      <trkpt lat="48.70957" lon="-0.6146">
        <ele>298.4</ele>
        <time>2014-04-10T08:38:16Z</time>
      </trkpt>
      <trkpt lat="48.70918" lon="-0.61484">
        <ele>297</ele>
        <time>2014-04-10T08:38:24Z</time>
      </trkpt>
      <trkpt lat="48.70886" lon="-0.61494">
        <ele>296.6</ele>
        <time>2014-04-10T08:38:31Z</time>
      </trkpt>
      <trkpt lat="48.70876" lon="-0.61497">
        <ele>296.6</ele>
        <time>2014-04-10T08:38:33Z</time>
      </trkpt>
      <trkpt lat="48.70867" lon="-0.615">
        <ele>296.4</ele>
        <time>2014-04-10T08:38:35Z</time>
      </trkpt>
      <trkpt lat="48.70803" lon="-0.61524">
        <ele>296.2</ele>
        <time>2014-04-10T08:38:50Z</time>
      </trkpt>
      <trkpt lat="48.70756" lon="-0.61543">
        <ele>297.6</ele>
        <time>2014-04-10T08:39:03Z</time>
      </trkpt>
      <trkpt lat="48.70707" lon="-0.61562">
        <ele>300.2</ele>
        <time>2014-04-10T08:39:17Z</time>
      </trkpt>
      <trkpt lat="48.70662" lon="-0.61577">
        <ele>299.6</ele>
        <time>2014-04-10T08:39:29Z</time>
      </trkpt>
      <trkpt lat="48.70648" lon="-0.61582">
        <ele>299.2</ele>
        <time>2014-04-10T08:39:33Z</time>
      </trkpt>
      <trkpt lat="48.70641" lon="-0.61576">
        <ele>298.6</ele>
        <time>2014-04-10T08:39:37Z</time>
      </trkpt>
      <trkpt lat="48.70638" lon="-0.61564">
        <ele>298.4</ele>
        <time>2014-04-10T08:39:41Z</time>
      </trkpt>
      <trkpt lat="48.70629" lon="-0.6156">
        <ele>298.6</ele>
        <time>2014-04-10T08:39:48Z</time>
      </trkpt>
      <trkpt lat="48.70612" lon="-0.61598">
        <ele>297.2</ele>
        <time>2014-04-10T08:39:59Z</time>
      </trkpt>
      <trkpt lat="48.70589" lon="-0.61659">
        <ele>296</ele>
        <time>2014-04-10T08:40:11Z</time>
      </trkpt>
      <trkpt lat="48.70566" lon="-0.61715">
        <ele>295.6</ele>
        <time>2014-04-10T08:40:24Z</time>
      </trkpt>
      <trkpt lat="48.70551" lon="-0.6176">
        <ele>295.2</ele>
        <time>2014-04-10T08:40:36Z</time>
      </trkpt>
      <trkpt lat="48.70551" lon="-0.61831">
        <ele>295.6</ele>
        <time>2014-04-10T08:40:49Z</time>
      </trkpt>
      <trkpt lat="48.70553" lon="-0.61896">
        <ele>295.4</ele>
        <time>2014-04-10T08:41:01Z</time>
      </trkpt>
      <trkpt lat="48.7056" lon="-0.61948">
        <ele>296.4</ele>
        <time>2014-04-10T08:41:13Z</time>
      </trkpt>
      <trkpt lat="48.70563" lon="-0.61957">
        <ele>296.6</ele>
        <time>2014-04-10T08:41:16Z</time>
      </trkpt>
      <trkpt lat="48.70556" lon="-0.61963">
        <ele>297.6</ele>
        <time>2014-04-10T08:41:22Z</time>
      </trkpt>
      <trkpt lat="48.70553" lon="-0.61962">
        <ele>297.8</ele>
        <time>2014-04-10T08:41:23Z</time>
      </trkpt>
      <trkpt lat="48.7055" lon="-0.61962">
        <ele>298.2</ele>
        <time>2014-04-10T08:41:24Z</time>
      </trkpt>
      <trkpt lat="48.70546" lon="-0.61964">
        <ele>298.4</ele>
        <time>2014-04-10T08:41:25Z</time>
      </trkpt>
      <trkpt lat="48.70543" lon="-0.61965">
        <ele>298.6</ele>
        <time>2014-04-10T08:41:26Z</time>
      </trkpt>
      <trkpt lat="48.7054" lon="-0.61966">
        <ele>298.8</ele>
        <time>2014-04-10T08:41:27Z</time>
      </trkpt>
      <trkpt lat="48.70536" lon="-0.61967">
        <ele>299</ele>
        <time>2014-04-10T08:41:28Z</time>
      </trkpt>
      <trkpt lat="48.70528" lon="-0.61972">
        <ele>299.4</ele>
        <time>2014-04-10T08:41:30Z</time>
      </trkpt>
      <trkpt lat="48.70495" lon="-0.61999">
        <ele>303</ele>
        <time>2014-04-10T08:41:39Z</time>
      </trkpt>
      <trkpt lat="48.70491" lon="-0.62003">
        <ele>303.4</ele>
        <time>2014-04-10T08:41:40Z</time>
      </trkpt>
      <trkpt lat="48.7047" lon="-0.62022">
        <ele>305.4</ele>
        <time>2014-04-10T08:41:45Z</time>
      </trkpt>
      <trkpt lat="48.70437" lon="-0.62044">
        <ele>309.2</ele>
        <time>2014-04-10T08:41:54Z</time>
      </trkpt>
      <trkpt lat="48.70413" lon="-0.62066">
        <ele>312.4</ele>
        <time>2014-04-10T08:42:01Z</time>
      </trkpt>
      <trkpt lat="48.70388" lon="-0.62082">
        <ele>315.6</ele>
        <time>2014-04-10T08:42:08Z</time>
      </trkpt>
      <trkpt lat="48.70357" lon="-0.62106">
        <ele>319</ele>
        <time>2014-04-10T08:42:16Z</time>
      </trkpt>
      <trkpt lat="48.70335" lon="-0.62124">
        <ele>322.4</ele>
        <time>2014-04-10T08:42:23Z</time>
      </trkpt>
      <trkpt lat="48.70305" lon="-0.62144">
        <ele>324.6</ele>
        <time>2014-04-10T08:42:34Z</time>
      </trkpt>
      <trkpt lat="48.70296" lon="-0.62147">
        <ele>325</ele>
        <time>2014-04-10T08:42:37Z</time>
      </trkpt>
      <trkpt lat="48.70263" lon="-0.62172">
        <ele>326.6</ele>
        <time>2014-04-10T08:42:49Z</time>
      </trkpt>
      <trkpt lat="48.70215" lon="-0.62207">
        <ele>328</ele>
        <time>2014-04-10T08:43:02Z</time>
      </trkpt>
      <trkpt lat="48.70175" lon="-0.62236">
        <ele>329</ele>
        <time>2014-04-10T08:43:16Z</time>
      </trkpt>
      <trkpt lat="48.70139" lon="-0.62262">
        <ele>330.2</ele>
        <time>2014-04-10T08:43:29Z</time>
      </trkpt>
      <trkpt lat="48.7011" lon="-0.62277">
        <ele>331.4</ele>
        <time>2014-04-10T08:43:40Z</time>
      </trkpt>
      <trkpt lat="48.7007" lon="-0.623">
        <ele>332.8</ele>
        <time>2014-04-10T08:43:53Z</time>
      </trkpt>
      <trkpt lat="48.7004" lon="-0.62319">
        <ele>334.4</ele>
        <time>2014-04-10T08:44:03Z</time>
      </trkpt>
      <trkpt lat="48.70025" lon="-0.6233">
        <ele>335</ele>
        <time>2014-04-10T08:44:08Z</time>
      </trkpt>
      <trkpt lat="48.70008" lon="-0.62341">
        <ele>335.8</ele>
        <time>2014-04-10T08:44:14Z</time>
      </trkpt>
      <trkpt lat="48.69964" lon="-0.62377">
        <ele>337.6</ele>
        <time>2014-04-10T08:44:27Z</time>
      </trkpt>
      <trkpt lat="48.69913" lon="-0.6242">
        <ele>340.6</ele>
        <time>2014-04-10T08:44:43Z</time>
      </trkpt>
      <trkpt lat="48.69866" lon="-0.62454">
        <ele>341.8</ele>
        <time>2014-04-10T08:44:56Z</time>
      </trkpt>
      <trkpt lat="48.69835" lon="-0.62475">
        <ele>341.2</ele>
        <time>2014-04-10T08:45:05Z</time>
      </trkpt>
      <trkpt lat="48.69814" lon="-0.62489">
        <ele>340.6</ele>
        <time>2014-04-10T08:45:10Z</time>
      </trkpt>
      <trkpt lat="48.69763" lon="-0.62525">
        <ele>338.8</ele>
        <time>2014-04-10T08:45:24Z</time>
      </trkpt>
      <trkpt lat="48.69756" lon="-0.6253">
        <ele>338.6</ele>
        <time>2014-04-10T08:45:26Z</time>
      </trkpt>
      <trkpt lat="48.69741" lon="-0.62542">
        <ele>338</ele>
        <time>2014-04-10T08:45:30Z</time>
      </trkpt>
      <trkpt lat="48.6972" lon="-0.62558">
        <ele>337.2</ele>
        <time>2014-04-10T08:45:35Z</time>
      </trkpt>
      <trkpt lat="48.69702" lon="-0.62576">
        <ele>336.2</ele>
        <time>2014-04-10T08:45:39Z</time>
      </trkpt>
      <trkpt lat="48.69639" lon="-0.62619">
        <ele>332.4</ele>
        <time>2014-04-10T08:45:49Z</time>
      </trkpt>
      <trkpt lat="48.69604" lon="-0.62641">
        <ele>329.8</ele>
        <time>2014-04-10T08:45:54Z</time>
      </trkpt>
      <trkpt lat="48.69583" lon="-0.62658">
        <ele>327.6</ele>
        <time>2014-04-10T08:45:58Z</time>
      </trkpt>
      <trkpt lat="48.69554" lon="-0.62683">
        <ele>323.8</ele>
        <time>2014-04-10T08:46:06Z</time>
      </trkpt>
      <trkpt lat="48.69542" lon="-0.62685">
        <ele>323</ele>
        <time>2014-04-10T08:46:09Z</time>
      </trkpt>
      <trkpt lat="48.69531" lon="-0.62673">
        <ele>321.8</ele>
        <time>2014-04-10T08:46:14Z</time>
      </trkpt>
      <trkpt lat="48.69521" lon="-0.6265">
        <ele>320.2</ele>
        <time>2014-04-10T08:46:24Z</time>
      </trkpt>
      <trkpt lat="48.69516" lon="-0.62635">
        <ele>319.4</ele>
        <time>2014-04-10T08:46:33Z</time>
      </trkpt>
      <trkpt lat="48.69511" lon="-0.62623">
        <ele>319</ele>
        <time>2014-04-10T08:46:38Z</time>
      </trkpt>
      <trkpt lat="48.69506" lon="-0.62613">
        <ele>318.4</ele>
        <time>2014-04-10T08:46:43Z</time>
      </trkpt>
      <trkpt lat="48.69496" lon="-0.62582">
        <ele>318.2</ele>
        <time>2014-04-10T08:46:56Z</time>
      </trkpt>
      <trkpt lat="48.69484" lon="-0.6255">
        <ele>318.2</ele>
        <time>2014-04-10T08:47:13Z</time>
      </trkpt>
      <trkpt lat="48.69481" lon="-0.62545">
        <ele>318</ele>
        <time>2014-04-10T08:47:15Z</time>
      </trkpt>
      <trkpt lat="48.69473" lon="-0.62516">
        <ele>317.4</ele>
        <time>2014-04-10T08:47:24Z</time>
      </trkpt>
      <trkpt lat="48.6946" lon="-0.62478">
        <ele>316.6</ele>
        <time>2014-04-10T08:47:34Z</time>
      </trkpt>
      <trkpt lat="48.69449" lon="-0.62445">
        <ele>316</ele>
        <time>2014-04-10T08:47:43Z</time>
      </trkpt>
      <trkpt lat="48.69445" lon="-0.6243">
        <ele>315.6</ele>
        <time>2014-04-10T08:47:47Z</time>
      </trkpt>
      <trkpt lat="48.69434" lon="-0.624">
        <ele>315</ele>
        <time>2014-04-10T08:47:54Z</time>
      </trkpt>
      <trkpt lat="48.6942" lon="-0.62343">
        <ele>313</ele>
        <time>2014-04-10T08:48:05Z</time>
      </trkpt>
      <trkpt lat="48.69405" lon="-0.62302">
        <ele>311.4</ele>
        <time>2014-04-10T08:48:15Z</time>
      </trkpt>
      <trkpt lat="48.6939" lon="-0.62261">
        <ele>309.8</ele>
        <time>2014-04-10T08:48:25Z</time>
      </trkpt>
      <trkpt lat="48.69389" lon="-0.62257">
        <ele>309.8</ele>
        <time>2014-04-10T08:48:26Z</time>
      </trkpt>
      <trkpt lat="48.69388" lon="-0.62232">
        <ele>309.4</ele>
        <time>2014-04-10T08:48:34Z</time>
      </trkpt>
      <trkpt lat="48.69378" lon="-0.62197">
        <ele>309</ele>
        <time>2014-04-10T08:48:44Z</time>
      </trkpt>
      <trkpt lat="48.69376" lon="-0.6219">
        <ele>308.8</ele>
        <time>2014-04-10T08:48:46Z</time>
      </trkpt>
      <trkpt lat="48.6936" lon="-0.62138">
        <ele>307.8</ele>
        <time>2014-04-10T08:48:59Z</time>
      </trkpt>
      <trkpt lat="48.69335" lon="-0.62066">
        <ele>307.2</ele>
        <time>2014-04-10T08:49:13Z</time>
      </trkpt>
      <trkpt lat="48.69314" lon="-0.62">
        <ele>307</ele>
        <time>2014-04-10T08:49:27Z</time>
      </trkpt>
      <trkpt lat="48.69292" lon="-0.6193">
        <ele>306.8</ele>
        <time>2014-04-10T08:49:41Z</time>
      </trkpt>
      <trkpt lat="48.6927" lon="-0.61869">
        <ele>308</ele>
        <time>2014-04-10T08:49:54Z</time>
      </trkpt>
      <trkpt lat="48.69255" lon="-0.61817">
        <ele>309.2</ele>
        <time>2014-04-10T08:50:05Z</time>
      </trkpt>
      <trkpt lat="48.69254" lon="-0.61814">
        <ele>309.2</ele>
        <time>2014-04-10T08:50:06Z</time>
      </trkpt>
      <trkpt lat="48.69254" lon="-0.61812">
        <ele>309.2</ele>
        <time>2014-04-10T08:50:07Z</time>
      </trkpt>
      <trkpt lat="48.69252" lon="-0.61809">
        <ele>309.4</ele>
        <time>2014-04-10T08:50:08Z</time>
      </trkpt>
      <trkpt lat="48.69251" lon="-0.61805">
        <ele>309.6</ele>
        <time>2014-04-10T08:50:09Z</time>
      </trkpt>
      <trkpt lat="48.69249" lon="-0.61801">
        <ele>309.6</ele>
        <time>2014-04-10T08:50:10Z</time>
      </trkpt>
      <trkpt lat="48.69248" lon="-0.61797">
        <ele>309.8</ele>
        <time>2014-04-10T08:50:11Z</time>
      </trkpt>
      <trkpt lat="48.69247" lon="-0.61792">
        <ele>310</ele>
        <time>2014-04-10T08:50:12Z</time>
      </trkpt>
      <trkpt lat="48.69245" lon="-0.61786">
        <ele>310</ele>
        <time>2014-04-10T08:50:13Z</time>
      </trkpt>
      <trkpt lat="48.69231" lon="-0.61739">
        <ele>310.6</ele>
        <time>2014-04-10T08:50:22Z</time>
      </trkpt>
      <trkpt lat="48.69214" lon="-0.61677">
        <ele>311.8</ele>
        <time>2014-04-10T08:50:33Z</time>
      </trkpt>
      <trkpt lat="48.69208" lon="-0.61652">
        <ele>312.6</ele>
        <time>2014-04-10T08:50:40Z</time>
      </trkpt>
      <trkpt lat="48.69206" lon="-0.61648">
        <ele>312.6</ele>
        <time>2014-04-10T08:50:41Z</time>
      </trkpt>
      <trkpt lat="48.69187" lon="-0.616">
        <ele>313</ele>
        <time>2014-04-10T08:50:53Z</time>
      </trkpt>
      <trkpt lat="48.69171" lon="-0.61561">
        <ele>312.8</ele>
        <time>2014-04-10T08:51:02Z</time>
      </trkpt>
      <trkpt lat="48.69159" lon="-0.61523">
        <ele>312.2</ele>
        <time>2014-04-10T08:51:10Z</time>
      </trkpt>
      <trkpt lat="48.69145" lon="-0.61478">
        <ele>311</ele>
        <time>2014-04-10T08:51:19Z</time>
      </trkpt>
      <trkpt lat="48.69141" lon="-0.61469">
        <ele>310.4</ele>
        <time>2014-04-10T08:51:21Z</time>
      </trkpt>
      <trkpt lat="48.69134" lon="-0.61448">
        <ele>309.8</ele>
        <time>2014-04-10T08:51:28Z</time>
      </trkpt>
      <trkpt lat="48.69133" lon="-0.61444">
        <ele>309.8</ele>
        <time>2014-04-10T08:51:29Z</time>
      </trkpt>
      <trkpt lat="48.69132" lon="-0.61441">
        <ele>309.6</ele>
        <time>2014-04-10T08:51:30Z</time>
      </trkpt>
      <trkpt lat="48.69125" lon="-0.6143">
        <ele>309</ele>
        <time>2014-04-10T08:51:35Z</time>
      </trkpt>
      <trkpt lat="48.69123" lon="-0.61427">
        <ele>308.8</ele>
        <time>2014-04-10T08:51:37Z</time>
      </trkpt>
      <trkpt lat="48.69112" lon="-0.61417">
        <ele>308.6</ele>
        <time>2014-04-10T08:51:42Z</time>
      </trkpt>
      <trkpt lat="48.6911" lon="-0.61412">
        <ele>308.6</ele>
        <time>2014-04-10T08:51:43Z</time>
      </trkpt>
      <trkpt lat="48.69109" lon="-0.61406">
        <ele>308.6</ele>
        <time>2014-04-10T08:51:44Z</time>
      </trkpt>
      <trkpt lat="48.69107" lon="-0.614">
        <ele>308.6</ele>
        <time>2014-04-10T08:51:45Z</time>
      </trkpt>
      <trkpt lat="48.69105" lon="-0.61394">
        <ele>308.6</ele>
        <time>2014-04-10T08:51:46Z</time>
      </trkpt>
      <trkpt lat="48.69103" lon="-0.61387">
        <ele>308.4</ele>
        <time>2014-04-10T08:51:47Z</time>
      </trkpt>
      <trkpt lat="48.69101" lon="-0.61381">
        <ele>308.4</ele>
        <time>2014-04-10T08:51:48Z</time>
      </trkpt>
      <trkpt lat="48.69099" lon="-0.61374">
        <ele>308.2</ele>
        <time>2014-04-10T08:51:49Z</time>
      </trkpt>
      <trkpt lat="48.69095" lon="-0.61361">
        <ele>307.6</ele>
        <time>2014-04-10T08:51:51Z</time>
      </trkpt>
      <trkpt lat="48.69092" lon="-0.61354">
        <ele>307.4</ele>
        <time>2014-04-10T08:51:52Z</time>
      </trkpt>
      <trkpt lat="48.6909" lon="-0.61348">
        <ele>307.2</ele>
        <time>2014-04-10T08:51:53Z</time>
      </trkpt>
      <trkpt lat="48.69088" lon="-0.61341">
        <ele>307</ele>
        <time>2014-04-10T08:51:54Z</time>
      </trkpt>
      <trkpt lat="48.69086" lon="-0.61335">
        <ele>306.8</ele>
        <time>2014-04-10T08:51:55Z</time>
      </trkpt>
      <trkpt lat="48.6908" lon="-0.61316">
        <ele>306.4</ele>
        <time>2014-04-10T08:51:58Z</time>
      </trkpt>
      <trkpt lat="48.69077" lon="-0.61309">
        <ele>306</ele>
        <time>2014-04-10T08:51:59Z</time>
      </trkpt>
      <trkpt lat="48.69075" lon="-0.61303">
        <ele>305.8</ele>
        <time>2014-04-10T08:52:00Z</time>
      </trkpt>
      <trkpt lat="48.6906" lon="-0.61265">
        <ele>305</ele>
        <time>2014-04-10T08:52:06Z</time>
      </trkpt>
      <trkpt lat="48.69058" lon="-0.61259">
        <ele>304.8</ele>
        <time>2014-04-10T08:52:07Z</time>
      </trkpt>
      <trkpt lat="48.69056" lon="-0.61254">
        <ele>304.6</ele>
        <time>2014-04-10T08:52:08Z</time>
      </trkpt>
      <trkpt lat="48.69039" lon="-0.61204">
        <ele>303.8</ele>
        <time>2014-04-10T08:52:16Z</time>
      </trkpt>
      <trkpt lat="48.69037" lon="-0.61197">
        <ele>303.6</ele>
        <time>2014-04-10T08:52:17Z</time>
      </trkpt>
      <trkpt lat="48.69035" lon="-0.61191">
        <ele>303.6</ele>
        <time>2014-04-10T08:52:18Z</time>
      </trkpt>
      <trkpt lat="48.69022" lon="-0.6115">
        <ele>302.8</ele>
        <time>2014-04-10T08:52:23Z</time>
      </trkpt>
      <trkpt lat="48.69019" lon="-0.61142">
        <ele>302.8</ele>
        <time>2014-04-10T08:52:24Z</time>
      </trkpt>
      <trkpt lat="48.69016" lon="-0.61135">
        <ele>302.6</ele>
        <time>2014-04-10T08:52:25Z</time>
      </trkpt>
      <trkpt lat="48.68997" lon="-0.61068">
        <ele>300.6</ele>
        <time>2014-04-10T08:52:33Z</time>
      </trkpt>
      <trkpt lat="48.68995" lon="-0.61059">
        <ele>300.4</ele>
        <time>2014-04-10T08:52:34Z</time>
      </trkpt>
      <trkpt lat="48.68992" lon="-0.61051">
        <ele>300.2</ele>
        <time>2014-04-10T08:52:35Z</time>
      </trkpt>
      <trkpt lat="48.68989" lon="-0.61042">
        <ele>300.2</ele>
        <time>2014-04-10T08:52:36Z</time>
      </trkpt>
      <trkpt lat="48.68987" lon="-0.61035">
        <ele>300</ele>
        <time>2014-04-10T08:52:37Z</time>
      </trkpt>
      <trkpt lat="48.68985" lon="-0.61027">
        <ele>299.8</ele>
        <time>2014-04-10T08:52:38Z</time>
      </trkpt>
      <trkpt lat="48.68967" lon="-0.60975">
        <ele>298.4</ele>
        <time>2014-04-10T08:52:47Z</time>
      </trkpt>
      <trkpt lat="48.68946" lon="-0.60924">
        <ele>299.2</ele>
        <time>2014-04-10T08:52:58Z</time>
      </trkpt>
      <trkpt lat="48.68943" lon="-0.6092">
        <ele>300</ele>
        <time>2014-04-10T08:53:04Z</time>
      </trkpt>
      <trkpt lat="48.68933" lon="-0.60914">
        <ele>300</ele>
        <time>2014-04-10T08:53:24Z</time>
      </trkpt>
      <trkpt lat="48.68932" lon="-0.60906">
        <ele>300.2</ele>
        <time>2014-04-10T08:53:27Z</time>
      </trkpt>
      <trkpt lat="48.68932" lon="-0.60901">
        <ele>300.2</ele>
        <time>2014-04-10T08:53:28Z</time>
      </trkpt>
      <trkpt lat="48.68932" lon="-0.60897">
        <ele>300.2</ele>
        <time>2014-04-10T08:53:29Z</time>
      </trkpt>
      <trkpt lat="48.68933" lon="-0.60893">
        <ele>300</ele>
        <time>2014-04-10T08:53:30Z</time>
      </trkpt>
      <trkpt lat="48.68923" lon="-0.6084">
        <ele>299.6</ele>
        <time>2014-04-10T08:53:40Z</time>
      </trkpt>
      <trkpt lat="48.68916" lon="-0.60829">
        <ele>299.6</ele>
        <time>2014-04-10T08:53:42Z</time>
      </trkpt>
      <trkpt lat="48.68912" lon="-0.60824">
        <ele>299.4</ele>
        <time>2014-04-10T08:53:43Z</time>
      </trkpt>
      <trkpt lat="48.68892" lon="-0.60801">
        <ele>299.2</ele>
        <time>2014-04-10T08:53:48Z</time>
      </trkpt>
      <trkpt lat="48.68887" lon="-0.60797">
        <ele>299.2</ele>
        <time>2014-04-10T08:53:49Z</time>
      </trkpt>
      <trkpt lat="48.68859" lon="-0.60767">
        <ele>298.6</ele>
        <time>2014-04-10T08:53:56Z</time>
      </trkpt>
      <trkpt lat="48.6884" lon="-0.60738">
        <ele>298</ele>
        <time>2014-04-10T08:54:01Z</time>
      </trkpt>
      <trkpt lat="48.68832" lon="-0.60726">
        <ele>297.8</ele>
        <time>2014-04-10T08:54:03Z</time>
      </trkpt>
      <trkpt lat="48.68808" lon="-0.60686">
        <ele>297.2</ele>
        <time>2014-04-10T08:54:09Z</time>
      </trkpt>
      <trkpt lat="48.68767" lon="-0.60595">
        <ele>295.8</ele>
        <time>2014-04-10T08:54:21Z</time>
      </trkpt>
      <trkpt lat="48.68748" lon="-0.60545">
        <ele>294.8</ele>
        <time>2014-04-10T08:54:27Z</time>
      </trkpt>
      <trkpt lat="48.68712" lon="-0.60459">
        <ele>293.8</ele>
        <time>2014-04-10T08:54:37Z</time>
      </trkpt>
      <trkpt lat="48.68704" lon="-0.60443">
        <ele>293.2</ele>
        <time>2014-04-10T08:54:39Z</time>
      </trkpt>
      <trkpt lat="48.68679" lon="-0.60387">
        <ele>292.2</ele>
        <time>2014-04-10T08:54:46Z</time>
      </trkpt>
      <trkpt lat="48.68667" lon="-0.60365">
        <ele>291.8</ele>
        <time>2014-04-10T08:54:49Z</time>
      </trkpt>
      <trkpt lat="48.68661" lon="-0.6035">
        <ele>291.6</ele>
        <time>2014-04-10T08:54:51Z</time>
      </trkpt>
      <trkpt lat="48.68653" lon="-0.60334">
        <ele>291.6</ele>
        <time>2014-04-10T08:54:53Z</time>
      </trkpt>
      <trkpt lat="48.68641" lon="-0.60302">
        <ele>291.2</ele>
        <time>2014-04-10T08:54:57Z</time>
      </trkpt>
      <trkpt lat="48.68618" lon="-0.6026">
        <ele>290.4</ele>
        <time>2014-04-10T08:55:03Z</time>
      </trkpt>
      <trkpt lat="48.68583" lon="-0.60175">
        <ele>289.4</ele>
        <time>2014-04-10T08:55:14Z</time>
      </trkpt>
      <trkpt lat="48.68569" lon="-0.6014">
        <ele>288.8</ele>
        <time>2014-04-10T08:55:21Z</time>
      </trkpt>
      <trkpt lat="48.68556" lon="-0.60105">
        <ele>288.6</ele>
        <time>2014-04-10T08:55:35Z</time>
      </trkpt>
      <trkpt lat="48.68546" lon="-0.60099">
        <ele>288.4</ele>
        <time>2014-04-10T08:55:50Z</time>
      </trkpt>
      <trkpt lat="48.68537" lon="-0.601">
        <ele>288.6</ele>
        <time>2014-04-10T08:55:55Z</time>
      </trkpt>
      <trkpt lat="48.68519" lon="-0.60112">
        <ele>287.2</ele>
        <time>2014-04-10T08:56:01Z</time>
      </trkpt>
      <trkpt lat="48.68486" lon="-0.60139">
        <ele>284.4</ele>
        <time>2014-04-10T08:56:10Z</time>
      </trkpt>
      <trkpt lat="48.68466" lon="-0.60166">
        <ele>281.8</ele>
        <time>2014-04-10T08:56:17Z</time>
      </trkpt>
      <trkpt lat="48.68455" lon="-0.6018">
        <ele>280.2</ele>
        <time>2014-04-10T08:56:20Z</time>
      </trkpt>
      <trkpt lat="48.68427" lon="-0.60204">
        <ele>277.8</ele>
        <time>2014-04-10T08:56:25Z</time>
      </trkpt>
      <trkpt lat="48.6841" lon="-0.60227">
        <ele>275.6</ele>
        <time>2014-04-10T08:56:29Z</time>
      </trkpt>
      <trkpt lat="48.68392" lon="-0.60248">
        <ele>273</ele>
        <time>2014-04-10T08:56:34Z</time>
      </trkpt>
      <trkpt lat="48.68373" lon="-0.6025">
        <ele>270.6</ele>
        <time>2014-04-10T08:56:39Z</time>
      </trkpt>
      <trkpt lat="48.68358" lon="-0.60255">
        <ele>269.2</ele>
        <time>2014-04-10T08:56:43Z</time>
      </trkpt>
      <trkpt lat="48.68336" lon="-0.60254">
        <ele>269</ele>
        <time>2014-04-10T08:56:48Z</time>
      </trkpt>
      <trkpt lat="48.68336" lon="-0.60236">
        <ele>270.2</ele>
        <time>2014-04-10T08:56:53Z</time>
      </trkpt>
      <trkpt lat="48.68338" lon="-0.602">
        <ele>272</ele>
        <time>2014-04-10T08:56:58Z</time>
      </trkpt>
      <trkpt lat="48.68341" lon="-0.6016">
        <ele>273.2</ele>
        <time>2014-04-10T08:57:03Z</time>
      </trkpt>
      <trkpt lat="48.68343" lon="-0.60146">
        <ele>273.6</ele>
        <time>2014-04-10T08:57:05Z</time>
      </trkpt>
      <trkpt lat="48.6835" lon="-0.60112">
        <ele>275.2</ele>
        <time>2014-04-10T08:57:10Z</time>
      </trkpt>
      <trkpt lat="48.68351" lon="-0.60089">
        <ele>276.2</ele>
        <time>2014-04-10T08:57:13Z</time>
      </trkpt>
      <trkpt lat="48.68343" lon="-0.60052">
        <ele>278</ele>
        <time>2014-04-10T08:57:19Z</time>
      </trkpt>
      <trkpt lat="48.6833" lon="-0.6003">
        <ele>281.8</ele>
        <time>2014-04-10T08:57:26Z</time>
      </trkpt>
      <trkpt lat="48.68312" lon="-0.59999">
        <ele>284.8</ele>
        <time>2014-04-10T08:57:34Z</time>
      </trkpt>
      <trkpt lat="48.68285" lon="-0.59955">
        <ele>285</ele>
        <time>2014-04-10T08:57:47Z</time>
      </trkpt>
      <trkpt lat="48.68285" lon="-0.59951">
        <ele>285</ele>
        <time>2014-04-10T08:57:48Z</time>
      </trkpt>
      <trkpt lat="48.68286" lon="-0.59946">
        <ele>284.8</ele>
        <time>2014-04-10T08:57:49Z</time>
      </trkpt>
      <trkpt lat="48.68287" lon="-0.59943">
        <ele>284.8</ele>
        <time>2014-04-10T08:57:50Z</time>
      </trkpt>
      <trkpt lat="48.68289" lon="-0.59942">
        <ele>284.6</ele>
        <time>2014-04-10T08:57:51Z</time>
      </trkpt>
      <trkpt lat="48.68291" lon="-0.5994">
        <ele>284.4</ele>
        <time>2014-04-10T08:57:52Z</time>
      </trkpt>
      <trkpt lat="48.68293" lon="-0.59939">
        <ele>284.2</ele>
        <time>2014-04-10T08:57:53Z</time>
      </trkpt>
      <trkpt lat="48.68295" lon="-0.59937">
        <ele>284.2</ele>
        <time>2014-04-10T08:57:54Z</time>
      </trkpt>
      <trkpt lat="48.68297" lon="-0.59936">
        <ele>284.2</ele>
        <time>2014-04-10T08:57:55Z</time>
      </trkpt>
      <trkpt lat="48.683" lon="-0.59934">
        <ele>284.2</ele>
        <time>2014-04-10T08:57:56Z</time>
      </trkpt>
      <trkpt lat="48.68337" lon="-0.59911">
        <ele>284.8</ele>
        <time>2014-04-10T08:58:10Z</time>
      </trkpt>
      <trkpt lat="48.6837" lon="-0.59891">
        <ele>284.6</ele>
        <time>2014-04-10T08:58:23Z</time>
      </trkpt>
      <trkpt lat="48.68394" lon="-0.59868">
        <ele>283.6</ele>
        <time>2014-04-10T08:58:35Z</time>
      </trkpt>
      <trkpt lat="48.68395" lon="-0.59868">
        <ele>283.6</ele>
        <time>2014-04-10T08:58:36Z</time>
      </trkpt>
      <trkpt lat="48.68397" lon="-0.59868">
        <ele>283.6</ele>
        <time>2014-04-10T08:58:37Z</time>
      </trkpt>
      <trkpt lat="48.68401" lon="-0.59866">
        <ele>283.4</ele>
        <time>2014-04-10T08:58:43Z</time>
      </trkpt>
      <trkpt lat="48.68407" lon="-0.59863">
        <ele>283.4</ele>
        <time>2014-04-10T08:58:55Z</time>
      </trkpt>
      <trkpt lat="48.68409" lon="-0.59862">
        <ele>283.4</ele>
        <time>2014-04-10T08:58:56Z</time>
      </trkpt>
      <trkpt lat="48.68411" lon="-0.59861">
        <ele>283.6</ele>
        <time>2014-04-10T08:59:02Z</time>
      </trkpt>
      <trkpt lat="48.68408" lon="-0.59863">
        <ele>283.6</ele>
        <time>2014-04-10T08:59:20Z</time>
      </trkpt>
      <trkpt lat="48.684" lon="-0.59859">
        <ele>283.6</ele>
        <time>2014-04-10T08:59:25Z</time>
      </trkpt>
      <trkpt lat="48.68385" lon="-0.59826">
        <ele>283.2</ele>
        <time>2014-04-10T08:59:36Z</time>
      </trkpt>
      <trkpt lat="48.68383" lon="-0.59821">
        <ele>282.8</ele>
        <time>2014-04-10T08:59:38Z</time>
      </trkpt>
      <trkpt lat="48.68354" lon="-0.59777">
        <ele>281.4</ele>
        <time>2014-04-10T08:59:50Z</time>
      </trkpt>
      <trkpt lat="48.68329" lon="-0.59747">
        <ele>280.2</ele>
        <time>2014-04-10T08:59:57Z</time>
      </trkpt>
      <trkpt lat="48.68324" lon="-0.59741">
        <ele>280</ele>
        <time>2014-04-10T08:59:58Z</time>
      </trkpt>
      <trkpt lat="48.68321" lon="-0.59737">
        <ele>279.8</ele>
        <time>2014-04-10T08:59:59Z</time>
      </trkpt>
      <trkpt lat="48.68318" lon="-0.59732">
        <ele>279.6</ele>
        <time>2014-04-10T09:00:00Z</time>
      </trkpt>
      <trkpt lat="48.68314" lon="-0.59727">
        <ele>279.2</ele>
        <time>2014-04-10T09:00:01Z</time>
      </trkpt>
      <trkpt lat="48.68281" lon="-0.59698">
        <ele>277.4</ele>
        <time>2014-04-10T09:00:09Z</time>
      </trkpt>
      <trkpt lat="48.68277" lon="-0.59696">
        <ele>277.2</ele>
        <time>2014-04-10T09:00:10Z</time>
      </trkpt>
      <trkpt lat="48.68273" lon="-0.59694">
        <ele>277.2</ele>
        <time>2014-04-10T09:00:11Z</time>
      </trkpt>
      <trkpt lat="48.68251" lon="-0.59679">
        <ele>275.2</ele>
        <time>2014-04-10T09:00:19Z</time>
      </trkpt>
      <trkpt lat="48.68251" lon="-0.59675">
        <ele>274.8</ele>
        <time>2014-04-10T09:00:20Z</time>
      </trkpt>
      <trkpt lat="48.68253" lon="-0.59672">
        <ele>274.6</ele>
        <time>2014-04-10T09:00:21Z</time>
      </trkpt>
      <trkpt lat="48.6829" lon="-0.59633">
        <ele>273.4</ele>
        <time>2014-04-10T09:00:35Z</time>
      </trkpt>
      <trkpt lat="48.68347" lon="-0.59595">
        <ele>271.8</ele>
        <time>2014-04-10T09:00:51Z</time>
      </trkpt>
      <trkpt lat="48.68381" lon="-0.59554">
        <ele>271</ele>
        <time>2014-04-10T09:01:03Z</time>
      </trkpt>
      <trkpt lat="48.68415" lon="-0.59509">
        <ele>272</ele>
        <time>2014-04-10T09:01:16Z</time>
      </trkpt>
      <trkpt lat="48.68447" lon="-0.59456">
        <ele>273.2</ele>
        <time>2014-04-10T09:01:29Z</time>
      </trkpt>
      <trkpt lat="48.68474" lon="-0.59402">
        <ele>273.8</ele>
        <time>2014-04-10T09:01:40Z</time>
      </trkpt>
      <trkpt lat="48.68511" lon="-0.59339">
        <ele>274.2</ele>
        <time>2014-04-10T09:01:55Z</time>
      </trkpt>
      <trkpt lat="48.68534" lon="-0.59301">
        <ele>274.4</ele>
        <time>2014-04-10T09:02:07Z</time>
      </trkpt>
      <trkpt lat="48.68532" lon="-0.59291">
        <ele>274</ele>
        <time>2014-04-10T09:02:10Z</time>
      </trkpt>
      <trkpt lat="48.6853" lon="-0.59288">
        <ele>274</ele>
        <time>2014-04-10T09:02:11Z</time>
      </trkpt>
      <trkpt lat="48.68528" lon="-0.59286">
        <ele>273.8</ele>
        <time>2014-04-10T09:02:12Z</time>
      </trkpt>
      <trkpt lat="48.68525" lon="-0.59284">
        <ele>273.6</ele>
        <time>2014-04-10T09:02:13Z</time>
      </trkpt>
      <trkpt lat="48.68522" lon="-0.5928">
        <ele>273.4</ele>
        <time>2014-04-10T09:02:14Z</time>
      </trkpt>
      <trkpt lat="48.6852" lon="-0.59277">
        <ele>273</ele>
        <time>2014-04-10T09:02:15Z</time>
      </trkpt>
      <trkpt lat="48.68519" lon="-0.59272">
        <ele>272.8</ele>
        <time>2014-04-10T09:02:16Z</time>
      </trkpt>
      <trkpt lat="48.68517" lon="-0.59268">
        <ele>272.6</ele>
        <time>2014-04-10T09:02:17Z</time>
      </trkpt>
      <trkpt lat="48.68515" lon="-0.59264">
        <ele>272.2</ele>
        <time>2014-04-10T09:02:18Z</time>
      </trkpt>
      <trkpt lat="48.68512" lon="-0.59262">
        <ele>271.8</ele>
        <time>2014-04-10T09:02:19Z</time>
      </trkpt>
      <trkpt lat="48.68509" lon="-0.5926">
        <ele>271.4</ele>
        <time>2014-04-10T09:02:20Z</time>
      </trkpt>
      <trkpt lat="48.68498" lon="-0.5924">
        <ele>269</ele>
        <time>2014-04-10T09:02:27Z</time>
      </trkpt>
      <trkpt lat="48.68487" lon="-0.59206">
        <ele>266.4</ele>
        <time>2014-04-10T09:02:34Z</time>
      </trkpt>
      <trkpt lat="48.68475" lon="-0.59193">
        <ele>265.2</ele>
        <time>2014-04-10T09:02:37Z</time>
      </trkpt>
      <trkpt lat="48.68452" lon="-0.59171">
        <ele>263.2</ele>
        <time>2014-04-10T09:02:43Z</time>
      </trkpt>
      <trkpt lat="48.68449" lon="-0.59168">
        <ele>263</ele>
        <time>2014-04-10T09:02:44Z</time>
      </trkpt>
      <trkpt lat="48.68446" lon="-0.59166">
        <ele>262.6</ele>
        <time>2014-04-10T09:02:45Z</time>
      </trkpt>
      <trkpt lat="48.68442" lon="-0.59164">
        <ele>262.4</ele>
        <time>2014-04-10T09:02:46Z</time>
      </trkpt>
      <trkpt lat="48.68439" lon="-0.59161">
        <ele>262</ele>
        <time>2014-04-10T09:02:47Z</time>
      </trkpt>
      <trkpt lat="48.68434" lon="-0.59158">
        <ele>261.6</ele>
        <time>2014-04-10T09:02:48Z</time>
      </trkpt>
      <trkpt lat="48.68429" lon="-0.59156">
        <ele>261.2</ele>
        <time>2014-04-10T09:02:49Z</time>
      </trkpt>
      <trkpt lat="48.68419" lon="-0.59151">
        <ele>260.4</ele>
        <time>2014-04-10T09:02:51Z</time>
      </trkpt>
      <trkpt lat="48.68413" lon="-0.59147">
        <ele>260</ele>
        <time>2014-04-10T09:02:52Z</time>
      </trkpt>
      <trkpt lat="48.68408" lon="-0.59144">
        <ele>259.2</ele>
        <time>2014-04-10T09:02:53Z</time>
      </trkpt>
      <trkpt lat="48.68404" lon="-0.59141">
        <ele>258.6</ele>
        <time>2014-04-10T09:02:54Z</time>
      </trkpt>
      <trkpt lat="48.68399" lon="-0.59138">
        <ele>258.2</ele>
        <time>2014-04-10T09:02:55Z</time>
      </trkpt>
      <trkpt lat="48.68394" lon="-0.59134">
        <ele>257.6</ele>
        <time>2014-04-10T09:02:56Z</time>
      </trkpt>
      <trkpt lat="48.68389" lon="-0.59132">
        <ele>257.2</ele>
        <time>2014-04-10T09:02:57Z</time>
      </trkpt>
      <trkpt lat="48.68375" lon="-0.59123">
        <ele>255.8</ele>
        <time>2014-04-10T09:03:00Z</time>
      </trkpt>
      <trkpt lat="48.68367" lon="-0.59116">
        <ele>255</ele>
        <time>2014-04-10T09:03:02Z</time>
      </trkpt>
      <trkpt lat="48.68363" lon="-0.59112">
        <ele>254.8</ele>
        <time>2014-04-10T09:03:03Z</time>
      </trkpt>
      <trkpt lat="48.68359" lon="-0.59108">
        <ele>254.4</ele>
        <time>2014-04-10T09:03:04Z</time>
      </trkpt>
      <trkpt lat="48.68357" lon="-0.59103">
        <ele>254.2</ele>
        <time>2014-04-10T09:03:05Z</time>
      </trkpt>
      <trkpt lat="48.68355" lon="-0.591">
        <ele>254</ele>
        <time>2014-04-10T09:03:06Z</time>
      </trkpt>
      <trkpt lat="48.68352" lon="-0.59098">
        <ele>253.8</ele>
        <time>2014-04-10T09:03:07Z</time>
      </trkpt>
      <trkpt lat="48.68349" lon="-0.59095">
        <ele>253.4</ele>
        <time>2014-04-10T09:03:08Z</time>
      </trkpt>
      <trkpt lat="48.68346" lon="-0.59091">
        <ele>253.2</ele>
        <time>2014-04-10T09:03:09Z</time>
      </trkpt>
      <trkpt lat="48.68322" lon="-0.59062">
        <ele>250.4</ele>
        <time>2014-04-10T09:03:18Z</time>
      </trkpt>
      <trkpt lat="48.68317" lon="-0.59055">
        <ele>249.6</ele>
        <time>2014-04-10T09:03:20Z</time>
      </trkpt>
      <trkpt lat="48.68305" lon="-0.59048">
        <ele>248.8</ele>
        <time>2014-04-10T09:03:24Z</time>
      </trkpt>
      <trkpt lat="48.68303" lon="-0.59041">
        <ele>248.2</ele>
        <time>2014-04-10T09:03:26Z</time>
      </trkpt>
      <trkpt lat="48.68289" lon="-0.59033">
        <ele>247</ele>
        <time>2014-04-10T09:03:32Z</time>
      </trkpt>
      <trkpt lat="48.68273" lon="-0.59025">
        <ele>246.6</ele>
        <time>2014-04-10T09:03:38Z</time>
      </trkpt>
      <trkpt lat="48.68258" lon="-0.59019">
        <ele>245.4</ele>
        <time>2014-04-10T09:03:44Z</time>
      </trkpt>
      <trkpt lat="48.6824" lon="-0.59014">
        <ele>245</ele>
        <time>2014-04-10T09:03:51Z</time>
      </trkpt>
      <trkpt lat="48.68218" lon="-0.59005">
        <ele>244.6</ele>
        <time>2014-04-10T09:03:59Z</time>
      </trkpt>
      <trkpt lat="48.68202" lon="-0.58998">
        <ele>244.2</ele>
        <time>2014-04-10T09:04:05Z</time>
      </trkpt>
      <trkpt lat="48.68171" lon="-0.58985">
        <ele>243</ele>
        <time>2014-04-10T09:04:15Z</time>
      </trkpt>
      <trkpt lat="48.68161" lon="-0.58982">
        <ele>243</ele>
        <time>2014-04-10T09:04:19Z</time>
      </trkpt>
      <trkpt lat="48.68143" lon="-0.58973">
        <ele>242.6</ele>
        <time>2014-04-10T09:04:25Z</time>
      </trkpt>
      <trkpt lat="48.68135" lon="-0.58968">
        <ele>242.4</ele>
        <time>2014-04-10T09:04:28Z</time>
      </trkpt>
      <trkpt lat="48.68111" lon="-0.58947">
        <ele>241.4</ele>
        <time>2014-04-10T09:04:38Z</time>
      </trkpt>
      <trkpt lat="48.68095" lon="-0.58929">
        <ele>240.6</ele>
        <time>2014-04-10T09:04:48Z</time>
      </trkpt>
      <trkpt lat="48.68093" lon="-0.58928">
        <ele>240.4</ele>
        <time>2014-04-10T09:04:49Z</time>
      </trkpt>
      <trkpt lat="48.68092" lon="-0.58929">
        <ele>240.2</ele>
        <time>2014-04-10T09:04:50Z</time>
      </trkpt>
      <trkpt lat="48.68091" lon="-0.5893">
        <ele>240.2</ele>
        <time>2014-04-10T09:04:51Z</time>
      </trkpt>
      <trkpt lat="48.68089" lon="-0.58932">
        <ele>240</ele>
        <time>2014-04-10T09:04:52Z</time>
      </trkpt>
      <trkpt lat="48.68087" lon="-0.58932">
        <ele>240</ele>
        <time>2014-04-10T09:04:53Z</time>
      </trkpt>
      <trkpt lat="48.68084" lon="-0.58931">
        <ele>240</ele>
        <time>2014-04-10T09:04:54Z</time>
      </trkpt>
      <trkpt lat="48.68082" lon="-0.58929">
        <ele>240</ele>
        <time>2014-04-10T09:04:55Z</time>
      </trkpt>
      <trkpt lat="48.68081" lon="-0.58926">
        <ele>240</ele>
        <time>2014-04-10T09:04:56Z</time>
      </trkpt>
      <trkpt lat="48.68079" lon="-0.58924">
        <ele>240.4</ele>
        <time>2014-04-10T09:04:57Z</time>
      </trkpt>
      <trkpt lat="48.68077" lon="-0.5892">
        <ele>240.4</ele>
        <time>2014-04-10T09:04:58Z</time>
      </trkpt>
      <trkpt lat="48.6805" lon="-0.58873">
        <ele>241</ele>
        <time>2014-04-10T09:05:12Z</time>
      </trkpt>
      <trkpt lat="48.68039" lon="-0.58854">
        <ele>241</ele>
        <time>2014-04-10T09:05:18Z</time>
      </trkpt>
      <trkpt lat="48.68024" lon="-0.58822">
        <ele>240.2</ele>
        <time>2014-04-10T09:05:26Z</time>
      </trkpt>
      <trkpt lat="48.68006" lon="-0.58777">
        <ele>239.6</ele>
        <time>2014-04-10T09:05:37Z</time>
      </trkpt>
      <trkpt lat="48.67971" lon="-0.58728">
        <ele>239.2</ele>
        <time>2014-04-10T09:05:50Z</time>
      </trkpt>
      <trkpt lat="48.67931" lon="-0.58697">
        <ele>238.6</ele>
        <time>2014-04-10T09:06:02Z</time>
      </trkpt>
      <trkpt lat="48.67888" lon="-0.58679">
        <ele>238.4</ele>
        <time>2014-04-10T09:06:15Z</time>
      </trkpt>
      <trkpt lat="48.67839" lon="-0.58681">
        <ele>238.2</ele>
        <time>2014-04-10T09:06:29Z</time>
      </trkpt>
      <trkpt lat="48.67809" lon="-0.5869">
        <ele>237.2</ele>
        <time>2014-04-10T09:06:39Z</time>
      </trkpt>
      <trkpt lat="48.67772" lon="-0.58703">
        <ele>236.6</ele>
        <time>2014-04-10T09:06:49Z</time>
      </trkpt>
      <trkpt lat="48.67727" lon="-0.5868">
        <ele>234.8</ele>
        <time>2014-04-10T09:07:01Z</time>
      </trkpt>
      <trkpt lat="48.67721" lon="-0.58658">
        <ele>234.4</ele>
        <time>2014-04-10T09:07:06Z</time>
      </trkpt>
      <trkpt lat="48.67724" lon="-0.58634">
        <ele>234</ele>
        <time>2014-04-10T09:07:10Z</time>
      </trkpt>
      <trkpt lat="48.67722" lon="-0.58629">
        <ele>233.6</ele>
        <time>2014-04-10T09:07:11Z</time>
      </trkpt>
      <trkpt lat="48.67718" lon="-0.58625">
        <ele>233.4</ele>
        <time>2014-04-10T09:07:12Z</time>
      </trkpt>
      <trkpt lat="48.67715" lon="-0.58621">
        <ele>233</ele>
        <time>2014-04-10T09:07:13Z</time>
      </trkpt>
      <trkpt lat="48.67711" lon="-0.58617">
        <ele>232.8</ele>
        <time>2014-04-10T09:07:14Z</time>
      </trkpt>
      <trkpt lat="48.6768" lon="-0.58572">
        <ele>230.8</ele>
        <time>2014-04-10T09:07:26Z</time>
      </trkpt>
      <trkpt lat="48.6767" lon="-0.58553">
        <ele>230.4</ele>
        <time>2014-04-10T09:07:31Z</time>
      </trkpt>
      <trkpt lat="48.67657" lon="-0.58511">
        <ele>230</ele>
        <time>2014-04-10T09:07:38Z</time>
      </trkpt>
      <trkpt lat="48.67652" lon="-0.58482">
        <ele>229.6</ele>
        <time>2014-04-10T09:07:42Z</time>
      </trkpt>
      <trkpt lat="48.67651" lon="-0.58474">
        <ele>229.6</ele>
        <time>2014-04-10T09:07:43Z</time>
      </trkpt>
      <trkpt lat="48.67647" lon="-0.58419">
        <ele>229</ele>
        <time>2014-04-10T09:07:51Z</time>
      </trkpt>
      <trkpt lat="48.67645" lon="-0.58411">
        <ele>229</ele>
        <time>2014-04-10T09:07:52Z</time>
      </trkpt>
      <trkpt lat="48.6763" lon="-0.58355">
        <ele>228</ele>
        <time>2014-04-10T09:08:02Z</time>
      </trkpt>
      <trkpt lat="48.67628" lon="-0.58349">
        <ele>227.8</ele>
        <time>2014-04-10T09:08:03Z</time>
      </trkpt>
      <trkpt lat="48.67585" lon="-0.58274">
        <ele>227.2</ele>
        <time>2014-04-10T09:08:14Z</time>
      </trkpt>
      <trkpt lat="48.67561" lon="-0.58243">
        <ele>226.8</ele>
        <time>2014-04-10T09:08:19Z</time>
      </trkpt>
      <trkpt lat="48.67541" lon="-0.58223">
        <ele>226.4</ele>
        <time>2014-04-10T09:08:23Z</time>
      </trkpt>
      <trkpt lat="48.6746" lon="-0.58191">
        <ele>226</ele>
        <time>2014-04-10T09:08:36Z</time>
      </trkpt>
      <trkpt lat="48.67442" lon="-0.58191">
        <ele>225.8</ele>
        <time>2014-04-10T09:08:39Z</time>
      </trkpt>
      <trkpt lat="48.67424" lon="-0.58191">
        <ele>226</ele>
        <time>2014-04-10T09:08:42Z</time>
      </trkpt>
      <trkpt lat="48.67408" lon="-0.58189">
        <ele>226.2</ele>
        <time>2014-04-10T09:08:45Z</time>
      </trkpt>
      <trkpt lat="48.67392" lon="-0.58183">
        <ele>226.4</ele>
        <time>2014-04-10T09:08:48Z</time>
      </trkpt>
      <trkpt lat="48.67374" lon="-0.5818">
        <ele>226.6</ele>
        <time>2014-04-10T09:08:51Z</time>
      </trkpt>
      <trkpt lat="48.67296" lon="-0.58192">
        <ele>226.6</ele>
        <time>2014-04-10T09:09:05Z</time>
      </trkpt>
      <trkpt lat="48.67272" lon="-0.58195">
        <ele>226.8</ele>
        <time>2014-04-10T09:09:10Z</time>
      </trkpt>
      <trkpt lat="48.67249" lon="-0.58194">
        <ele>226.8</ele>
        <time>2014-04-10T09:09:15Z</time>
      </trkpt>
      <trkpt lat="48.6724" lon="-0.58194">
        <ele>226.6</ele>
        <time>2014-04-10T09:09:17Z</time>
      </trkpt>
      <trkpt lat="48.67219" lon="-0.58196">
        <ele>226.6</ele>
        <time>2014-04-10T09:09:22Z</time>
      </trkpt>
      <trkpt lat="48.67204" lon="-0.58198">
        <ele>226.6</ele>
        <time>2014-04-10T09:09:28Z</time>
      </trkpt>
      <trkpt lat="48.67203" lon="-0.58198">
        <ele>226.6</ele>
        <time>2014-04-10T09:09:29Z</time>
      </trkpt>
      <trkpt lat="48.67202" lon="-0.58199">
        <ele>226.6</ele>
        <time>2014-04-10T09:09:30Z</time>
      </trkpt>
      <trkpt lat="48.67201" lon="-0.58199">
        <ele>226.6</ele>
        <time>2014-04-10T09:09:31Z</time>
      </trkpt>
      <trkpt lat="48.67199" lon="-0.582">
        <ele>226.8</ele>
        <time>2014-04-10T09:09:32Z</time>
      </trkpt>
      <trkpt lat="48.67196" lon="-0.582">
        <ele>226.8</ele>
        <time>2014-04-10T09:09:33Z</time>
      </trkpt>
      <trkpt lat="48.67193" lon="-0.58201">
        <ele>226.8</ele>
        <time>2014-04-10T09:09:34Z</time>
      </trkpt>
      <trkpt lat="48.6719" lon="-0.58202">
        <ele>226.8</ele>
        <time>2014-04-10T09:09:35Z</time>
      </trkpt>
      <trkpt lat="48.67186" lon="-0.58204">
        <ele>226.6</ele>
        <time>2014-04-10T09:09:36Z</time>
      </trkpt>
      <trkpt lat="48.67182" lon="-0.58205">
        <ele>226.6</ele>
        <time>2014-04-10T09:09:37Z</time>
      </trkpt>
      <trkpt lat="48.67117" lon="-0.58217">
        <ele>226.2</ele>
        <time>2014-04-10T09:09:50Z</time>
      </trkpt>
      <trkpt lat="48.67098" lon="-0.58222">
        <ele>226.2</ele>
        <time>2014-04-10T09:09:54Z</time>
      </trkpt>
      <trkpt lat="48.67017" lon="-0.58232">
        <ele>225.2</ele>
        <time>2014-04-10T09:10:10Z</time>
      </trkpt>
      <trkpt lat="48.66969" lon="-0.58228">
        <ele>225.6</ele>
        <time>2014-04-10T09:10:23Z</time>
      </trkpt>
      <trkpt lat="48.66946" lon="-0.58226">
        <ele>225.8</ele>
        <time>2014-04-10T09:10:31Z</time>
      </trkpt>
      <trkpt lat="48.66892" lon="-0.58214">
        <ele>225.6</ele>
        <time>2014-04-10T09:10:46Z</time>
      </trkpt>
      <trkpt lat="48.6687" lon="-0.58202">
        <ele>225.4</ele>
        <time>2014-04-10T09:10:57Z</time>
      </trkpt>
      <trkpt lat="48.66846" lon="-0.58196">
        <ele>225.2</ele>
        <time>2014-04-10T09:11:11Z</time>
      </trkpt>
      <trkpt lat="48.66843" lon="-0.58196">
        <ele>225.2</ele>
        <time>2014-04-10T09:11:13Z</time>
      </trkpt>
      <trkpt lat="48.66839" lon="-0.58194">
        <ele>225.2</ele>
        <time>2014-04-10T09:11:15Z</time>
      </trkpt>
      <trkpt lat="48.66835" lon="-0.58195">
        <ele>225.2</ele>
        <time>2014-04-10T09:11:17Z</time>
      </trkpt>
      <trkpt lat="48.66804" lon="-0.58173">
        <ele>225.2</ele>
        <time>2014-04-10T09:11:29Z</time>
      </trkpt>
      <trkpt lat="48.668" lon="-0.58171">
        <ele>225.2</ele>
        <time>2014-04-10T09:11:30Z</time>
      </trkpt>
      <trkpt lat="48.66738" lon="-0.58126">
        <ele>224.2</ele>
        <time>2014-04-10T09:11:44Z</time>
      </trkpt>
      <trkpt lat="48.6668" lon="-0.5808">
        <ele>224</ele>
        <time>2014-04-10T09:11:57Z</time>
      </trkpt>
      <trkpt lat="48.66626" lon="-0.58043">
        <ele>224.2</ele>
        <time>2014-04-10T09:12:09Z</time>
      </trkpt>
      <trkpt lat="48.66587" lon="-0.58019">
        <ele>224.2</ele>
        <time>2014-04-10T09:12:17Z</time>
      </trkpt>
      <trkpt lat="48.66562" lon="-0.58006">
        <ele>224</ele>
        <time>2014-04-10T09:12:22Z</time>
      </trkpt>
      <trkpt lat="48.66496" lon="-0.57985">
        <ele>224</ele>
        <time>2014-04-10T09:12:34Z</time>
      </trkpt>
      <trkpt lat="48.66467" lon="-0.57979">
        <ele>223.6</ele>
        <time>2014-04-10T09:12:39Z</time>
      </trkpt>
      <trkpt lat="48.66444" lon="-0.57977">
        <ele>223.6</ele>
        <time>2014-04-10T09:12:43Z</time>
      </trkpt>
      <trkpt lat="48.66358" lon="-0.57982">
        <ele>222.8</ele>
        <time>2014-04-10T09:12:58Z</time>
      </trkpt>
      <trkpt lat="48.66317" lon="-0.57988">
        <ele>222.8</ele>
        <time>2014-04-10T09:13:05Z</time>
      </trkpt>
      <trkpt lat="48.66285" lon="-0.57989">
        <ele>222.6</ele>
        <time>2014-04-10T09:13:10Z</time>
      </trkpt>
      <trkpt lat="48.66198" lon="-0.57997">
        <ele>221.8</ele>
        <time>2014-04-10T09:13:24Z</time>
      </trkpt>
      <trkpt lat="48.66134" lon="-0.58002">
        <ele>221.2</ele>
        <time>2014-04-10T09:13:35Z</time>
      </trkpt>
      <trkpt lat="48.66058" lon="-0.58008">
        <ele>221.2</ele>
        <time>2014-04-10T09:13:48Z</time>
      </trkpt>
      <trkpt lat="48.66041" lon="-0.5801">
        <ele>221</ele>
        <time>2014-04-10T09:13:51Z</time>
      </trkpt>
      <trkpt lat="48.66011" lon="-0.58011">
        <ele>220.6</ele>
        <time>2014-04-10T09:13:56Z</time>
      </trkpt>
      <trkpt lat="48.65994" lon="-0.58014">
        <ele>220.6</ele>
        <time>2014-04-10T09:13:59Z</time>
      </trkpt>
      <trkpt lat="48.65971" lon="-0.58015">
        <ele>220.4</ele>
        <time>2014-04-10T09:14:03Z</time>
      </trkpt>
      <trkpt lat="48.65935" lon="-0.58013">
        <ele>220.4</ele>
        <time>2014-04-10T09:14:09Z</time>
      </trkpt>
      <trkpt lat="48.65923" lon="-0.58014">
        <ele>220.4</ele>
        <time>2014-04-10T09:14:11Z</time>
      </trkpt>
      <trkpt lat="48.65815" lon="-0.58017">
        <ele>220.4</ele>
        <time>2014-04-10T09:14:28Z</time>
      </trkpt>
      <trkpt lat="48.6579" lon="-0.58019">
        <ele>220.2</ele>
        <time>2014-04-10T09:14:32Z</time>
      </trkpt>
      <trkpt lat="48.65699" lon="-0.58023">
        <ele>219.6</ele>
        <time>2014-04-10T09:14:47Z</time>
      </trkpt>
      <trkpt lat="48.65625" lon="-0.5803">
        <ele>219.6</ele>
        <time>2014-04-10T09:15:00Z</time>
      </trkpt>
      <trkpt lat="48.65528" lon="-0.58043">
        <ele>219.2</ele>
        <time>2014-04-10T09:15:17Z</time>
      </trkpt>
      <trkpt lat="48.65446" lon="-0.58059">
        <ele>219.2</ele>
        <time>2014-04-10T09:15:31Z</time>
      </trkpt>
      <trkpt lat="48.65429" lon="-0.58063">
        <ele>219.2</ele>
        <time>2014-04-10T09:15:34Z</time>
      </trkpt>
      <trkpt lat="48.65372" lon="-0.58084">
        <ele>219.4</ele>
        <time>2014-04-10T09:15:44Z</time>
      </trkpt>
      <trkpt lat="48.65366" lon="-0.58086">
        <ele>219.4</ele>
        <time>2014-04-10T09:15:45Z</time>
      </trkpt>
      <trkpt lat="48.653" lon="-0.58112">
        <ele>219</ele>
        <time>2014-04-10T09:15:57Z</time>
      </trkpt>
      <trkpt lat="48.65289" lon="-0.58117">
        <ele>219</ele>
        <time>2014-04-10T09:15:59Z</time>
      </trkpt>
      <trkpt lat="48.65272" lon="-0.58123">
        <ele>218.8</ele>
        <time>2014-04-10T09:16:02Z</time>
      </trkpt>
      <trkpt lat="48.65266" lon="-0.58124">
        <ele>218.8</ele>
        <time>2014-04-10T09:16:03Z</time>
      </trkpt>
      <trkpt lat="48.65254" lon="-0.58129">
        <ele>218.6</ele>
        <time>2014-04-10T09:16:05Z</time>
      </trkpt>
      <trkpt lat="48.65184" lon="-0.58145">
        <ele>217.4</ele>
        <time>2014-04-10T09:16:18Z</time>
      </trkpt>
      <trkpt lat="48.65166" lon="-0.58145">
        <ele>217.4</ele>
        <time>2014-04-10T09:16:21Z</time>
      </trkpt>
      <trkpt lat="48.65089" lon="-0.58137">
        <ele>217.8</ele>
        <time>2014-04-10T09:16:36Z</time>
      </trkpt>
      <trkpt lat="48.65066" lon="-0.58133">
        <ele>217.8</ele>
        <time>2014-04-10T09:16:41Z</time>
      </trkpt>
      <trkpt lat="48.65021" lon="-0.58117">
        <ele>217.6</ele>
        <time>2014-04-10T09:16:53Z</time>
      </trkpt>
      <trkpt lat="48.64992" lon="-0.58109">
        <ele>218</ele>
        <time>2014-04-10T09:17:05Z</time>
      </trkpt>
      <trkpt lat="48.64961" lon="-0.58093">
        <ele>218</ele>
        <time>2014-04-10T09:17:16Z</time>
      </trkpt>
      <trkpt lat="48.6494" lon="-0.58087">
        <ele>218</ele>
        <time>2014-04-10T09:17:25Z</time>
      </trkpt>
      <trkpt lat="48.64939" lon="-0.58088">
        <ele>218</ele>
        <time>2014-04-10T09:17:26Z</time>
      </trkpt>
      <trkpt lat="48.64934" lon="-0.58091">
        <ele>218</ele>
        <time>2014-04-10T09:17:30Z</time>
      </trkpt>
      <trkpt lat="48.64931" lon="-0.58089">
        <ele>218</ele>
        <time>2014-04-10T09:17:31Z</time>
      </trkpt>
      <trkpt lat="48.64929" lon="-0.58087">
        <ele>218</ele>
        <time>2014-04-10T09:17:32Z</time>
      </trkpt>
      <trkpt lat="48.64925" lon="-0.58085">
        <ele>218</ele>
        <time>2014-04-10T09:17:33Z</time>
      </trkpt>
      <trkpt lat="48.64882" lon="-0.5807">
        <ele>218</ele>
        <time>2014-04-10T09:17:45Z</time>
      </trkpt>
      <trkpt lat="48.64837" lon="-0.58053">
        <ele>218</ele>
        <time>2014-04-10T09:17:57Z</time>
      </trkpt>
      <trkpt lat="48.64829" lon="-0.5805">
        <ele>218.2</ele>
        <time>2014-04-10T09:18:00Z</time>
      </trkpt>
      <trkpt lat="48.64826" lon="-0.5805">
        <ele>218.2</ele>
        <time>2014-04-10T09:18:01Z</time>
      </trkpt>
      <trkpt lat="48.64822" lon="-0.58049">
        <ele>218.2</ele>
        <time>2014-04-10T09:18:02Z</time>
      </trkpt>
      <trkpt lat="48.64797" lon="-0.58041">
        <ele>218.2</ele>
        <time>2014-04-10T09:18:08Z</time>
      </trkpt>
      <trkpt lat="48.64784" lon="-0.58037">
        <ele>218</ele>
        <time>2014-04-10T09:18:11Z</time>
      </trkpt>
      <trkpt lat="48.64766" lon="-0.58033">
        <ele>217.8</ele>
        <time>2014-04-10T09:18:15Z</time>
      </trkpt>
      <trkpt lat="48.6474" lon="-0.58023">
        <ele>218</ele>
        <time>2014-04-10T09:18:21Z</time>
      </trkpt>
      <trkpt lat="48.64717" lon="-0.58015">
        <ele>218</ele>
        <time>2014-04-10T09:18:26Z</time>
      </trkpt>
      <trkpt lat="48.64644" lon="-0.57992">
        <ele>217.8</ele>
        <time>2014-04-10T09:18:40Z</time>
      </trkpt>
      <trkpt lat="48.64638" lon="-0.5799">
        <ele>217.6</ele>
        <time>2014-04-10T09:18:41Z</time>
      </trkpt>
      <trkpt lat="48.64579" lon="-0.57989">
        <ele>217.4</ele>
        <time>2014-04-10T09:18:51Z</time>
      </trkpt>
      <trkpt lat="48.64523" lon="-0.58003">
        <ele>216.8</ele>
        <time>2014-04-10T09:19:01Z</time>
      </trkpt>
      <trkpt lat="48.64451" lon="-0.58039">
        <ele>216.6</ele>
        <time>2014-04-10T09:19:16Z</time>
      </trkpt>
      <trkpt lat="48.6442" lon="-0.58062">
        <ele>216.6</ele>
        <time>2014-04-10T09:19:25Z</time>
      </trkpt>
      <trkpt lat="48.64412" lon="-0.58072">
        <ele>216.8</ele>
        <time>2014-04-10T09:19:30Z</time>
      </trkpt>
      <trkpt lat="48.64403" lon="-0.58082">
        <ele>216.8</ele>
        <time>2014-04-10T09:19:33Z</time>
      </trkpt>
      <trkpt lat="48.64391" lon="-0.58093">
        <ele>216.8</ele>
        <time>2014-04-10T09:19:36Z</time>
      </trkpt>
      <trkpt lat="48.6436" lon="-0.58132">
        <ele>216.2</ele>
        <time>2014-04-10T09:19:44Z</time>
      </trkpt>
      <trkpt lat="48.64357" lon="-0.58137">
        <ele>216.2</ele>
        <time>2014-04-10T09:19:45Z</time>
      </trkpt>
      <trkpt lat="48.64329" lon="-0.58185">
        <ele>216</ele>
        <time>2014-04-10T09:19:57Z</time>
      </trkpt>
      <trkpt lat="48.64306" lon="-0.58227">
        <ele>215.8</ele>
        <time>2014-04-10T09:20:08Z</time>
      </trkpt>
      <trkpt lat="48.64274" lon="-0.58282">
        <ele>215.6</ele>
        <time>2014-04-10T09:20:19Z</time>
      </trkpt>
      <trkpt lat="48.64245" lon="-0.58335">
        <ele>215.2</ele>
        <time>2014-04-10T09:20:29Z</time>
      </trkpt>
      <trkpt lat="48.64242" lon="-0.58341">
        <ele>215</ele>
        <time>2014-04-10T09:20:30Z</time>
      </trkpt>
      <trkpt lat="48.64239" lon="-0.58347">
        <ele>215</ele>
        <time>2014-04-10T09:20:31Z</time>
      </trkpt>
      <trkpt lat="48.64236" lon="-0.58353">
        <ele>214.8</ele>
        <time>2014-04-10T09:20:32Z</time>
      </trkpt>
      <trkpt lat="48.64233" lon="-0.58359">
        <ele>214.8</ele>
        <time>2014-04-10T09:20:33Z</time>
      </trkpt>
      <trkpt lat="48.64216" lon="-0.58393">
        <ele>214.6</ele>
        <time>2014-04-10T09:20:39Z</time>
      </trkpt>
      <trkpt lat="48.64213" lon="-0.584">
        <ele>214.6</ele>
        <time>2014-04-10T09:20:40Z</time>
      </trkpt>
      <trkpt lat="48.64209" lon="-0.58406">
        <ele>214.4</ele>
        <time>2014-04-10T09:20:41Z</time>
      </trkpt>
      <trkpt lat="48.64206" lon="-0.58413">
        <ele>214.4</ele>
        <time>2014-04-10T09:20:42Z</time>
      </trkpt>
      <trkpt lat="48.64203" lon="-0.58419">
        <ele>214.4</ele>
        <time>2014-04-10T09:20:43Z</time>
      </trkpt>
      <trkpt lat="48.64167" lon="-0.58496">
        <ele>214.4</ele>
        <time>2014-04-10T09:20:57Z</time>
      </trkpt>
      <trkpt lat="48.64153" lon="-0.58524">
        <ele>214.2</ele>
        <time>2014-04-10T09:21:03Z</time>
      </trkpt>
      <trkpt lat="48.64142" lon="-0.58548">
        <ele>214</ele>
        <time>2014-04-10T09:21:08Z</time>
      </trkpt>
      <trkpt lat="48.64119" lon="-0.58596">
        <ele>213.8</ele>
        <time>2014-04-10T09:21:18Z</time>
      </trkpt>
      <trkpt lat="48.64095" lon="-0.58641">
        <ele>213.8</ele>
        <time>2014-04-10T09:21:29Z</time>
      </trkpt>
      <trkpt lat="48.64094" lon="-0.58643">
        <ele>213.8</ele>
        <time>2014-04-10T09:21:30Z</time>
      </trkpt>
      <trkpt lat="48.64093" lon="-0.58645">
        <ele>213.8</ele>
        <time>2014-04-10T09:21:31Z</time>
      </trkpt>
      <trkpt lat="48.64092" lon="-0.58647">
        <ele>213.8</ele>
        <time>2014-04-10T09:21:32Z</time>
      </trkpt>
      <trkpt lat="48.6409" lon="-0.5865">
        <ele>213.8</ele>
        <time>2014-04-10T09:21:33Z</time>
      </trkpt>
      <trkpt lat="48.6409" lon="-0.58654">
        <ele>213.8</ele>
        <time>2014-04-10T09:21:34Z</time>
      </trkpt>
      <trkpt lat="48.64089" lon="-0.58658">
        <ele>213.8</ele>
        <time>2014-04-10T09:21:35Z</time>
      </trkpt>
      <trkpt lat="48.64088" lon="-0.58661">
        <ele>213.8</ele>
        <time>2014-04-10T09:21:36Z</time>
      </trkpt>
      <trkpt lat="48.64086" lon="-0.58664">
        <ele>213.8</ele>
        <time>2014-04-10T09:21:37Z</time>
      </trkpt>
      <trkpt lat="48.64083" lon="-0.58666">
        <ele>213.8</ele>
        <time>2014-04-10T09:21:38Z</time>
      </trkpt>
      <trkpt lat="48.64052" lon="-0.58719">
        <ele>213.6</ele>
        <time>2014-04-10T09:21:50Z</time>
      </trkpt>
      <trkpt lat="48.64021" lon="-0.5878">
        <ele>213.6</ele>
        <time>2014-04-10T09:22:03Z</time>
      </trkpt>
      <trkpt lat="48.64003" lon="-0.58812">
        <ele>213.6</ele>
        <time>2014-04-10T09:22:09Z</time>
      </trkpt>
      <trkpt lat="48.63987" lon="-0.58839">
        <ele>213.4</ele>
        <time>2014-04-10T09:22:14Z</time>
      </trkpt>
      <trkpt lat="48.63984" lon="-0.58845">
        <ele>213.4</ele>
        <time>2014-04-10T09:22:15Z</time>
      </trkpt>
      <trkpt lat="48.63981" lon="-0.58851">
        <ele>213.4</ele>
        <time>2014-04-10T09:22:16Z</time>
      </trkpt>
      <trkpt lat="48.63943" lon="-0.58927">
        <ele>213.2</ele>
        <time>2014-04-10T09:22:29Z</time>
      </trkpt>
      <trkpt lat="48.6394" lon="-0.58933">
        <ele>213.2</ele>
        <time>2014-04-10T09:22:30Z</time>
      </trkpt>
      <trkpt lat="48.63928" lon="-0.58957">
        <ele>213.2</ele>
        <time>2014-04-10T09:22:34Z</time>
      </trkpt>
      <trkpt lat="48.63913" lon="-0.58986">
        <ele>213</ele>
        <time>2014-04-10T09:22:39Z</time>
      </trkpt>
      <trkpt lat="48.63881" lon="-0.59051">
        <ele>213.4</ele>
        <time>2014-04-10T09:22:49Z</time>
      </trkpt>
      <trkpt lat="48.63855" lon="-0.59102">
        <ele>213.2</ele>
        <time>2014-04-10T09:22:57Z</time>
      </trkpt>
      <trkpt lat="48.6381" lon="-0.59165">
        <ele>213.2</ele>
        <time>2014-04-10T09:23:09Z</time>
      </trkpt>
      <trkpt lat="48.63785" lon="-0.59196">
        <ele>213.4</ele>
        <time>2014-04-10T09:23:15Z</time>
      </trkpt>
      <trkpt lat="48.63749" lon="-0.59236">
        <ele>213.2</ele>
        <time>2014-04-10T09:23:23Z</time>
      </trkpt>
      <trkpt lat="48.63723" lon="-0.59257">
        <ele>213.2</ele>
        <time>2014-04-10T09:23:29Z</time>
      </trkpt>
      <trkpt lat="48.63708" lon="-0.5927">
        <ele>213.2</ele>
        <time>2014-04-10T09:23:32Z</time>
      </trkpt>
      <trkpt lat="48.63674" lon="-0.59296">
        <ele>213</ele>
        <time>2014-04-10T09:23:39Z</time>
      </trkpt>
      <trkpt lat="48.63656" lon="-0.59307">
        <ele>213</ele>
        <time>2014-04-10T09:23:43Z</time>
      </trkpt>
      <trkpt lat="48.63642" lon="-0.59314">
        <ele>212.8</ele>
        <time>2014-04-10T09:23:46Z</time>
      </trkpt>
      <trkpt lat="48.6362" lon="-0.59328">
        <ele>212.6</ele>
        <time>2014-04-10T09:23:50Z</time>
      </trkpt>
      <trkpt lat="48.63589" lon="-0.59354">
        <ele>212</ele>
        <time>2014-04-10T09:23:56Z</time>
      </trkpt>
      <trkpt lat="48.63552" lon="-0.59381">
        <ele>211.4</ele>
        <time>2014-04-10T09:24:03Z</time>
      </trkpt>
      <trkpt lat="48.63537" lon="-0.59389">
        <ele>211</ele>
        <time>2014-04-10T09:24:06Z</time>
      </trkpt>
      <trkpt lat="48.63515" lon="-0.59402">
        <ele>210.8</ele>
        <time>2014-04-10T09:24:10Z</time>
      </trkpt>
      <trkpt lat="48.63505" lon="-0.59408">
        <ele>210.6</ele>
        <time>2014-04-10T09:24:12Z</time>
      </trkpt>
      <trkpt lat="48.63472" lon="-0.59428">
        <ele>210.4</ele>
        <time>2014-04-10T09:24:18Z</time>
      </trkpt>
      <trkpt lat="48.63457" lon="-0.59445">
        <ele>210</ele>
        <time>2014-04-10T09:24:21Z</time>
      </trkpt>
      <trkpt lat="48.63438" lon="-0.59457">
        <ele>209.8</ele>
        <time>2014-04-10T09:24:24Z</time>
      </trkpt>
      <trkpt lat="48.63427" lon="-0.59467">
        <ele>209.6</ele>
        <time>2014-04-10T09:24:26Z</time>
      </trkpt>
      <trkpt lat="48.63374" lon="-0.595">
        <ele>208.8</ele>
        <time>2014-04-10T09:24:35Z</time>
      </trkpt>
      <trkpt lat="48.63344" lon="-0.59522">
        <ele>208.6</ele>
        <time>2014-04-10T09:24:40Z</time>
      </trkpt>
      <trkpt lat="48.63326" lon="-0.59537">
        <ele>208.4</ele>
        <time>2014-04-10T09:24:43Z</time>
      </trkpt>
      <trkpt lat="48.63281" lon="-0.59572">
        <ele>207.8</ele>
        <time>2014-04-10T09:24:52Z</time>
      </trkpt>
      <trkpt lat="48.6324" lon="-0.59586">
        <ele>207.4</ele>
        <time>2014-04-10T09:25:00Z</time>
      </trkpt>
      <trkpt lat="48.63222" lon="-0.59596">
        <ele>207</ele>
        <time>2014-04-10T09:25:04Z</time>
      </trkpt>
      <trkpt lat="48.63189" lon="-0.59635">
        <ele>206.2</ele>
        <time>2014-04-10T09:25:14Z</time>
      </trkpt>
      <trkpt lat="48.63177" lon="-0.59645">
        <ele>206</ele>
        <time>2014-04-10T09:25:18Z</time>
      </trkpt>
      <trkpt lat="48.63173" lon="-0.59646">
        <ele>206</ele>
        <time>2014-04-10T09:25:20Z</time>
      </trkpt>
      <trkpt lat="48.63166" lon="-0.59641">
        <ele>206</ele>
        <time>2014-04-10T09:25:25Z</time>
      </trkpt>
      <trkpt lat="48.63165" lon="-0.59638">
        <ele>206</ele>
        <time>2014-04-10T09:25:26Z</time>
      </trkpt>
      <trkpt lat="48.63153" lon="-0.59593">
        <ele>205</ele>
        <time>2014-04-10T09:25:38Z</time>
      </trkpt>
      <trkpt lat="48.63143" lon="-0.59558">
        <ele>205</ele>
        <time>2014-04-10T09:25:50Z</time>
      </trkpt>
      <trkpt lat="48.63144" lon="-0.59557">
        <ele>205.2</ele>
        <time>2014-04-10T09:25:55Z</time>
      </trkpt>
      <trkpt lat="48.63148" lon="-0.59568">
        <ele>205</ele>
        <time>2014-04-10T09:27:05Z</time>
      </trkpt>
      <trkpt lat="48.63148" lon="-0.5957">
        <ele>205</ele>
        <time>2014-04-10T09:27:06Z</time>
      </trkpt>
      <trkpt lat="48.63149" lon="-0.59573">
        <ele>205</ele>
        <time>2014-04-10T09:27:07Z</time>
      </trkpt>
      <trkpt lat="48.63156" lon="-0.59594">
        <ele>204.4</ele>
        <time>2014-04-10T09:27:18Z</time>
      </trkpt>
      <trkpt lat="48.63155" lon="-0.5959">
        <ele>204.4</ele>
        <time>2014-04-10T09:27:29Z</time>
      </trkpt>
      <trkpt lat="48.63154" lon="-0.59591">
        <ele>204.4</ele>
        <time>2014-04-10T09:27:30Z</time>
      </trkpt>
      <trkpt lat="48.63153" lon="-0.59593">
        <ele>204.4</ele>
        <time>2014-04-10T09:27:31Z</time>
      </trkpt>
      <trkpt lat="48.63152" lon="-0.59595">
        <ele>204.4</ele>
        <time>2014-04-10T09:27:32Z</time>
      </trkpt>
      <trkpt lat="48.63153" lon="-0.59602">
        <ele>204.2</ele>
        <time>2014-04-10T09:27:38Z</time>
      </trkpt>
      <trkpt lat="48.63154" lon="-0.59604">
        <ele>204.4</ele>
        <time>2014-04-10T09:27:39Z</time>
      </trkpt>
      <trkpt lat="48.63155" lon="-0.59606">
        <ele>204.4</ele>
        <time>2014-04-10T09:27:40Z</time>
      </trkpt>
      <trkpt lat="48.63156" lon="-0.59609">
        <ele>204.4</ele>
        <time>2014-04-10T09:27:41Z</time>
      </trkpt>
      <trkpt lat="48.63158" lon="-0.59613">
        <ele>204.4</ele>
        <time>2014-04-10T09:27:42Z</time>
      </trkpt>
      <trkpt lat="48.63159" lon="-0.59616">
        <ele>204.4</ele>
        <time>2014-04-10T09:27:43Z</time>
      </trkpt>
      <trkpt lat="48.6316" lon="-0.59621">
        <ele>204.4</ele>
        <time>2014-04-10T09:27:44Z</time>
      </trkpt>
      <trkpt lat="48.6316" lon="-0.59624">
        <ele>204.4</ele>
        <time>2014-04-10T09:27:45Z</time>
      </trkpt>
      <trkpt lat="48.63161" lon="-0.59628">
        <ele>204.4</ele>
        <time>2014-04-10T09:27:46Z</time>
      </trkpt>
      <trkpt lat="48.63168" lon="-0.59657">
        <ele>205.2</ele>
        <time>2014-04-10T09:27:54Z</time>
      </trkpt>
      <trkpt lat="48.63167" lon="-0.5966">
        <ele>205.4</ele>
        <time>2014-04-10T09:27:55Z</time>
      </trkpt>
      <trkpt lat="48.63165" lon="-0.59662">
        <ele>205.4</ele>
        <time>2014-04-10T09:27:56Z</time>
      </trkpt>
      <trkpt lat="48.63161" lon="-0.59667">
        <ele>205.6</ele>
        <time>2014-04-10T09:27:58Z</time>
      </trkpt>
      <trkpt lat="48.6316" lon="-0.5967">
        <ele>205.6</ele>
        <time>2014-04-10T09:27:59Z</time>
      </trkpt>
      <trkpt lat="48.63157" lon="-0.59673">
        <ele>205.6</ele>
        <time>2014-04-10T09:28:00Z</time>
      </trkpt>
      <trkpt lat="48.63155" lon="-0.59676">
        <ele>205.6</ele>
        <time>2014-04-10T09:28:01Z</time>
      </trkpt>
      <trkpt lat="48.63151" lon="-0.59679">
        <ele>205.8</ele>
        <time>2014-04-10T09:28:02Z</time>
      </trkpt>
      <trkpt lat="48.63147" lon="-0.59681">
        <ele>205.8</ele>
        <time>2014-04-10T09:28:03Z</time>
      </trkpt>
      <trkpt lat="48.63104" lon="-0.59708">
        <ele>205.2</ele>
        <time>2014-04-10T09:28:14Z</time>
      </trkpt>
      <trkpt lat="48.63061" lon="-0.5973">
        <ele>204.4</ele>
        <time>2014-04-10T09:28:24Z</time>
      </trkpt>
      <trkpt lat="48.63037" lon="-0.59737">
        <ele>203.8</ele>
        <time>2014-04-10T09:28:29Z</time>
      </trkpt>
      <trkpt lat="48.62992" lon="-0.5975">
        <ele>203.2</ele>
        <time>2014-04-10T09:28:38Z</time>
      </trkpt>
      <trkpt lat="48.62976" lon="-0.59753">
        <ele>203</ele>
        <time>2014-04-10T09:28:41Z</time>
      </trkpt>
      <trkpt lat="48.62947" lon="-0.59755">
        <ele>202.8</ele>
        <time>2014-04-10T09:28:46Z</time>
      </trkpt>
      <trkpt lat="48.6292" lon="-0.59754">
        <ele>202.6</ele>
        <time>2014-04-10T09:28:51Z</time>
      </trkpt>
      <trkpt lat="48.62898" lon="-0.5975">
        <ele>202</ele>
        <time>2014-04-10T09:28:55Z</time>
      </trkpt>
      <trkpt lat="48.62864" lon="-0.59741">
        <ele>201.2</ele>
        <time>2014-04-10T09:29:01Z</time>
      </trkpt>
      <trkpt lat="48.62847" lon="-0.59735">
        <ele>200.8</ele>
        <time>2014-04-10T09:29:04Z</time>
      </trkpt>
      <trkpt lat="48.62815" lon="-0.59722">
        <ele>200.4</ele>
        <time>2014-04-10T09:29:10Z</time>
      </trkpt>
      <trkpt lat="48.62793" lon="-0.59714">
        <ele>199.8</ele>
        <time>2014-04-10T09:29:14Z</time>
      </trkpt>
      <trkpt lat="48.62764" lon="-0.59698">
        <ele>199</ele>
        <time>2014-04-10T09:29:19Z</time>
      </trkpt>
      <trkpt lat="48.62744" lon="-0.59684">
        <ele>198.6</ele>
        <time>2014-04-10T09:29:23Z</time>
      </trkpt>
      <trkpt lat="48.62688" lon="-0.59643">
        <ele>197.8</ele>
        <time>2014-04-10T09:29:33Z</time>
      </trkpt>
      <trkpt lat="48.62622" lon="-0.59593">
        <ele>196.8</ele>
        <time>2014-04-10T09:29:46Z</time>
      </trkpt>
      <trkpt lat="48.62613" lon="-0.59586">
        <ele>196.8</ele>
        <time>2014-04-10T09:29:48Z</time>
      </trkpt>
      <trkpt lat="48.6261" lon="-0.59583">
        <ele>196.8</ele>
        <time>2014-04-10T09:29:49Z</time>
      </trkpt>
      <trkpt lat="48.62607" lon="-0.59579">
        <ele>196.8</ele>
        <time>2014-04-10T09:29:50Z</time>
      </trkpt>
      <trkpt lat="48.62604" lon="-0.59575">
        <ele>196.6</ele>
        <time>2014-04-10T09:29:51Z</time>
      </trkpt>
      <trkpt lat="48.62601" lon="-0.59573">
        <ele>196.6</ele>
        <time>2014-04-10T09:29:52Z</time>
      </trkpt>
      <trkpt lat="48.62598" lon="-0.59571">
        <ele>196.6</ele>
        <time>2014-04-10T09:29:53Z</time>
      </trkpt>
      <trkpt lat="48.62568" lon="-0.59552">
        <ele>196.4</ele>
        <time>2014-04-10T09:30:02Z</time>
      </trkpt>
      <trkpt lat="48.62539" lon="-0.59534">
        <ele>195.8</ele>
        <time>2014-04-10T09:30:09Z</time>
      </trkpt>
      <trkpt lat="48.62486" lon="-0.59492">
        <ele>195</ele>
        <time>2014-04-10T09:30:19Z</time>
      </trkpt>
      <trkpt lat="48.62463" lon="-0.59475">
        <ele>194.8</ele>
        <time>2014-04-10T09:30:23Z</time>
      </trkpt>
      <trkpt lat="48.62394" lon="-0.59425">
        <ele>194.2</ele>
        <time>2014-04-10T09:30:36Z</time>
      </trkpt>
      <trkpt lat="48.62379" lon="-0.59414">
        <ele>194.2</ele>
        <time>2014-04-10T09:30:39Z</time>
      </trkpt>
      <trkpt lat="48.62359" lon="-0.59403">
        <ele>194.2</ele>
        <time>2014-04-10T09:30:43Z</time>
      </trkpt>
      <trkpt lat="48.62338" lon="-0.59394">
        <ele>194</ele>
        <time>2014-04-10T09:30:47Z</time>
      </trkpt>
      <trkpt lat="48.62271" lon="-0.59378">
        <ele>193.6</ele>
        <time>2014-04-10T09:31:00Z</time>
      </trkpt>
      <trkpt lat="48.62242" lon="-0.59374">
        <ele>193.6</ele>
        <time>2014-04-10T09:31:06Z</time>
      </trkpt>
      <trkpt lat="48.6221" lon="-0.59373">
        <ele>193.6</ele>
        <time>2014-04-10T09:31:12Z</time>
      </trkpt>
      <trkpt lat="48.62194" lon="-0.59374">
        <ele>193.6</ele>
        <time>2014-04-10T09:31:15Z</time>
      </trkpt>
      <trkpt lat="48.62184" lon="-0.59375">
        <ele>193.6</ele>
        <time>2014-04-10T09:31:17Z</time>
      </trkpt>
      <trkpt lat="48.62126" lon="-0.59385">
        <ele>194</ele>
        <time>2014-04-10T09:31:29Z</time>
      </trkpt>
      <trkpt lat="48.62117" lon="-0.59387">
        <ele>194</ele>
        <time>2014-04-10T09:31:31Z</time>
      </trkpt>
      <trkpt lat="48.62103" lon="-0.59391">
        <ele>194.2</ele>
        <time>2014-04-10T09:31:34Z</time>
      </trkpt>
      <trkpt lat="48.62098" lon="-0.59393">
        <ele>194.4</ele>
        <time>2014-04-10T09:31:35Z</time>
      </trkpt>
      <trkpt lat="48.62074" lon="-0.59401">
        <ele>194.8</ele>
        <time>2014-04-10T09:31:40Z</time>
      </trkpt>
      <trkpt lat="48.62064" lon="-0.59407">
        <ele>194.8</ele>
        <time>2014-04-10T09:31:42Z</time>
      </trkpt>
      <trkpt lat="48.62018" lon="-0.59433">
        <ele>195</ele>
        <time>2014-04-10T09:31:52Z</time>
      </trkpt>
      <trkpt lat="48.61996" lon="-0.59451">
        <ele>195.2</ele>
        <time>2014-04-10T09:31:57Z</time>
      </trkpt>
      <trkpt lat="48.61928" lon="-0.59522">
        <ele>195.2</ele>
        <time>2014-04-10T09:32:13Z</time>
      </trkpt>
      <trkpt lat="48.61877" lon="-0.59579">
        <ele>194.4</ele>
        <time>2014-04-10T09:32:26Z</time>
      </trkpt>
      <trkpt lat="48.61832" lon="-0.59634">
        <ele>193.6</ele>
        <time>2014-04-10T09:32:39Z</time>
      </trkpt>
      <trkpt lat="48.61826" lon="-0.59646">
        <ele>193.8</ele>
        <time>2014-04-10T09:32:48Z</time>
      </trkpt>
      <trkpt lat="48.61826" lon="-0.59657">
        <ele>194.4</ele>
        <time>2014-04-10T09:35:02Z</time>
      </trkpt>
      <trkpt lat="48.61827" lon="-0.59658">
        <ele>194.4</ele>
        <time>2014-04-10T09:35:03Z</time>
      </trkpt>
      <trkpt lat="48.61827" lon="-0.5966">
        <ele>194.4</ele>
        <time>2014-04-10T09:35:04Z</time>
      </trkpt>
      <trkpt lat="48.6183" lon="-0.59673">
        <ele>194.2</ele>
        <time>2014-04-10T09:35:10Z</time>
      </trkpt>
      <trkpt lat="48.61829" lon="-0.59676">
        <ele>194.2</ele>
        <time>2014-04-10T09:35:15Z</time>
      </trkpt>
      <trkpt lat="48.61826" lon="-0.59679">
        <ele>194.8</ele>
        <time>2014-04-10T09:37:48Z</time>
      </trkpt>
      <trkpt lat="48.61825" lon="-0.59681">
        <ele>194.8</ele>
        <time>2014-04-10T09:37:49Z</time>
      </trkpt>
      <trkpt lat="48.61824" lon="-0.59684">
        <ele>194.6</ele>
        <time>2014-04-10T09:37:50Z</time>
      </trkpt>
      <trkpt lat="48.61823" lon="-0.59687">
        <ele>194.6</ele>
        <time>2014-04-10T09:37:51Z</time>
      </trkpt>
      <trkpt lat="48.61821" lon="-0.5969">
        <ele>194.6</ele>
        <time>2014-04-10T09:37:52Z</time>
      </trkpt>
      <trkpt lat="48.61819" lon="-0.59693">
        <ele>194.6</ele>
        <time>2014-04-10T09:37:53Z</time>
      </trkpt>
      <trkpt lat="48.61796" lon="-0.59738">
        <ele>193.8</ele>
        <time>2014-04-10T09:38:09Z</time>
      </trkpt>
      <trkpt lat="48.61763" lon="-0.59804">
        <ele>191</ele>
        <time>2014-04-10T09:38:22Z</time>
      </trkpt>
      <trkpt lat="48.6176" lon="-0.59813">
        <ele>190.4</ele>
        <time>2014-04-10T09:38:23Z</time>
      </trkpt>
      <trkpt lat="48.61757" lon="-0.59822">
        <ele>190</ele>
        <time>2014-04-10T09:38:24Z</time>
      </trkpt>
      <trkpt lat="48.61754" lon="-0.59831">
        <ele>189.6</ele>
        <time>2014-04-10T09:38:25Z</time>
      </trkpt>
      <trkpt lat="48.61752" lon="-0.59841">
        <ele>189</ele>
        <time>2014-04-10T09:38:26Z</time>
      </trkpt>
      <trkpt lat="48.61733" lon="-0.59938">
        <ele>186</ele>
        <time>2014-04-10T09:38:38Z</time>
      </trkpt>
      <trkpt lat="48.61732" lon="-0.59965">
        <ele>186</ele>
        <time>2014-04-10T09:38:47Z</time>
      </trkpt>
      <trkpt lat="48.61722" lon="-0.60003">
        <ele>185.6</ele>
        <time>2014-04-10T09:38:57Z</time>
      </trkpt>
      <trkpt lat="48.61699" lon="-0.60026">
        <ele>186.8</ele>
        <time>2014-04-10T09:39:07Z</time>
      </trkpt>
      <trkpt lat="48.6166" lon="-0.60057">
        <ele>188</ele>
        <time>2014-04-10T09:39:20Z</time>
      </trkpt>
      <trkpt lat="48.61655" lon="-0.6011">
        <ele>191</ele>
        <time>2014-04-10T09:39:32Z</time>
      </trkpt>
      <trkpt lat="48.61656" lon="-0.60163">
        <ele>194</ele>
        <time>2014-04-10T09:39:45Z</time>
      </trkpt>
      <trkpt lat="48.61668" lon="-0.60226">
        <ele>197</ele>
        <time>2014-04-10T09:40:00Z</time>
      </trkpt>
      <trkpt lat="48.6168" lon="-0.60258">
        <ele>198.2</ele>
        <time>2014-04-10T09:40:10Z</time>
      </trkpt>
      <trkpt lat="48.6168" lon="-0.60261">
        <ele>198.6</ele>
        <time>2014-04-10T09:40:11Z</time>
      </trkpt>
      <trkpt lat="48.61678" lon="-0.60264">
        <ele>198.6</ele>
        <time>2014-04-10T09:40:12Z</time>
      </trkpt>
      <trkpt lat="48.61676" lon="-0.60266">
        <ele>198.8</ele>
        <time>2014-04-10T09:40:13Z</time>
      </trkpt>
      <trkpt lat="48.61674" lon="-0.60268">
        <ele>199</ele>
        <time>2014-04-10T09:40:14Z</time>
      </trkpt>
      <trkpt lat="48.61672" lon="-0.60271">
        <ele>199.2</ele>
        <time>2014-04-10T09:40:15Z</time>
      </trkpt>
      <trkpt lat="48.6167" lon="-0.60275">
        <ele>199.4</ele>
        <time>2014-04-10T09:40:16Z</time>
      </trkpt>
      <trkpt lat="48.61669" lon="-0.60278">
        <ele>199.6</ele>
        <time>2014-04-10T09:40:17Z</time>
      </trkpt>
      <trkpt lat="48.61668" lon="-0.60282">
        <ele>199.6</ele>
        <time>2014-04-10T09:40:18Z</time>
      </trkpt>
      <trkpt lat="48.61665" lon="-0.60334">
        <ele>201.4</ele>
        <time>2014-04-10T09:40:31Z</time>
      </trkpt>
      <trkpt lat="48.61661" lon="-0.60374">
        <ele>202.6</ele>
        <time>2014-04-10T09:40:43Z</time>
      </trkpt>
      <trkpt lat="48.6166" lon="-0.60396">
        <ele>203.2</ele>
        <time>2014-04-10T09:40:49Z</time>
      </trkpt>
      <trkpt lat="48.61657" lon="-0.60416">
        <ele>204.2</ele>
        <time>2014-04-10T09:40:55Z</time>
      </trkpt>
      <trkpt lat="48.61651" lon="-0.60463">
        <ele>205.2</ele>
        <time>2014-04-10T09:41:07Z</time>
      </trkpt>
      <trkpt lat="48.61645" lon="-0.60515">
        <ele>206</ele>
        <time>2014-04-10T09:41:20Z</time>
      </trkpt>
      <trkpt lat="48.61645" lon="-0.60573">
        <ele>205.8</ele>
        <time>2014-04-10T09:41:32Z</time>
      </trkpt>
      <trkpt lat="48.61649" lon="-0.60609">
        <ele>205.4</ele>
        <time>2014-04-10T09:41:38Z</time>
      </trkpt>
      <trkpt lat="48.61654" lon="-0.60646">
        <ele>203.8</ele>
        <time>2014-04-10T09:41:43Z</time>
      </trkpt>
      <trkpt lat="48.61669" lon="-0.60748">
        <ele>200.6</ele>
        <time>2014-04-10T09:41:57Z</time>
      </trkpt>
      <trkpt lat="48.61671" lon="-0.60773">
        <ele>200.6</ele>
        <time>2014-04-10T09:42:06Z</time>
      </trkpt>
      <trkpt lat="48.61671" lon="-0.60798">
        <ele>200</ele>
        <time>2014-04-10T09:42:46Z</time>
      </trkpt>
      <trkpt lat="48.61665" lon="-0.60801">
        <ele>199.2</ele>
        <time>2014-04-10T09:42:53Z</time>
      </trkpt>
      <trkpt lat="48.61648" lon="-0.60797">
        <ele>198.4</ele>
        <time>2014-04-10T09:43:03Z</time>
      </trkpt>
      <trkpt lat="48.61631" lon="-0.60796">
        <ele>198.2</ele>
        <time>2014-04-10T09:43:16Z</time>
      </trkpt>
      <trkpt lat="48.61627" lon="-0.60796">
        <ele>198.4</ele>
        <time>2014-04-10T09:43:22Z</time>
      </trkpt>
      <trkpt lat="48.61607" lon="-0.60853">
        <ele>199.6</ele>
        <time>2014-04-10T09:44:52Z</time>
      </trkpt>
      <trkpt lat="48.61608" lon="-0.60866">
        <ele>200.4</ele>
        <time>2014-04-10T09:45:00Z</time>
      </trkpt>
      <trkpt lat="48.61609" lon="-0.60879">
        <ele>200.8</ele>
        <time>2014-04-10T09:45:14Z</time>
      </trkpt>
      <trkpt lat="48.61614" lon="-0.60914">
        <ele>201.4</ele>
        <time>2014-04-10T09:45:28Z</time>
      </trkpt>
      <trkpt lat="48.61615" lon="-0.60914">
        <ele>201.6</ele>
        <time>2014-04-10T09:45:32Z</time>
      </trkpt>
      <trkpt lat="48.61627" lon="-0.60955">
        <ele>203</ele>
        <time>2014-04-10T09:46:05Z</time>
      </trkpt>
      <trkpt lat="48.61643" lon="-0.61014">
        <ele>204.2</ele>
        <time>2014-04-10T09:46:21Z</time>
      </trkpt>
      <trkpt lat="48.61645" lon="-0.61028">
        <ele>205.4</ele>
        <time>2014-04-10T09:46:29Z</time>
      </trkpt>
      <trkpt lat="48.61647" lon="-0.6104">
        <ele>206</ele>
        <time>2014-04-10T09:46:39Z</time>
      </trkpt>
      <trkpt lat="48.6165" lon="-0.61084">
        <ele>208</ele>
        <time>2014-04-10T09:46:51Z</time>
      </trkpt>
      <trkpt lat="48.61648" lon="-0.61122">
        <ele>211.6</ele>
        <time>2014-04-10T09:47:00Z</time>
      </trkpt>
      <trkpt lat="48.61645" lon="-0.61157">
        <ele>214.8</ele>
        <time>2014-04-10T09:47:07Z</time>
      </trkpt>
      <trkpt lat="48.6164" lon="-0.61204">
        <ele>217.8</ele>
        <time>2014-04-10T09:47:19Z</time>
      </trkpt>
      <trkpt lat="48.61637" lon="-0.61223">
        <ele>219</ele>
        <time>2014-04-10T09:47:29Z</time>
      </trkpt>
      <trkpt lat="48.61638" lon="-0.61232">
        <ele>219.2</ele>
        <time>2014-04-10T09:47:37Z</time>
      </trkpt>
      <trkpt lat="48.61677" lon="-0.61253">
        <ele>219.2</ele>
        <time>2014-04-10T09:47:52Z</time>
      </trkpt>
      <trkpt lat="48.61731" lon="-0.61293">
        <ele>219.6</ele>
        <time>2014-04-10T09:48:10Z</time>
      </trkpt>
      <trkpt lat="48.61755" lon="-0.61358">
        <ele>220.6</ele>
        <time>2014-04-10T09:48:24Z</time>
      </trkpt>
      <trkpt lat="48.61762" lon="-0.61432">
        <ele>220.8</ele>
        <time>2014-04-10T09:48:41Z</time>
      </trkpt>
      <trkpt lat="48.61763" lon="-0.61436">
        <ele>220.8</ele>
        <time>2014-04-10T09:48:42Z</time>
      </trkpt>
      <trkpt lat="48.61765" lon="-0.61438">
        <ele>220.6</ele>
        <time>2014-04-10T09:48:43Z</time>
      </trkpt>
      <trkpt lat="48.61766" lon="-0.6144">
        <ele>220.6</ele>
        <time>2014-04-10T09:48:44Z</time>
      </trkpt>
      <trkpt lat="48.61767" lon="-0.61442">
        <ele>220.4</ele>
        <time>2014-04-10T09:48:45Z</time>
      </trkpt>
      <trkpt lat="48.61767" lon="-0.61444">
        <ele>220.4</ele>
        <time>2014-04-10T09:48:46Z</time>
      </trkpt>
      <trkpt lat="48.61767" lon="-0.61446">
        <ele>220.2</ele>
        <time>2014-04-10T09:48:47Z</time>
      </trkpt>
      <trkpt lat="48.61768" lon="-0.61447">
        <ele>220</ele>
        <time>2014-04-10T09:48:48Z</time>
      </trkpt>
      <trkpt lat="48.61769" lon="-0.61448">
        <ele>219.8</ele>
        <time>2014-04-10T09:48:49Z</time>
      </trkpt>
      <trkpt lat="48.6177" lon="-0.61448">
        <ele>219.8</ele>
        <time>2014-04-10T09:48:50Z</time>
      </trkpt>
      <trkpt lat="48.61772" lon="-0.61448">
        <ele>219.6</ele>
        <time>2014-04-10T09:48:51Z</time>
      </trkpt>
      <trkpt lat="48.61808" lon="-0.61444">
        <ele>217.2</ele>
        <time>2014-04-10T09:49:06Z</time>
      </trkpt>
      <trkpt lat="48.61841" lon="-0.61438">
        <ele>214</ele>
        <time>2014-04-10T09:49:19Z</time>
      </trkpt>
      <trkpt lat="48.61879" lon="-0.61413">
        <ele>210.8</ele>
        <time>2014-04-10T09:49:31Z</time>
      </trkpt>
      <trkpt lat="48.61917" lon="-0.61388">
        <ele>208.8</ele>
        <time>2014-04-10T09:49:43Z</time>
      </trkpt>
      <trkpt lat="48.61929" lon="-0.61373">
        <ele>208.8</ele>
        <time>2014-04-10T09:49:48Z</time>
      </trkpt>
      <trkpt lat="48.61963" lon="-0.61338">
        <ele>211.4</ele>
        <time>2014-04-10T09:50:03Z</time>
      </trkpt>
      <trkpt lat="48.61984" lon="-0.61315">
        <ele>214.6</ele>
        <time>2014-04-10T09:50:12Z</time>
      </trkpt>
      <trkpt lat="48.61988" lon="-0.6131">
        <ele>215.6</ele>
        <time>2014-04-10T09:50:14Z</time>
      </trkpt>
      <trkpt lat="48.61999" lon="-0.61294">
        <ele>218.8</ele>
        <time>2014-04-10T09:50:19Z</time>
      </trkpt>
      <trkpt lat="48.62017" lon="-0.61275">
        <ele>222.2</ele>
        <time>2014-04-10T09:50:26Z</time>
      </trkpt>
      <trkpt lat="48.62043" lon="-0.6125">
        <ele>225.4</ele>
        <time>2014-04-10T09:50:36Z</time>
      </trkpt>
      <trkpt lat="48.62076" lon="-0.61217">
        <ele>228.4</ele>
        <time>2014-04-10T09:50:50Z</time>
      </trkpt>
      <trkpt lat="48.62107" lon="-0.61195">
        <ele>229.6</ele>
        <time>2014-04-10T09:51:03Z</time>
      </trkpt>
      <trkpt lat="48.62138" lon="-0.61175">
        <ele>232</ele>
        <time>2014-04-10T09:51:15Z</time>
      </trkpt>
      <trkpt lat="48.6216" lon="-0.61158">
        <ele>234.4</ele>
        <time>2014-04-10T09:51:25Z</time>
      </trkpt>
      <trkpt lat="48.62187" lon="-0.61142">
        <ele>237.6</ele>
        <time>2014-04-10T09:51:36Z</time>
      </trkpt>
      <trkpt lat="48.62211" lon="-0.61123">
        <ele>240.8</ele>
        <time>2014-04-10T09:51:46Z</time>
      </trkpt>
      <trkpt lat="48.62231" lon="-0.61108">
        <ele>243.8</ele>
        <time>2014-04-10T09:51:55Z</time>
      </trkpt>
      <trkpt lat="48.62255" lon="-0.61084">
        <ele>246.8</ele>
        <time>2014-04-10T09:52:07Z</time>
      </trkpt>
      <trkpt lat="48.62273" lon="-0.61065">
        <ele>248.4</ele>
        <time>2014-04-10T09:52:16Z</time>
      </trkpt>
      <trkpt lat="48.62298" lon="-0.6103">
        <ele>251</ele>
        <time>2014-04-10T09:52:29Z</time>
      </trkpt>
      <trkpt lat="48.62324" lon="-0.61">
        <ele>252.4</ele>
        <time>2014-04-10T09:52:41Z</time>
      </trkpt>
      <trkpt lat="48.62357" lon="-0.60979">
        <ele>253.2</ele>
        <time>2014-04-10T09:52:53Z</time>
      </trkpt>
      <trkpt lat="48.6238" lon="-0.60969">
        <ele>253</ele>
        <time>2014-04-10T09:53:03Z</time>
      </trkpt>
      <trkpt lat="48.62423" lon="-0.60952">
        <ele>250.6</ele>
        <time>2014-04-10T09:53:14Z</time>
      </trkpt>
      <trkpt lat="48.62479" lon="-0.60938">
        <ele>249.4</ele>
        <time>2014-04-10T09:53:27Z</time>
      </trkpt>
      <trkpt lat="48.62524" lon="-0.60947">
        <ele>252</ele>
        <time>2014-04-10T09:53:39Z</time>
      </trkpt>
      <trkpt lat="48.62533" lon="-0.60948">
        <ele>252.8</ele>
        <time>2014-04-10T09:53:41Z</time>
      </trkpt>
      <trkpt lat="48.6256" lon="-0.60947">
        <ele>256</ele>
        <time>2014-04-10T09:53:47Z</time>
      </trkpt>
      <trkpt lat="48.62585" lon="-0.6094">
        <ele>259.4</ele>
        <time>2014-04-10T09:53:54Z</time>
      </trkpt>
      <trkpt lat="48.62607" lon="-0.60933">
        <ele>262.6</ele>
        <time>2014-04-10T09:54:01Z</time>
      </trkpt>
      <trkpt lat="48.62635" lon="-0.60929">
        <ele>265.2</ele>
        <time>2014-04-10T09:54:11Z</time>
      </trkpt>
      <trkpt lat="48.62636" lon="-0.60928">
        <ele>265.4</ele>
        <time>2014-04-10T09:54:12Z</time>
      </trkpt>
      <trkpt lat="48.62638" lon="-0.60928">
        <ele>265.6</ele>
        <time>2014-04-10T09:54:13Z</time>
      </trkpt>
      <trkpt lat="48.62651" lon="-0.60934">
        <ele>266.6</ele>
        <time>2014-04-10T09:54:20Z</time>
      </trkpt>
      <trkpt lat="48.62653" lon="-0.60934">
        <ele>266.8</ele>
        <time>2014-04-10T09:54:21Z</time>
      </trkpt>
      <trkpt lat="48.62654" lon="-0.60933">
        <ele>267</ele>
        <time>2014-04-10T09:54:22Z</time>
      </trkpt>
      <trkpt lat="48.62655" lon="-0.60932">
        <ele>267</ele>
        <time>2014-04-10T09:54:23Z</time>
      </trkpt>
      <trkpt lat="48.62657" lon="-0.60931">
        <ele>267.2</ele>
        <time>2014-04-10T09:54:28Z</time>
      </trkpt>
      <trkpt lat="48.62661" lon="-0.60925">
        <ele>267.8</ele>
        <time>2014-04-10T09:55:30Z</time>
      </trkpt>
      <trkpt lat="48.62657" lon="-0.60935">
        <ele>267.8</ele>
        <time>2014-04-10T09:55:33Z</time>
      </trkpt>
      <trkpt lat="48.62656" lon="-0.6094">
        <ele>267.8</ele>
        <time>2014-04-10T09:55:34Z</time>
      </trkpt>
      <trkpt lat="48.62656" lon="-0.60944">
        <ele>267.8</ele>
        <time>2014-04-10T09:55:35Z</time>
      </trkpt>
      <trkpt lat="48.62668" lon="-0.61">
        <ele>268.2</ele>
        <time>2014-04-10T09:55:48Z</time>
      </trkpt>
      <trkpt lat="48.62697" lon="-0.6108">
        <ele>267.4</ele>
        <time>2014-04-10T09:56:05Z</time>
      </trkpt>
      <trkpt lat="48.62713" lon="-0.61104">
        <ele>266.8</ele>
        <time>2014-04-10T09:56:10Z</time>
      </trkpt>
      <trkpt lat="48.62764" lon="-0.61169">
        <ele>266.2</ele>
        <time>2014-04-10T09:56:27Z</time>
      </trkpt>
      <trkpt lat="48.62819" lon="-0.61222">
        <ele>267.4</ele>
        <time>2014-04-10T09:56:44Z</time>
      </trkpt>
      <trkpt lat="48.62873" lon="-0.61272">
        <ele>270.6</ele>
        <time>2014-04-10T09:57:02Z</time>
      </trkpt>
      <trkpt lat="48.62904" lon="-0.61298">
        <ele>271.6</ele>
        <time>2014-04-10T09:57:10Z</time>
      </trkpt>
      <trkpt lat="48.62938" lon="-0.61326">
        <ele>274.6</ele>
        <time>2014-04-10T09:57:21Z</time>
      </trkpt>
      <trkpt lat="48.63003" lon="-0.61369">
        <ele>276.2</ele>
        <time>2014-04-10T09:57:40Z</time>
      </trkpt>
      <trkpt lat="48.63039" lon="-0.61397">
        <ele>274.6</ele>
        <time>2014-04-10T09:57:48Z</time>
      </trkpt>
      <trkpt lat="48.63089" lon="-0.61426">
        <ele>271.4</ele>
        <time>2014-04-10T09:57:56Z</time>
      </trkpt>
      <trkpt lat="48.63136" lon="-0.61439">
        <ele>267.8</ele>
        <time>2014-04-10T09:58:02Z</time>
      </trkpt>
      <trkpt lat="48.63173" lon="-0.61447">
        <ele>264.6</ele>
        <time>2014-04-10T09:58:06Z</time>
      </trkpt>
      <trkpt lat="48.63209" lon="-0.61453">
        <ele>261.2</ele>
        <time>2014-04-10T09:58:10Z</time>
      </trkpt>
      <trkpt lat="48.63261" lon="-0.61467">
        <ele>258.6</ele>
        <time>2014-04-10T09:58:16Z</time>
      </trkpt>
      <trkpt lat="48.63269" lon="-0.61472">
        <ele>258.4</ele>
        <time>2014-04-10T09:58:17Z</time>
      </trkpt>
      <trkpt lat="48.63277" lon="-0.61477">
        <ele>258.2</ele>
        <time>2014-04-10T09:58:18Z</time>
      </trkpt>
      <trkpt lat="48.63284" lon="-0.61484">
        <ele>258</ele>
        <time>2014-04-10T09:58:19Z</time>
      </trkpt>
      <trkpt lat="48.6329" lon="-0.61492">
        <ele>257.8</ele>
        <time>2014-04-10T09:58:20Z</time>
      </trkpt>
      <trkpt lat="48.63296" lon="-0.61501">
        <ele>257.6</ele>
        <time>2014-04-10T09:58:21Z</time>
      </trkpt>
      <trkpt lat="48.63301" lon="-0.61511">
        <ele>257.4</ele>
        <time>2014-04-10T09:58:22Z</time>
      </trkpt>
      <trkpt lat="48.63305" lon="-0.61522">
        <ele>257</ele>
        <time>2014-04-10T09:58:23Z</time>
      </trkpt>
      <trkpt lat="48.63309" lon="-0.61533">
        <ele>256.8</ele>
        <time>2014-04-10T09:58:24Z</time>
      </trkpt>
      <trkpt lat="48.63312" lon="-0.61544">
        <ele>256.6</ele>
        <time>2014-04-10T09:58:25Z</time>
      </trkpt>
      <trkpt lat="48.63345" lon="-0.61681">
        <ele>255.8</ele>
        <time>2014-04-10T09:58:39Z</time>
      </trkpt>
      <trkpt lat="48.63373" lon="-0.61788">
        <ele>257.8</ele>
        <time>2014-04-10T09:58:52Z</time>
      </trkpt>
      <trkpt lat="48.63376" lon="-0.61795">
        <ele>258</ele>
        <time>2014-04-10T09:58:53Z</time>
      </trkpt>
      <trkpt lat="48.63391" lon="-0.61816">
        <ele>258.4</ele>
        <time>2014-04-10T09:58:57Z</time>
      </trkpt>
      <trkpt lat="48.63396" lon="-0.6182">
        <ele>258.6</ele>
        <time>2014-04-10T09:58:58Z</time>
      </trkpt>
      <trkpt lat="48.634" lon="-0.61823">
        <ele>258.8</ele>
        <time>2014-04-10T09:58:59Z</time>
      </trkpt>
      <trkpt lat="48.63405" lon="-0.61826">
        <ele>258.8</ele>
        <time>2014-04-10T09:59:00Z</time>
      </trkpt>
      <trkpt lat="48.63409" lon="-0.61828">
        <ele>259</ele>
        <time>2014-04-10T09:59:01Z</time>
      </trkpt>
      <trkpt lat="48.63419" lon="-0.61831">
        <ele>259.2</ele>
        <time>2014-04-10T09:59:03Z</time>
      </trkpt>
      <trkpt lat="48.63424" lon="-0.61831">
        <ele>259.2</ele>
        <time>2014-04-10T09:59:04Z</time>
      </trkpt>
      <trkpt lat="48.63429" lon="-0.61831">
        <ele>259.4</ele>
        <time>2014-04-10T09:59:05Z</time>
      </trkpt>
      <trkpt lat="48.63443" lon="-0.61831">
        <ele>259.6</ele>
        <time>2014-04-10T09:59:08Z</time>
      </trkpt>
      <trkpt lat="48.63448" lon="-0.6183">
        <ele>259.6</ele>
        <time>2014-04-10T09:59:09Z</time>
      </trkpt>
      <trkpt lat="48.63478" lon="-0.6183">
        <ele>260.6</ele>
        <time>2014-04-10T09:59:15Z</time>
      </trkpt>
      <trkpt lat="48.63498" lon="-0.61833">
        <ele>261.4</ele>
        <time>2014-04-10T09:59:19Z</time>
      </trkpt>
      <trkpt lat="48.63563" lon="-0.61875">
        <ele>264.6</ele>
        <time>2014-04-10T09:59:36Z</time>
      </trkpt>
      <trkpt lat="48.63576" lon="-0.61891">
        <ele>265</ele>
        <time>2014-04-10T09:59:40Z</time>
      </trkpt>
      <trkpt lat="48.63579" lon="-0.61896">
        <ele>265</ele>
        <time>2014-04-10T09:59:41Z</time>
      </trkpt>
      <trkpt lat="48.63622" lon="-0.62011">
        <ele>266.4</ele>
        <time>2014-04-10T09:59:59Z</time>
      </trkpt>
      <trkpt lat="48.63687" lon="-0.6214">
        <ele>266.4</ele>
        <time>2014-04-10T10:00:20Z</time>
      </trkpt>
      <trkpt lat="48.63762" lon="-0.62257">
        <ele>265.8</ele>
        <time>2014-04-10T10:00:40Z</time>
      </trkpt>
      <trkpt lat="48.63818" lon="-0.62336">
        <ele>266</ele>
        <time>2014-04-10T10:00:54Z</time>
      </trkpt>
      <trkpt lat="48.63876" lon="-0.62474">
        <ele>267.6</ele>
        <time>2014-04-10T10:01:15Z</time>
      </trkpt>
      <trkpt lat="48.63934" lon="-0.62568">
        <ele>268.6</ele>
        <time>2014-04-10T10:01:32Z</time>
      </trkpt>
      <trkpt lat="48.63971" lon="-0.6263">
        <ele>269.4</ele>
        <time>2014-04-10T10:01:44Z</time>
      </trkpt>
      <trkpt lat="48.63973" lon="-0.62636">
        <ele>269.6</ele>
        <time>2014-04-10T10:01:45Z</time>
      </trkpt>
      <trkpt lat="48.63978" lon="-0.62662">
        <ele>269.8</ele>
        <time>2014-04-10T10:01:49Z</time>
      </trkpt>
      <trkpt lat="48.63978" lon="-0.62668">
        <ele>270</ele>
        <time>2014-04-10T10:01:50Z</time>
      </trkpt>
      <trkpt lat="48.63985" lon="-0.62717">
        <ele>271.2</ele>
        <time>2014-04-10T10:02:02Z</time>
      </trkpt>
      <trkpt lat="48.63985" lon="-0.62725">
        <ele>271.4</ele>
        <time>2014-04-10T10:02:04Z</time>
      </trkpt>
      <trkpt lat="48.63983" lon="-0.62729">
        <ele>271.4</ele>
        <time>2014-04-10T10:02:05Z</time>
      </trkpt>
      <trkpt lat="48.63976" lon="-0.62756">
        <ele>271.6</ele>
        <time>2014-04-10T10:02:11Z</time>
      </trkpt>
      <trkpt lat="48.63977" lon="-0.62762">
        <ele>271.6</ele>
        <time>2014-04-10T10:02:12Z</time>
      </trkpt>
      <trkpt lat="48.63979" lon="-0.62768">
        <ele>271.6</ele>
        <time>2014-04-10T10:02:13Z</time>
      </trkpt>
      <trkpt lat="48.63981" lon="-0.62774">
        <ele>271.4</ele>
        <time>2014-04-10T10:02:14Z</time>
      </trkpt>
      <trkpt lat="48.63983" lon="-0.6278">
        <ele>271.4</ele>
        <time>2014-04-10T10:02:15Z</time>
      </trkpt>
      <trkpt lat="48.64033" lon="-0.62868">
        <ele>270.2</ele>
        <time>2014-04-10T10:02:33Z</time>
      </trkpt>
      <trkpt lat="48.64053" lon="-0.62899">
        <ele>271.2</ele>
        <time>2014-04-10T10:02:40Z</time>
      </trkpt>
      <trkpt lat="48.64056" lon="-0.62902">
        <ele>271.2</ele>
        <time>2014-04-10T10:02:41Z</time>
      </trkpt>
      <trkpt lat="48.6406" lon="-0.62906">
        <ele>271.4</ele>
        <time>2014-04-10T10:02:42Z</time>
      </trkpt>
      <trkpt lat="48.64101" lon="-0.62942">
        <ele>273</ele>
        <time>2014-04-10T10:02:54Z</time>
      </trkpt>
      <trkpt lat="48.64105" lon="-0.62945">
        <ele>273.2</ele>
        <time>2014-04-10T10:02:55Z</time>
      </trkpt>
      <trkpt lat="48.64109" lon="-0.62947">
        <ele>273.4</ele>
        <time>2014-04-10T10:02:56Z</time>
      </trkpt>
      <trkpt lat="48.64168" lon="-0.62988">
        <ele>276.4</ele>
        <time>2014-04-10T10:03:13Z</time>
      </trkpt>
      <trkpt lat="48.6423" lon="-0.63036">
        <ele>278.4</ele>
        <time>2014-04-10T10:03:32Z</time>
      </trkpt>
      <trkpt lat="48.64307" lon="-0.63086">
        <ele>279.2</ele>
        <time>2014-04-10T10:03:53Z</time>
      </trkpt>
      <trkpt lat="48.64356" lon="-0.63125">
        <ele>279.8</ele>
        <time>2014-04-10T10:04:08Z</time>
      </trkpt>
      <trkpt lat="48.64367" lon="-0.63134">
        <ele>279.6</ele>
        <time>2014-04-10T10:04:11Z</time>
      </trkpt>
      <trkpt lat="48.64371" lon="-0.63138">
        <ele>279.6</ele>
        <time>2014-04-10T10:04:12Z</time>
      </trkpt>
      <trkpt lat="48.64388" lon="-0.63144">
        <ele>278.6</ele>
        <time>2014-04-10T10:04:18Z</time>
      </trkpt>
      <trkpt lat="48.6439" lon="-0.63146">
        <ele>278.6</ele>
        <time>2014-04-10T10:04:19Z</time>
      </trkpt>
      <trkpt lat="48.64391" lon="-0.63149">
        <ele>278.4</ele>
        <time>2014-04-10T10:04:20Z</time>
      </trkpt>
      <trkpt lat="48.64392" lon="-0.63153">
        <ele>278.4</ele>
        <time>2014-04-10T10:04:21Z</time>
      </trkpt>
      <trkpt lat="48.64393" lon="-0.63157">
        <ele>278.4</ele>
        <time>2014-04-10T10:04:22Z</time>
      </trkpt>
      <trkpt lat="48.64394" lon="-0.6316">
        <ele>278.4</ele>
        <time>2014-04-10T10:04:23Z</time>
      </trkpt>
      <trkpt lat="48.64405" lon="-0.63217">
        <ele>280.2</ele>
        <time>2014-04-10T10:04:37Z</time>
      </trkpt>
      <trkpt lat="48.64413" lon="-0.6326">
        <ele>281.6</ele>
        <time>2014-04-10T10:04:51Z</time>
      </trkpt>
      <trkpt lat="48.64427" lon="-0.63268">
        <ele>281.6</ele>
        <time>2014-04-10T10:05:01Z</time>
      </trkpt>
      <trkpt lat="48.64429" lon="-0.63269">
        <ele>281.4</ele>
        <time>2014-04-10T10:05:07Z</time>
      </trkpt>
      <trkpt lat="48.64417" lon="-0.63283">
        <ele>280.6</ele>
        <time>2014-04-10T10:09:20Z</time>
      </trkpt>
      <trkpt lat="48.64416" lon="-0.63284">
        <ele>280.6</ele>
        <time>2014-04-10T10:09:21Z</time>
      </trkpt>
      <trkpt lat="48.64414" lon="-0.63286">
        <ele>280.6</ele>
        <time>2014-04-10T10:09:22Z</time>
      </trkpt>
      <trkpt lat="48.64413" lon="-0.63288">
        <ele>280.8</ele>
        <time>2014-04-10T10:09:23Z</time>
      </trkpt>
      <trkpt lat="48.64413" lon="-0.6329">
        <ele>280.8</ele>
        <time>2014-04-10T10:09:24Z</time>
      </trkpt>
      <trkpt lat="48.64412" lon="-0.63293">
        <ele>280.8</ele>
        <time>2014-04-10T10:09:25Z</time>
      </trkpt>
      <trkpt lat="48.64402" lon="-0.63361">
        <ele>279.8</ele>
        <time>2014-04-10T10:09:37Z</time>
      </trkpt>
      <trkpt lat="48.64387" lon="-0.6345">
        <ele>276.6</ele>
        <time>2014-04-10T10:09:47Z</time>
      </trkpt>
      <trkpt lat="48.64384" lon="-0.63467">
        <ele>276.2</ele>
        <time>2014-04-10T10:09:49Z</time>
      </trkpt>
      <trkpt lat="48.64374" lon="-0.63532">
        <ele>275.6</ele>
        <time>2014-04-10T10:09:57Z</time>
      </trkpt>
      <trkpt lat="48.64373" lon="-0.63539">
        <ele>275.6</ele>
        <time>2014-04-10T10:09:58Z</time>
      </trkpt>
      <trkpt lat="48.64372" lon="-0.63546">
        <ele>275.6</ele>
        <time>2014-04-10T10:09:59Z</time>
      </trkpt>
      <trkpt lat="48.6437" lon="-0.6356">
        <ele>275.6</ele>
        <time>2014-04-10T10:10:01Z</time>
      </trkpt>
      <trkpt lat="48.64358" lon="-0.63667">
        <ele>277.8</ele>
        <time>2014-04-10T10:10:18Z</time>
      </trkpt>
      <trkpt lat="48.64384" lon="-0.6367">
        <ele>279</ele>
        <time>2014-04-10T10:10:26Z</time>
      </trkpt>
      <trkpt lat="48.64461" lon="-0.63643">
        <ele>280.4</ele>
        <time>2014-04-10T10:10:45Z</time>
      </trkpt>
      <trkpt lat="48.64506" lon="-0.63638">
        <ele>281.6</ele>
        <time>2014-04-10T10:10:55Z</time>
      </trkpt>
      <trkpt lat="48.64511" lon="-0.63639">
        <ele>281.8</ele>
        <time>2014-04-10T10:10:56Z</time>
      </trkpt>
      <trkpt lat="48.64589" lon="-0.63671">
        <ele>283</ele>
        <time>2014-04-10T10:11:14Z</time>
      </trkpt>
      <trkpt lat="48.64603" lon="-0.63678">
        <ele>283.2</ele>
        <time>2014-04-10T10:11:17Z</time>
      </trkpt>
      <trkpt lat="48.64607" lon="-0.6368">
        <ele>283.2</ele>
        <time>2014-04-10T10:11:18Z</time>
      </trkpt>
      <trkpt lat="48.64678" lon="-0.63714">
        <ele>284.2</ele>
        <time>2014-04-10T10:11:34Z</time>
      </trkpt>
      <trkpt lat="48.64691" lon="-0.6372">
        <ele>284.2</ele>
        <time>2014-04-10T10:11:37Z</time>
      </trkpt>
      <trkpt lat="48.64695" lon="-0.63723">
        <ele>284.2</ele>
        <time>2014-04-10T10:11:38Z</time>
      </trkpt>
      <trkpt lat="48.64754" lon="-0.63756">
        <ele>283.8</ele>
        <time>2014-04-10T10:11:52Z</time>
      </trkpt>
      <trkpt lat="48.64763" lon="-0.63761">
        <ele>283.6</ele>
        <time>2014-04-10T10:11:54Z</time>
      </trkpt>
      <trkpt lat="48.64767" lon="-0.63764">
        <ele>283.6</ele>
        <time>2014-04-10T10:11:55Z</time>
      </trkpt>
      <trkpt lat="48.64802" lon="-0.63784">
        <ele>283</ele>
        <time>2014-04-10T10:12:03Z</time>
      </trkpt>
      <trkpt lat="48.64807" lon="-0.63786">
        <ele>282.8</ele>
        <time>2014-04-10T10:12:04Z</time>
      </trkpt>
      <trkpt lat="48.64812" lon="-0.63788">
        <ele>282.8</ele>
        <time>2014-04-10T10:12:05Z</time>
      </trkpt>
      <trkpt lat="48.64817" lon="-0.63791">
        <ele>282.8</ele>
        <time>2014-04-10T10:12:06Z</time>
      </trkpt>
      <trkpt lat="48.64822" lon="-0.63793">
        <ele>282.8</ele>
        <time>2014-04-10T10:12:07Z</time>
      </trkpt>
      <trkpt lat="48.64827" lon="-0.63796">
        <ele>282.8</ele>
        <time>2014-04-10T10:12:08Z</time>
      </trkpt>
      <trkpt lat="48.64832" lon="-0.63798">
        <ele>283</ele>
        <time>2014-04-10T10:12:09Z</time>
      </trkpt>
      <trkpt lat="48.64875" lon="-0.63815">
        <ele>283.2</ele>
        <time>2014-04-10T10:12:18Z</time>
      </trkpt>
      <trkpt lat="48.64894" lon="-0.63823">
        <ele>283.4</ele>
        <time>2014-04-10T10:12:22Z</time>
      </trkpt>
      <trkpt lat="48.64972" lon="-0.63851">
        <ele>285.4</ele>
        <time>2014-04-10T10:12:38Z</time>
      </trkpt>
      <trkpt lat="48.65042" lon="-0.63877">
        <ele>286.8</ele>
        <time>2014-04-10T10:12:53Z</time>
      </trkpt>
      <trkpt lat="48.65056" lon="-0.63882">
        <ele>287</ele>
        <time>2014-04-10T10:12:56Z</time>
      </trkpt>
      <trkpt lat="48.65155" lon="-0.6392">
        <ele>287.6</ele>
        <time>2014-04-10T10:13:17Z</time>
      </trkpt>
      <trkpt lat="48.65158" lon="-0.63923">
        <ele>287.6</ele>
        <time>2014-04-10T10:13:18Z</time>
      </trkpt>
      <trkpt lat="48.65162" lon="-0.63927">
        <ele>287.6</ele>
        <time>2014-04-10T10:13:19Z</time>
      </trkpt>
      <trkpt lat="48.652" lon="-0.6395">
        <ele>286.6</ele>
        <time>2014-04-10T10:13:30Z</time>
      </trkpt>
      <trkpt lat="48.65204" lon="-0.63952">
        <ele>286.6</ele>
        <time>2014-04-10T10:13:31Z</time>
      </trkpt>
      <trkpt lat="48.65208" lon="-0.63953">
        <ele>286.4</ele>
        <time>2014-04-10T10:13:32Z</time>
      </trkpt>
      <trkpt lat="48.65212" lon="-0.63954">
        <ele>286.2</ele>
        <time>2014-04-10T10:13:33Z</time>
      </trkpt>
      <trkpt lat="48.65216" lon="-0.63955">
        <ele>286.2</ele>
        <time>2014-04-10T10:13:34Z</time>
      </trkpt>
      <trkpt lat="48.6522" lon="-0.63956">
        <ele>286</ele>
        <time>2014-04-10T10:13:35Z</time>
      </trkpt>
      <trkpt lat="48.65257" lon="-0.63962">
        <ele>285.8</ele>
        <time>2014-04-10T10:13:45Z</time>
      </trkpt>
      <trkpt lat="48.65282" lon="-0.63965">
        <ele>286</ele>
        <time>2014-04-10T10:13:52Z</time>
      </trkpt>
      <trkpt lat="48.65284" lon="-0.63964">
        <ele>286</ele>
        <time>2014-04-10T10:13:53Z</time>
      </trkpt>
      <trkpt lat="48.65286" lon="-0.6396">
        <ele>286</ele>
        <time>2014-04-10T10:13:54Z</time>
      </trkpt>
      <trkpt lat="48.65293" lon="-0.63924">
        <ele>286</ele>
        <time>2014-04-10T10:14:00Z</time>
      </trkpt>
      <trkpt lat="48.65304" lon="-0.63849">
        <ele>283.8</ele>
        <time>2014-04-10T10:14:08Z</time>
      </trkpt>
      <trkpt lat="48.65306" lon="-0.6384">
        <ele>283.4</ele>
        <time>2014-04-10T10:14:09Z</time>
      </trkpt>
      <trkpt lat="48.65308" lon="-0.63832">
        <ele>283</ele>
        <time>2014-04-10T10:14:10Z</time>
      </trkpt>
      <trkpt lat="48.65311" lon="-0.63825">
        <ele>281.8</ele>
        <time>2014-04-10T10:14:11Z</time>
      </trkpt>
      <trkpt lat="48.65316" lon="-0.63821">
        <ele>281.2</ele>
        <time>2014-04-10T10:14:12Z</time>
      </trkpt>
      <trkpt lat="48.65321" lon="-0.63819">
        <ele>280.8</ele>
        <time>2014-04-10T10:14:13Z</time>
      </trkpt>
      <trkpt lat="48.65325" lon="-0.63818">
        <ele>280.4</ele>
        <time>2014-04-10T10:14:14Z</time>
      </trkpt>
      <trkpt lat="48.65329" lon="-0.63819">
        <ele>280</ele>
        <time>2014-04-10T10:14:15Z</time>
      </trkpt>
      <trkpt lat="48.65333" lon="-0.6382">
        <ele>279.8</ele>
        <time>2014-04-10T10:14:16Z</time>
      </trkpt>
      <trkpt lat="48.65337" lon="-0.63822">
        <ele>279.6</ele>
        <time>2014-04-10T10:14:17Z</time>
      </trkpt>
      <trkpt lat="48.65373" lon="-0.6384">
        <ele>281.6</ele>
        <time>2014-04-10T10:14:30Z</time>
      </trkpt>
      <trkpt lat="48.65411" lon="-0.63858">
        <ele>284</ele>
        <time>2014-04-10T10:14:44Z</time>
      </trkpt>
      <trkpt lat="48.6544" lon="-0.63872">
        <ele>285</ele>
        <time>2014-04-10T10:14:53Z</time>
      </trkpt>
      <trkpt lat="48.65483" lon="-0.63892">
        <ele>287.4</ele>
        <time>2014-04-10T10:15:05Z</time>
      </trkpt>
      <trkpt lat="48.65524" lon="-0.63914">
        <ele>290.2</ele>
        <time>2014-04-10T10:15:17Z</time>
      </trkpt>
      <trkpt lat="48.65541" lon="-0.63921">
        <ele>291.4</ele>
        <time>2014-04-10T10:15:22Z</time>
      </trkpt>
      <trkpt lat="48.65551" lon="-0.63929">
        <ele>292.4</ele>
        <time>2014-04-10T10:15:26Z</time>
      </trkpt>
      <trkpt lat="48.65577" lon="-0.63943">
        <ele>294.2</ele>
        <time>2014-04-10T10:15:35Z</time>
      </trkpt>
      <trkpt lat="48.65585" lon="-0.63944">
        <ele>294.2</ele>
        <time>2014-04-10T10:15:38Z</time>
      </trkpt>
      <trkpt lat="48.65623" lon="-0.63942">
        <ele>293</ele>
        <time>2014-04-10T10:15:49Z</time>
      </trkpt>
      <trkpt lat="48.65636" lon="-0.63938">
        <ele>292.6</ele>
        <time>2014-04-10T10:15:52Z</time>
      </trkpt>
      <trkpt lat="48.65678" lon="-0.63941">
        <ele>289</ele>
        <time>2014-04-10T10:15:59Z</time>
      </trkpt>
      <trkpt lat="48.65685" lon="-0.63942">
        <ele>288.4</ele>
        <time>2014-04-10T10:16:00Z</time>
      </trkpt>
      <trkpt lat="48.6572" lon="-0.63954">
        <ele>285.4</ele>
        <time>2014-04-10T10:16:05Z</time>
      </trkpt>
      <trkpt lat="48.65739" lon="-0.63956">
        <ele>284</ele>
        <time>2014-04-10T10:16:08Z</time>
      </trkpt>
      <trkpt lat="48.65793" lon="-0.63944">
        <ele>281</ele>
        <time>2014-04-10T10:16:18Z</time>
      </trkpt>
      <trkpt lat="48.65822" lon="-0.63938">
        <ele>281</ele>
        <time>2014-04-10T10:16:25Z</time>
      </trkpt>
      <trkpt lat="48.65852" lon="-0.63934">
        <ele>280.6</ele>
        <time>2014-04-10T10:16:32Z</time>
      </trkpt>
      <trkpt lat="48.65868" lon="-0.63934">
        <ele>280.2</ele>
        <time>2014-04-10T10:16:35Z</time>
      </trkpt>
      <trkpt lat="48.65879" lon="-0.63934">
        <ele>279.6</ele>
        <time>2014-04-10T10:16:37Z</time>
      </trkpt>
      <trkpt lat="48.65892" lon="-0.63939">
        <ele>279</ele>
        <time>2014-04-10T10:16:40Z</time>
      </trkpt>
      <trkpt lat="48.65924" lon="-0.63937">
        <ele>278.4</ele>
        <time>2014-04-10T10:16:50Z</time>
      </trkpt>
      <trkpt lat="48.6595" lon="-0.63927">
        <ele>278.4</ele>
        <time>2014-04-10T10:16:58Z</time>
      </trkpt>
      <trkpt lat="48.65989" lon="-0.63926">
        <ele>279.8</ele>
        <time>2014-04-10T10:17:07Z</time>
      </trkpt>
      <trkpt lat="48.66008" lon="-0.63924">
        <ele>280.4</ele>
        <time>2014-04-10T10:17:11Z</time>
      </trkpt>
      <trkpt lat="48.66025" lon="-0.6392">
        <ele>280.6</ele>
        <time>2014-04-10T10:17:14Z</time>
      </trkpt>
      <trkpt lat="48.66052" lon="-0.63915">
        <ele>281</ele>
        <time>2014-04-10T10:17:20Z</time>
      </trkpt>
      <trkpt lat="48.66084" lon="-0.63914">
        <ele>281.6</ele>
        <time>2014-04-10T10:17:27Z</time>
      </trkpt>
      <trkpt lat="48.66113" lon="-0.63915">
        <ele>282</ele>
        <time>2014-04-10T10:17:33Z</time>
      </trkpt>
      <trkpt lat="48.66155" lon="-0.63907">
        <ele>283</ele>
        <time>2014-04-10T10:17:44Z</time>
      </trkpt>
      <trkpt lat="48.66159" lon="-0.63904">
        <ele>283</ele>
        <time>2014-04-10T10:17:45Z</time>
      </trkpt>
      <trkpt lat="48.66188" lon="-0.63893">
        <ele>283.4</ele>
        <time>2014-04-10T10:17:51Z</time>
      </trkpt>
      <trkpt lat="48.66211" lon="-0.6388">
        <ele>283.6</ele>
        <time>2014-04-10T10:17:56Z</time>
      </trkpt>
      <trkpt lat="48.66226" lon="-0.63863">
        <ele>284</ele>
        <time>2014-04-10T10:18:00Z</time>
      </trkpt>
      <trkpt lat="48.6624" lon="-0.63844">
        <ele>284.6</ele>
        <time>2014-04-10T10:18:03Z</time>
      </trkpt>
      <trkpt lat="48.66274" lon="-0.63809">
        <ele>288.2</ele>
        <time>2014-04-10T10:18:12Z</time>
      </trkpt>
      <trkpt lat="48.66301" lon="-0.63782">
        <ele>291.4</ele>
        <time>2014-04-10T10:18:20Z</time>
      </trkpt>
      <trkpt lat="48.66329" lon="-0.63745">
        <ele>293.6</ele>
        <time>2014-04-10T10:18:30Z</time>
      </trkpt>
      <trkpt lat="48.66337" lon="-0.63735">
        <ele>293.8</ele>
        <time>2014-04-10T10:18:33Z</time>
      </trkpt>
      <trkpt lat="48.66348" lon="-0.6372">
        <ele>293.6</ele>
        <time>2014-04-10T10:18:38Z</time>
      </trkpt>
      <trkpt lat="48.66363" lon="-0.63696">
        <ele>293.4</ele>
        <time>2014-04-10T10:18:45Z</time>
      </trkpt>
      <trkpt lat="48.6637" lon="-0.63681">
        <ele>293</ele>
        <time>2014-04-10T10:18:49Z</time>
      </trkpt>
      <trkpt lat="48.66396" lon="-0.63636">
        <ele>290.4</ele>
        <time>2014-04-10T10:18:59Z</time>
      </trkpt>
      <trkpt lat="48.66426" lon="-0.63596">
        <ele>287.4</ele>
        <time>2014-04-10T10:19:08Z</time>
      </trkpt>
      <trkpt lat="48.66443" lon="-0.6357">
        <ele>284.6</ele>
        <time>2014-04-10T10:19:17Z</time>
      </trkpt>
      <trkpt lat="48.66463" lon="-0.63533">
        <ele>281.2</ele>
        <time>2014-04-10T10:19:26Z</time>
      </trkpt>
      <trkpt lat="48.66472" lon="-0.63517">
        <ele>279.6</ele>
        <time>2014-04-10T10:19:29Z</time>
      </trkpt>
      <trkpt lat="48.66482" lon="-0.635">
        <ele>277.8</ele>
        <time>2014-04-10T10:19:32Z</time>
      </trkpt>
      <trkpt lat="48.66494" lon="-0.63475">
        <ele>274.4</ele>
        <time>2014-04-10T10:19:36Z</time>
      </trkpt>
      <trkpt lat="48.6651" lon="-0.63432">
        <ele>270</ele>
        <time>2014-04-10T10:19:43Z</time>
      </trkpt>
      <trkpt lat="48.6652" lon="-0.63403">
        <ele>267.6</ele>
        <time>2014-04-10T10:19:48Z</time>
      </trkpt>
      <trkpt lat="48.66524" lon="-0.63389">
        <ele>266.4</ele>
        <time>2014-04-10T10:19:50Z</time>
      </trkpt>
      <trkpt lat="48.66536" lon="-0.63356">
        <ele>264.6</ele>
        <time>2014-04-10T10:19:55Z</time>
      </trkpt>
      <trkpt lat="48.66575" lon="-0.63275">
        <ele>262.2</ele>
        <time>2014-04-10T10:20:08Z</time>
      </trkpt>
      <trkpt lat="48.66596" lon="-0.63249">
        <ele>261.8</ele>
        <time>2014-04-10T10:20:14Z</time>
      </trkpt>
      <trkpt lat="48.66632" lon="-0.63227">
        <ele>261.4</ele>
        <time>2014-04-10T10:20:21Z</time>
      </trkpt>
      <trkpt lat="48.66641" lon="-0.63224">
        <ele>261.2</ele>
        <time>2014-04-10T10:20:23Z</time>
      </trkpt>
      <trkpt lat="48.66645" lon="-0.63222">
        <ele>261.2</ele>
        <time>2014-04-10T10:20:24Z</time>
      </trkpt>
      <trkpt lat="48.66649" lon="-0.6322">
        <ele>261.2</ele>
        <time>2014-04-10T10:20:25Z</time>
      </trkpt>
      <trkpt lat="48.66715" lon="-0.63208">
        <ele>261.2</ele>
        <time>2014-04-10T10:20:39Z</time>
      </trkpt>
      <trkpt lat="48.66736" lon="-0.63199">
        <ele>262.2</ele>
        <time>2014-04-10T10:20:49Z</time>
      </trkpt>
      <trkpt lat="48.66736" lon="-0.63199">
        <ele>262.4</ele>
        <time>2014-04-10T10:20:50Z</time>
      </trkpt>
      <trkpt lat="48.66735" lon="-0.63204">
        <ele>263.2</ele>
        <time>2014-04-10T10:21:28Z</time>
      </trkpt>
      <trkpt lat="48.66734" lon="-0.63202">
        <ele>263.2</ele>
        <time>2014-04-10T10:21:29Z</time>
      </trkpt>
      <trkpt lat="48.66733" lon="-0.63198">
        <ele>263.2</ele>
        <time>2014-04-10T10:21:30Z</time>
      </trkpt>
      <trkpt lat="48.66733" lon="-0.63195">
        <ele>263.2</ele>
        <time>2014-04-10T10:21:31Z</time>
      </trkpt>
      <trkpt lat="48.66732" lon="-0.63191">
        <ele>263.2</ele>
        <time>2014-04-10T10:21:32Z</time>
      </trkpt>
      <trkpt lat="48.6673" lon="-0.63187">
        <ele>263.2</ele>
        <time>2014-04-10T10:21:33Z</time>
      </trkpt>
      <trkpt lat="48.66728" lon="-0.63182">
        <ele>263.2</ele>
        <time>2014-04-10T10:21:34Z</time>
      </trkpt>
      <trkpt lat="48.66701" lon="-0.63133">
        <ele>266.4</ele>
        <time>2014-04-10T10:21:46Z</time>
      </trkpt>
      <trkpt lat="48.66671" lon="-0.63096">
        <ele>269.4</ele>
        <time>2014-04-10T10:21:54Z</time>
      </trkpt>
      <trkpt lat="48.66646" lon="-0.63074">
        <ele>273</ele>
        <time>2014-04-10T10:22:00Z</time>
      </trkpt>
      <trkpt lat="48.6662" lon="-0.63057">
        <ele>276.4</ele>
        <time>2014-04-10T10:22:07Z</time>
      </trkpt>
      <trkpt lat="48.66589" lon="-0.63047">
        <ele>279.8</ele>
        <time>2014-04-10T10:22:14Z</time>
      </trkpt>
      <trkpt lat="48.66556" lon="-0.63041">
        <ele>283</ele>
        <time>2014-04-10T10:22:22Z</time>
      </trkpt>
      <trkpt lat="48.66552" lon="-0.6304">
        <ele>283.4</ele>
        <time>2014-04-10T10:22:23Z</time>
      </trkpt>
      <trkpt lat="48.66548" lon="-0.6304">
        <ele>283.8</ele>
        <time>2014-04-10T10:22:24Z</time>
      </trkpt>
      <trkpt lat="48.66518" lon="-0.6304">
        <ele>287.2</ele>
        <time>2014-04-10T10:22:31Z</time>
      </trkpt>
      <trkpt lat="48.66479" lon="-0.63043">
        <ele>290.4</ele>
        <time>2014-04-10T10:22:40Z</time>
      </trkpt>
      <trkpt lat="48.6643" lon="-0.63058">
        <ele>293.6</ele>
        <time>2014-04-10T10:22:52Z</time>
      </trkpt>
      <trkpt lat="48.66414" lon="-0.63054">
        <ele>294.8</ele>
        <time>2014-04-10T10:22:58Z</time>
      </trkpt>
      <trkpt lat="48.66412" lon="-0.6303">
        <ele>294.8</ele>
        <time>2014-04-10T10:23:02Z</time>
      </trkpt>
      <trkpt lat="48.66411" lon="-0.63016">
        <ele>294.8</ele>
        <time>2014-04-10T10:23:04Z</time>
      </trkpt>
      <trkpt lat="48.66403" lon="-0.62933">
        <ele>293.4</ele>
        <time>2014-04-10T10:23:16Z</time>
      </trkpt>
      <trkpt lat="48.66402" lon="-0.62873">
        <ele>292.4</ele>
        <time>2014-04-10T10:23:25Z</time>
      </trkpt>
      <trkpt lat="48.66395" lon="-0.62832">
        <ele>291</ele>
        <time>2014-04-10T10:23:31Z</time>
      </trkpt>
      <trkpt lat="48.66385" lon="-0.62784">
        <ele>288.8</ele>
        <time>2014-04-10T10:23:37Z</time>
      </trkpt>
      <trkpt lat="48.66373" lon="-0.62762">
        <ele>287.4</ele>
        <time>2014-04-10T10:23:41Z</time>
      </trkpt>
      <trkpt lat="48.66354" lon="-0.62743">
        <ele>285.6</ele>
        <time>2014-04-10T10:23:45Z</time>
      </trkpt>
      <trkpt lat="48.66311" lon="-0.62684">
        <ele>282</ele>
        <time>2014-04-10T10:23:55Z</time>
      </trkpt>
      <trkpt lat="48.66303" lon="-0.6267">
        <ele>281.2</ele>
        <time>2014-04-10T10:23:57Z</time>
      </trkpt>
      <trkpt lat="48.66271" lon="-0.62616">
        <ele>277.4</ele>
        <time>2014-04-10T10:24:04Z</time>
      </trkpt>
      <trkpt lat="48.66266" lon="-0.62603">
        <ele>276.6</ele>
        <time>2014-04-10T10:24:06Z</time>
      </trkpt>
      <trkpt lat="48.66254" lon="-0.62569">
        <ele>275.6</ele>
        <time>2014-04-10T10:24:11Z</time>
      </trkpt>
      <trkpt lat="48.66234" lon="-0.62485">
        <ele>275.2</ele>
        <time>2014-04-10T10:24:22Z</time>
      </trkpt>
      <trkpt lat="48.66227" lon="-0.62436">
        <ele>275.4</ele>
        <time>2014-04-10T10:24:30Z</time>
      </trkpt>
      <trkpt lat="48.66205" lon="-0.62344">
        <ele>275.2</ele>
        <time>2014-04-10T10:24:42Z</time>
      </trkpt>
      <trkpt lat="48.66178" lon="-0.62197">
        <ele>272.8</ele>
        <time>2014-04-10T10:25:03Z</time>
      </trkpt>
      <trkpt lat="48.66165" lon="-0.62111">
        <ele>271.6</ele>
        <time>2014-04-10T10:25:17Z</time>
      </trkpt>
      <trkpt lat="48.66128" lon="-0.62019">
        <ele>270</ele>
        <time>2014-04-10T10:25:31Z</time>
      </trkpt>
      <trkpt lat="48.66104" lon="-0.61913">
        <ele>268.6</ele>
        <time>2014-04-10T10:25:45Z</time>
      </trkpt>
      <trkpt lat="48.66073" lon="-0.61779">
        <ele>266</ele>
        <time>2014-04-10T10:26:01Z</time>
      </trkpt>
      <trkpt lat="48.6607" lon="-0.61741">
        <ele>264.2</ele>
        <time>2014-04-10T10:26:10Z</time>
      </trkpt>
      <trkpt lat="48.66068" lon="-0.61728">
        <ele>264</ele>
        <time>2014-04-10T10:26:17Z</time>
      </trkpt>
      <trkpt lat="48.66072" lon="-0.61733">
        <ele>264.2</ele>
        <time>2014-04-10T10:28:01Z</time>
      </trkpt>
      <trkpt lat="48.66072" lon="-0.61735">
        <ele>264</ele>
        <time>2014-04-10T10:28:02Z</time>
      </trkpt>
      <trkpt lat="48.66074" lon="-0.61738">
        <ele>264</ele>
        <time>2014-04-10T10:28:03Z</time>
      </trkpt>
      <trkpt lat="48.66075" lon="-0.61741">
        <ele>264</ele>
        <time>2014-04-10T10:28:04Z</time>
      </trkpt>
      <trkpt lat="48.66077" lon="-0.61744">
        <ele>264</ele>
        <time>2014-04-10T10:28:05Z</time>
      </trkpt>
      <trkpt lat="48.6608" lon="-0.61747">
        <ele>264</ele>
        <time>2014-04-10T10:28:06Z</time>
      </trkpt>
      <trkpt lat="48.66082" lon="-0.61749">
        <ele>264</ele>
        <time>2014-04-10T10:28:07Z</time>
      </trkpt>
      <trkpt lat="48.66085" lon="-0.61748">
        <ele>264</ele>
        <time>2014-04-10T10:28:08Z</time>
      </trkpt>
      <trkpt lat="48.66088" lon="-0.61747">
        <ele>264.2</ele>
        <time>2014-04-10T10:28:09Z</time>
      </trkpt>
      <trkpt lat="48.66092" lon="-0.61746">
        <ele>264.2</ele>
        <time>2014-04-10T10:28:10Z</time>
      </trkpt>
      <trkpt lat="48.66109" lon="-0.61741">
        <ele>264.6</ele>
        <time>2014-04-10T10:28:14Z</time>
      </trkpt>
      <trkpt lat="48.6616" lon="-0.61731">
        <ele>267.8</ele>
        <time>2014-04-10T10:28:23Z</time>
      </trkpt>
      <trkpt lat="48.66186" lon="-0.61726">
        <ele>269.4</ele>
        <time>2014-04-10T10:28:28Z</time>
      </trkpt>
      <trkpt lat="48.66265" lon="-0.61713">
        <ele>270.2</ele>
        <time>2014-04-10T10:28:43Z</time>
      </trkpt>
      <trkpt lat="48.66353" lon="-0.61696">
        <ele>266.8</ele>
        <time>2014-04-10T10:28:56Z</time>
      </trkpt>
      <trkpt lat="48.66411" lon="-0.61673">
        <ele>263.6</ele>
        <time>2014-04-10T10:29:04Z</time>
      </trkpt>
      <trkpt lat="48.66426" lon="-0.61671">
        <ele>262.8</ele>
        <time>2014-04-10T10:29:06Z</time>
      </trkpt>
      <trkpt lat="48.66434" lon="-0.61672">
        <ele>262.4</ele>
        <time>2014-04-10T10:29:07Z</time>
      </trkpt>
      <trkpt lat="48.66498" lon="-0.61679">
        <ele>260</ele>
        <time>2014-04-10T10:29:17Z</time>
      </trkpt>
      <trkpt lat="48.66532" lon="-0.61673">
        <ele>262.4</ele>
        <time>2014-04-10T10:29:24Z</time>
      </trkpt>
      <trkpt lat="48.66536" lon="-0.61673">
        <ele>262.8</ele>
        <time>2014-04-10T10:29:25Z</time>
      </trkpt>
      <trkpt lat="48.66541" lon="-0.61673">
        <ele>263.2</ele>
        <time>2014-04-10T10:29:26Z</time>
      </trkpt>
      <trkpt lat="48.66585" lon="-0.61667">
        <ele>266.2</ele>
        <time>2014-04-10T10:29:37Z</time>
      </trkpt>
      <trkpt lat="48.66667" lon="-0.6167">
        <ele>267.4</ele>
        <time>2014-04-10T10:29:56Z</time>
      </trkpt>
      <trkpt lat="48.66759" lon="-0.61665">
        <ele>264.4</ele>
        <time>2014-04-10T10:30:11Z</time>
      </trkpt>
      <trkpt lat="48.66815" lon="-0.61646">
        <ele>261.2</ele>
        <time>2014-04-10T10:30:18Z</time>
      </trkpt>
      <trkpt lat="48.66862" lon="-0.61637">
        <ele>258</ele>
        <time>2014-04-10T10:30:23Z</time>
      </trkpt>
      <trkpt lat="48.66914" lon="-0.61635">
        <ele>254.6</ele>
        <time>2014-04-10T10:30:28Z</time>
      </trkpt>
      <trkpt lat="48.66968" lon="-0.61642">
        <ele>250.8</ele>
        <time>2014-04-10T10:30:33Z</time>
      </trkpt>
      <trkpt lat="48.67009" lon="-0.61656">
        <ele>247.4</ele>
        <time>2014-04-10T10:30:37Z</time>
      </trkpt>
      <trkpt lat="48.67057" lon="-0.61683">
        <ele>244.8</ele>
        <time>2014-04-10T10:30:42Z</time>
      </trkpt>
      <trkpt lat="48.67067" lon="-0.61684">
        <ele>244.2</ele>
        <time>2014-04-10T10:30:43Z</time>
      </trkpt>
      <trkpt lat="48.67078" lon="-0.61681">
        <ele>243.6</ele>
        <time>2014-04-10T10:30:44Z</time>
      </trkpt>
      <trkpt lat="48.67088" lon="-0.61676">
        <ele>243</ele>
        <time>2014-04-10T10:30:45Z</time>
      </trkpt>
      <trkpt lat="48.67097" lon="-0.61667">
        <ele>242.2</ele>
        <time>2014-04-10T10:30:46Z</time>
      </trkpt>
      <trkpt lat="48.67106" lon="-0.61657">
        <ele>241.4</ele>
        <time>2014-04-10T10:30:47Z</time>
      </trkpt>
      <trkpt lat="48.67115" lon="-0.61646">
        <ele>240.6</ele>
        <time>2014-04-10T10:30:48Z</time>
      </trkpt>
      <trkpt lat="48.67133" lon="-0.61627">
        <ele>238.8</ele>
        <time>2014-04-10T10:30:50Z</time>
      </trkpt>
      <trkpt lat="48.67142" lon="-0.61621">
        <ele>238</ele>
        <time>2014-04-10T10:30:51Z</time>
      </trkpt>
      <trkpt lat="48.67151" lon="-0.61615">
        <ele>237.4</ele>
        <time>2014-04-10T10:30:52Z</time>
      </trkpt>
      <trkpt lat="48.67161" lon="-0.6161">
        <ele>236.8</ele>
        <time>2014-04-10T10:30:53Z</time>
      </trkpt>
      <trkpt lat="48.6717" lon="-0.61607">
        <ele>236.2</ele>
        <time>2014-04-10T10:30:54Z</time>
      </trkpt>
      <trkpt lat="48.67249" lon="-0.61566">
        <ele>233.4</ele>
        <time>2014-04-10T10:31:04Z</time>
      </trkpt>
      <trkpt lat="48.67254" lon="-0.61559">
        <ele>233.2</ele>
        <time>2014-04-10T10:31:05Z</time>
      </trkpt>
      <trkpt lat="48.67259" lon="-0.61552">
        <ele>233.2</ele>
        <time>2014-04-10T10:31:06Z</time>
      </trkpt>
      <trkpt lat="48.67316" lon="-0.61452">
        <ele>233.8</ele>
        <time>2014-04-10T10:31:21Z</time>
      </trkpt>
      <trkpt lat="48.67338" lon="-0.6141">
        <ele>235.4</ele>
        <time>2014-04-10T10:31:32Z</time>
      </trkpt>
      <trkpt lat="48.67339" lon="-0.61408">
        <ele>235.4</ele>
        <time>2014-04-10T10:31:33Z</time>
      </trkpt>
      <trkpt lat="48.67341" lon="-0.61407">
        <ele>235.8</ele>
        <time>2014-04-10T10:31:35Z</time>
      </trkpt>
      <trkpt lat="48.67343" lon="-0.61406">
        <ele>236</ele>
        <time>2014-04-10T10:31:36Z</time>
      </trkpt>
      <trkpt lat="48.67344" lon="-0.61406">
        <ele>236.2</ele>
        <time>2014-04-10T10:31:37Z</time>
      </trkpt>
      <trkpt lat="48.67345" lon="-0.61407">
        <ele>236.4</ele>
        <time>2014-04-10T10:31:38Z</time>
      </trkpt>
      <trkpt lat="48.67346" lon="-0.6141">
        <ele>236.6</ele>
        <time>2014-04-10T10:31:39Z</time>
      </trkpt>
      <trkpt lat="48.67347" lon="-0.61412">
        <ele>236.8</ele>
        <time>2014-04-10T10:31:40Z</time>
      </trkpt>
      <trkpt lat="48.67348" lon="-0.61415">
        <ele>236.8</ele>
        <time>2014-04-10T10:31:41Z</time>
      </trkpt>
      <trkpt lat="48.67349" lon="-0.61417">
        <ele>236.8</ele>
        <time>2014-04-10T10:31:42Z</time>
      </trkpt>
      <trkpt lat="48.67351" lon="-0.61422">
        <ele>237</ele>
        <time>2014-04-10T10:31:48Z</time>
      </trkpt>
      <trkpt lat="48.67348" lon="-0.61432">
        <ele>236.6</ele>
        <time>2014-04-10T10:32:52Z</time>
      </trkpt>
      <trkpt lat="48.67348" lon="-0.61434">
        <ele>236.6</ele>
        <time>2014-04-10T10:32:53Z</time>
      </trkpt>
      <trkpt lat="48.67349" lon="-0.61437">
        <ele>236.6</ele>
        <time>2014-04-10T10:32:54Z</time>
      </trkpt>
      <trkpt lat="48.67351" lon="-0.61441">
        <ele>236.6</ele>
        <time>2014-04-10T10:32:55Z</time>
      </trkpt>
      <trkpt lat="48.67352" lon="-0.61444">
        <ele>236.8</ele>
        <time>2014-04-10T10:32:56Z</time>
      </trkpt>
      <trkpt lat="48.67352" lon="-0.61448">
        <ele>236.8</ele>
        <time>2014-04-10T10:32:57Z</time>
      </trkpt>
      <trkpt lat="48.67368" lon="-0.61513">
        <ele>237.8</ele>
        <time>2014-04-10T10:33:12Z</time>
      </trkpt>
      <trkpt lat="48.67391" lon="-0.61577">
        <ele>241</ele>
        <time>2014-04-10T10:33:27Z</time>
      </trkpt>
      <trkpt lat="48.67432" lon="-0.6162">
        <ele>244.2</ele>
        <time>2014-04-10T10:33:41Z</time>
      </trkpt>
      <trkpt lat="48.67477" lon="-0.61718">
        <ele>247.2</ele>
        <time>2014-04-10T10:33:56Z</time>
      </trkpt>
      <trkpt lat="48.67517" lon="-0.61874">
        <ele>248.4</ele>
        <time>2014-04-10T10:34:14Z</time>
      </trkpt>
      <trkpt lat="48.67558" lon="-0.62047">
        <ele>247.6</ele>
        <time>2014-04-10T10:34:34Z</time>
      </trkpt>
      <trkpt lat="48.67603" lon="-0.62175">
        <ele>244.8</ele>
        <time>2014-04-10T10:34:49Z</time>
      </trkpt>
      <trkpt lat="48.67665" lon="-0.62255">
        <ele>246.4</ele>
        <time>2014-04-10T10:35:04Z</time>
      </trkpt>
      <trkpt lat="48.67735" lon="-0.62316">
        <ele>249.6</ele>
        <time>2014-04-10T10:35:18Z</time>
      </trkpt>
      <trkpt lat="48.67774" lon="-0.62333">
        <ele>252.2</ele>
        <time>2014-04-10T10:35:27Z</time>
      </trkpt>
      <trkpt lat="48.67836" lon="-0.62356">
        <ele>255</ele>
        <time>2014-04-10T10:35:41Z</time>
      </trkpt>
      <trkpt lat="48.67885" lon="-0.62377">
        <ele>257</ele>
        <time>2014-04-10T10:35:55Z</time>
      </trkpt>
      <trkpt lat="48.679" lon="-0.62394">
        <ele>256.8</ele>
        <time>2014-04-10T10:36:00Z</time>
      </trkpt>
      <trkpt lat="48.67902" lon="-0.62399">
        <ele>256.6</ele>
        <time>2014-04-10T10:36:01Z</time>
      </trkpt>
      <trkpt lat="48.67903" lon="-0.62406">
        <ele>256.6</ele>
        <time>2014-04-10T10:36:02Z</time>
      </trkpt>
      <trkpt lat="48.67906" lon="-0.62513">
        <ele>254.2</ele>
        <time>2014-04-10T10:36:18Z</time>
      </trkpt>
      <trkpt lat="48.67906" lon="-0.62526">
        <ele>253.8</ele>
        <time>2014-04-10T10:36:20Z</time>
      </trkpt>
      <trkpt lat="48.6791" lon="-0.62601">
        <ele>251.2</ele>
        <time>2014-04-10T10:36:31Z</time>
      </trkpt>
      <trkpt lat="48.67911" lon="-0.62621">
        <ele>250</ele>
        <time>2014-04-10T10:36:34Z</time>
      </trkpt>
      <trkpt lat="48.67917" lon="-0.62673">
        <ele>246.6</ele>
        <time>2014-04-10T10:36:43Z</time>
      </trkpt>
      <trkpt lat="48.67918" lon="-0.62678">
        <ele>245.8</ele>
        <time>2014-04-10T10:36:47Z</time>
      </trkpt>
      <trkpt lat="48.67919" lon="-0.62681">
        <ele>245.6</ele>
        <time>2014-04-10T10:36:48Z</time>
      </trkpt>
      <trkpt lat="48.67919" lon="-0.62685">
        <ele>245.6</ele>
        <time>2014-04-10T10:36:49Z</time>
      </trkpt>
      <trkpt lat="48.67918" lon="-0.6269">
        <ele>245.4</ele>
        <time>2014-04-10T10:36:50Z</time>
      </trkpt>
      <trkpt lat="48.67917" lon="-0.62694">
        <ele>245.2</ele>
        <time>2014-04-10T10:36:51Z</time>
      </trkpt>
      <trkpt lat="48.67916" lon="-0.627">
        <ele>245.2</ele>
        <time>2014-04-10T10:36:52Z</time>
      </trkpt>
      <trkpt lat="48.67916" lon="-0.62705">
        <ele>245</ele>
        <time>2014-04-10T10:36:53Z</time>
      </trkpt>
      <trkpt lat="48.67917" lon="-0.6271">
        <ele>245</ele>
        <time>2014-04-10T10:36:54Z</time>
      </trkpt>
      <trkpt lat="48.67918" lon="-0.62714">
        <ele>244.8</ele>
        <time>2014-04-10T10:36:55Z</time>
      </trkpt>
      <trkpt lat="48.6792" lon="-0.62719">
        <ele>244.6</ele>
        <time>2014-04-10T10:36:56Z</time>
      </trkpt>
      <trkpt lat="48.67929" lon="-0.62735">
        <ele>244</ele>
        <time>2014-04-10T10:36:59Z</time>
      </trkpt>
      <trkpt lat="48.67935" lon="-0.62745">
        <ele>243.4</ele>
        <time>2014-04-10T10:37:01Z</time>
      </trkpt>
      <trkpt lat="48.67937" lon="-0.62751">
        <ele>243.4</ele>
        <time>2014-04-10T10:37:02Z</time>
      </trkpt>
      <trkpt lat="48.67939" lon="-0.62758">
        <ele>243.2</ele>
        <time>2014-04-10T10:37:03Z</time>
      </trkpt>
      <trkpt lat="48.6794" lon="-0.62765">
        <ele>243</ele>
        <time>2014-04-10T10:37:04Z</time>
      </trkpt>
      <trkpt lat="48.67941" lon="-0.62772">
        <ele>243</ele>
        <time>2014-04-10T10:37:05Z</time>
      </trkpt>
      <trkpt lat="48.67942" lon="-0.6278">
        <ele>242.8</ele>
        <time>2014-04-10T10:37:06Z</time>
      </trkpt>
      <trkpt lat="48.67957" lon="-0.62879">
        <ele>242.8</ele>
        <time>2014-04-10T10:37:19Z</time>
      </trkpt>
      <trkpt lat="48.67992" lon="-0.63014">
        <ele>242.8</ele>
        <time>2014-04-10T10:37:36Z</time>
      </trkpt>
      <trkpt lat="48.67994" lon="-0.63022">
        <ele>242.8</ele>
        <time>2014-04-10T10:37:37Z</time>
      </trkpt>
      <trkpt lat="48.68029" lon="-0.63102">
        <ele>245.8</ele>
        <time>2014-04-10T10:37:50Z</time>
      </trkpt>
      <trkpt lat="48.68058" lon="-0.63176">
        <ele>249</ele>
        <time>2014-04-10T10:38:01Z</time>
      </trkpt>
      <trkpt lat="48.68071" lon="-0.63223">
        <ele>252.2</ele>
        <time>2014-04-10T10:38:08Z</time>
      </trkpt>
      <trkpt lat="48.68088" lon="-0.63286">
        <ele>255.6</ele>
        <time>2014-04-10T10:38:17Z</time>
      </trkpt>
      <trkpt lat="48.68104" lon="-0.63334">
        <ele>257.2</ele>
        <time>2014-04-10T10:38:24Z</time>
      </trkpt>
      <trkpt lat="48.68119" lon="-0.63362">
        <ele>258</ele>
        <time>2014-04-10T10:38:29Z</time>
      </trkpt>
      <trkpt lat="48.68177" lon="-0.63426">
        <ele>259.6</ele>
        <time>2014-04-10T10:38:43Z</time>
      </trkpt>
      <trkpt lat="48.68229" lon="-0.63477">
        <ele>256.2</ele>
        <time>2014-04-10T10:38:53Z</time>
      </trkpt>
      <trkpt lat="48.6827" lon="-0.63513">
        <ele>253</ele>
        <time>2014-04-10T10:38:59Z</time>
      </trkpt>
      <trkpt lat="48.68306" lon="-0.63543">
        <ele>249.6</ele>
        <time>2014-04-10T10:39:04Z</time>
      </trkpt>
      <trkpt lat="48.68324" lon="-0.63563">
        <ele>248.6</ele>
        <time>2014-04-10T10:39:07Z</time>
      </trkpt>
      <trkpt lat="48.68329" lon="-0.6357">
        <ele>248.4</ele>
        <time>2014-04-10T10:39:08Z</time>
      </trkpt>
      <trkpt lat="48.68336" lon="-0.63585">
        <ele>248</ele>
        <time>2014-04-10T10:39:10Z</time>
      </trkpt>
      <trkpt lat="48.68361" lon="-0.63648">
        <ele>249.2</ele>
        <time>2014-04-10T10:39:20Z</time>
      </trkpt>
      <trkpt lat="48.6843" lon="-0.63775">
        <ele>252</ele>
        <time>2014-04-10T10:39:40Z</time>
      </trkpt>
      <trkpt lat="48.68492" lon="-0.63876">
        <ele>249.4</ele>
        <time>2014-04-10T10:39:55Z</time>
      </trkpt>
      <trkpt lat="48.685" lon="-0.6389">
        <ele>249</ele>
        <time>2014-04-10T10:39:57Z</time>
      </trkpt>
      <trkpt lat="48.68503" lon="-0.63898">
        <ele>248.6</ele>
        <time>2014-04-10T10:39:58Z</time>
      </trkpt>
      <trkpt lat="48.68507" lon="-0.63907">
        <ele>248.4</ele>
        <time>2014-04-10T10:39:59Z</time>
      </trkpt>
      <trkpt lat="48.6853" lon="-0.64001">
        <ele>249</ele>
        <time>2014-04-10T10:40:12Z</time>
      </trkpt>
      <trkpt lat="48.68532" lon="-0.64008">
        <ele>249.4</ele>
        <time>2014-04-10T10:40:13Z</time>
      </trkpt>
      <trkpt lat="48.68534" lon="-0.64021">
        <ele>250</ele>
        <time>2014-04-10T10:40:15Z</time>
      </trkpt>
      <trkpt lat="48.68535" lon="-0.64027">
        <ele>250.2</ele>
        <time>2014-04-10T10:40:16Z</time>
      </trkpt>
      <trkpt lat="48.68537" lon="-0.64033">
        <ele>250.8</ele>
        <time>2014-04-10T10:40:17Z</time>
      </trkpt>
      <trkpt lat="48.68538" lon="-0.64039">
        <ele>251.2</ele>
        <time>2014-04-10T10:40:18Z</time>
      </trkpt>
      <trkpt lat="48.68539" lon="-0.64045">
        <ele>251.4</ele>
        <time>2014-04-10T10:40:19Z</time>
      </trkpt>
      <trkpt lat="48.6854" lon="-0.64051">
        <ele>251.8</ele>
        <time>2014-04-10T10:40:20Z</time>
      </trkpt>
      <trkpt lat="48.68544" lon="-0.64067">
        <ele>253.8</ele>
        <time>2014-04-10T10:40:25Z</time>
      </trkpt>
      <trkpt lat="48.68543" lon="-0.64068">
        <ele>254.2</ele>
        <time>2014-04-10T10:40:26Z</time>
      </trkpt>
      <trkpt lat="48.68541" lon="-0.64066">
        <ele>254.8</ele>
        <time>2014-04-10T10:40:28Z</time>
      </trkpt>
      <trkpt lat="48.6854" lon="-0.64063">
        <ele>255</ele>
        <time>2014-04-10T10:40:29Z</time>
      </trkpt>
      <trkpt lat="48.6854" lon="-0.64059">
        <ele>255.2</ele>
        <time>2014-04-10T10:40:30Z</time>
      </trkpt>
      <trkpt lat="48.68539" lon="-0.64055">
        <ele>255.2</ele>
        <time>2014-04-10T10:40:31Z</time>
      </trkpt>
      <trkpt lat="48.68533" lon="-0.64025">
        <ele>254.8</ele>
        <time>2014-04-10T10:40:39Z</time>
      </trkpt>
      <trkpt lat="48.68531" lon="-0.64023">
        <ele>254.6</ele>
        <time>2014-04-10T10:40:40Z</time>
      </trkpt>
      <trkpt lat="48.68528" lon="-0.64025">
        <ele>254.2</ele>
        <time>2014-04-10T10:40:41Z</time>
      </trkpt>
      <trkpt lat="48.68527" lon="-0.64028">
        <ele>254</ele>
        <time>2014-04-10T10:40:42Z</time>
      </trkpt>
      <trkpt lat="48.68527" lon="-0.64032">
        <ele>253.8</ele>
        <time>2014-04-10T10:40:43Z</time>
      </trkpt>
      <trkpt lat="48.68527" lon="-0.64036">
        <ele>253.4</ele>
        <time>2014-04-10T10:40:44Z</time>
      </trkpt>
      <trkpt lat="48.68531" lon="-0.6409">
        <ele>251.6</ele>
        <time>2014-04-10T10:40:53Z</time>
      </trkpt>
      <trkpt lat="48.68524" lon="-0.64124">
        <ele>251.4</ele>
        <time>2014-04-10T10:40:59Z</time>
      </trkpt>
      <trkpt lat="48.68522" lon="-0.64131">
        <ele>251.4</ele>
        <time>2014-04-10T10:41:00Z</time>
      </trkpt>
      <trkpt lat="48.68516" lon="-0.64143">
        <ele>251.2</ele>
        <time>2014-04-10T10:41:02Z</time>
      </trkpt>
      <trkpt lat="48.68514" lon="-0.64149">
        <ele>251.2</ele>
        <time>2014-04-10T10:41:03Z</time>
      </trkpt>
      <trkpt lat="48.68511" lon="-0.64155">
        <ele>251.2</ele>
        <time>2014-04-10T10:41:04Z</time>
      </trkpt>
      <trkpt lat="48.68478" lon="-0.64203">
        <ele>250.8</ele>
        <time>2014-04-10T10:41:13Z</time>
      </trkpt>
      <trkpt lat="48.68439" lon="-0.64265">
        <ele>249.4</ele>
        <time>2014-04-10T10:41:22Z</time>
      </trkpt>
      <trkpt lat="48.68431" lon="-0.64286">
        <ele>249.2</ele>
        <time>2014-04-10T10:41:25Z</time>
      </trkpt>
      <trkpt lat="48.68423" lon="-0.64315">
        <ele>248.8</ele>
        <time>2014-04-10T10:41:32Z</time>
      </trkpt>
      <trkpt lat="48.68423" lon="-0.64318">
        <ele>249</ele>
        <time>2014-04-10T10:41:33Z</time>
      </trkpt>
      <trkpt lat="48.68429" lon="-0.64346">
        <ele>249</ele>
        <time>2014-04-10T10:41:38Z</time>
      </trkpt>
      <trkpt lat="48.6843" lon="-0.64353">
        <ele>249</ele>
        <time>2014-04-10T10:41:39Z</time>
      </trkpt>
      <trkpt lat="48.68433" lon="-0.64359">
        <ele>249</ele>
        <time>2014-04-10T10:41:40Z</time>
      </trkpt>
      <trkpt lat="48.68436" lon="-0.64364">
        <ele>249</ele>
        <time>2014-04-10T10:41:41Z</time>
      </trkpt>
      <trkpt lat="48.68439" lon="-0.64369">
        <ele>249</ele>
        <time>2014-04-10T10:41:42Z</time>
      </trkpt>
      <trkpt lat="48.68442" lon="-0.64372">
        <ele>249</ele>
        <time>2014-04-10T10:41:43Z</time>
      </trkpt>
      <trkpt lat="48.68444" lon="-0.64374">
        <ele>249.2</ele>
        <time>2014-04-10T10:41:44Z</time>
      </trkpt>
      <trkpt lat="48.68445" lon="-0.64376">
        <ele>249.4</ele>
        <time>2014-04-10T10:41:45Z</time>
      </trkpt>
      <trkpt lat="48.68447" lon="-0.64378">
        <ele>249.8</ele>
        <time>2014-04-10T10:41:46Z</time>
      </trkpt>
      <trkpt lat="48.68447" lon="-0.64381">
        <ele>250</ele>
        <time>2014-04-10T10:41:47Z</time>
      </trkpt>
      <trkpt lat="48.68447" lon="-0.64381">
        <ele>252.2</ele>
        <time>2014-04-10T10:41:56Z</time>
      </trkpt>
      <trkpt lat="48.68447" lon="-0.64381">
        <ele>252.4</ele>
        <time>2014-04-10T10:41:58Z</time>
      </trkpt>
      <trkpt lat="48.68441" lon="-0.64374">
        <ele>252.8</ele>
        <time>2014-04-10T10:42:36Z</time>
      </trkpt>
      <trkpt lat="48.68439" lon="-0.64371">
        <ele>252.8</ele>
        <time>2014-04-10T10:42:37Z</time>
      </trkpt>
      <trkpt lat="48.68437" lon="-0.64367">
        <ele>252.6</ele>
        <time>2014-04-10T10:42:38Z</time>
      </trkpt>
      <trkpt lat="48.68435" lon="-0.64363">
        <ele>252.6</ele>
        <time>2014-04-10T10:42:39Z</time>
      </trkpt>
      <trkpt lat="48.68433" lon="-0.6436">
        <ele>252.2</ele>
        <time>2014-04-10T10:42:40Z</time>
      </trkpt>
      <trkpt lat="48.68422" lon="-0.64317">
        <ele>249.6</ele>
        <time>2014-04-10T10:42:50Z</time>
      </trkpt>
      <trkpt lat="48.6842" lon="-0.64314">
        <ele>249.6</ele>
        <time>2014-04-10T10:42:51Z</time>
      </trkpt>
      <trkpt lat="48.68417" lon="-0.64312">
        <ele>249.4</ele>
        <time>2014-04-10T10:42:52Z</time>
      </trkpt>
      <trkpt lat="48.68413" lon="-0.64312">
        <ele>249.4</ele>
        <time>2014-04-10T10:42:53Z</time>
      </trkpt>
      <trkpt lat="48.6841" lon="-0.64313">
        <ele>249.4</ele>
        <time>2014-04-10T10:42:54Z</time>
      </trkpt>
      <trkpt lat="48.68405" lon="-0.64314">
        <ele>249.2</ele>
        <time>2014-04-10T10:42:55Z</time>
      </trkpt>
      <trkpt lat="48.68402" lon="-0.64316">
        <ele>249.2</ele>
        <time>2014-04-10T10:42:56Z</time>
      </trkpt>
      <trkpt lat="48.68399" lon="-0.6432">
        <ele>249.2</ele>
        <time>2014-04-10T10:42:57Z</time>
      </trkpt>
      <trkpt lat="48.68397" lon="-0.64323">
        <ele>249.2</ele>
        <time>2014-04-10T10:42:58Z</time>
      </trkpt>
      <trkpt lat="48.68395" lon="-0.64325">
        <ele>249</ele>
        <time>2014-04-10T10:42:59Z</time>
      </trkpt>
      <trkpt lat="48.68389" lon="-0.64337">
        <ele>248.6</ele>
        <time>2014-04-10T10:43:05Z</time>
      </trkpt>
      <trkpt lat="48.68402" lon="-0.64318">
        <ele>248.6</ele>
        <time>2014-04-10T10:43:16Z</time>
      </trkpt>
      <trkpt lat="48.68417" lon="-0.64317">
        <ele>249</ele>
        <time>2014-04-10T10:43:23Z</time>
      </trkpt>
      <trkpt lat="48.68419" lon="-0.6432">
        <ele>249</ele>
        <time>2014-04-10T10:43:24Z</time>
      </trkpt>
      <trkpt lat="48.68427" lon="-0.64359">
        <ele>249.6</ele>
        <time>2014-04-10T10:43:35Z</time>
      </trkpt>
      <trkpt lat="48.68436" lon="-0.64375">
        <ele>250.8</ele>
        <time>2014-04-10T10:43:45Z</time>
      </trkpt>
      <trkpt lat="48.68444" lon="-0.64379">
        <ele>252</ele>
        <time>2014-04-10T10:44:10Z</time>
      </trkpt>
      <trkpt lat="48.68446" lon="-0.64381">
        <ele>252</ele>
        <time>2014-04-10T10:44:12Z</time>
      </trkpt>
      <trkpt lat="48.68466" lon="-0.64383">
        <ele>252.6</ele>
        <time>2014-04-10T10:44:23Z</time>
      </trkpt>
      <trkpt lat="48.68495" lon="-0.64391">
        <ele>253</ele>
        <time>2014-04-10T10:44:34Z</time>
      </trkpt>
      <trkpt lat="48.68516" lon="-0.64415">
        <ele>253</ele>
        <time>2014-04-10T10:44:45Z</time>
      </trkpt>
      <trkpt lat="48.68519" lon="-0.64418">
        <ele>253</ele>
        <time>2014-04-10T10:44:47Z</time>
      </trkpt>
      <trkpt lat="48.6855" lon="-0.64428">
        <ele>254.4</ele>
        <time>2014-04-10T10:44:57Z</time>
      </trkpt>
      <trkpt lat="48.68588" lon="-0.64426">
        <ele>256.6</ele>
        <time>2014-04-10T10:45:09Z</time>
      </trkpt>
      <trkpt lat="48.68607" lon="-0.64425">
        <ele>258.6</ele>
        <time>2014-04-10T10:45:17Z</time>
      </trkpt>
      <trkpt lat="48.68609" lon="-0.64428">
        <ele>259</ele>
        <time>2014-04-10T10:45:18Z</time>
      </trkpt>
      <trkpt lat="48.6862" lon="-0.64477">
        <ele>259.2</ele>
        <time>2014-04-10T10:45:29Z</time>
      </trkpt>
      <trkpt lat="48.68616" lon="-0.64599">
        <ele>258.8</ele>
        <time>2014-04-10T10:45:47Z</time>
      </trkpt>
      <trkpt lat="48.68615" lon="-0.64618">
        <ele>259.2</ele>
        <time>2014-04-10T10:45:50Z</time>
      </trkpt>
      <trkpt lat="48.68613" lon="-0.64631">
        <ele>259.4</ele>
        <time>2014-04-10T10:45:52Z</time>
      </trkpt>
      <trkpt lat="48.6861" lon="-0.6465">
        <ele>260</ele>
        <time>2014-04-10T10:45:55Z</time>
      </trkpt>
      <trkpt lat="48.68609" lon="-0.64656">
        <ele>260.2</ele>
        <time>2014-04-10T10:45:56Z</time>
      </trkpt>
      <trkpt lat="48.68605" lon="-0.64668">
        <ele>260.6</ele>
        <time>2014-04-10T10:45:58Z</time>
      </trkpt>
      <trkpt lat="48.6856" lon="-0.6474">
        <ele>263.2</ele>
        <time>2014-04-10T10:46:11Z</time>
      </trkpt>
      <trkpt lat="48.68557" lon="-0.64746">
        <ele>263.4</ele>
        <time>2014-04-10T10:46:12Z</time>
      </trkpt>
      <trkpt lat="48.68555" lon="-0.64752">
        <ele>263.4</ele>
        <time>2014-04-10T10:46:13Z</time>
      </trkpt>
      <trkpt lat="48.68549" lon="-0.64772">
        <ele>264</ele>
        <time>2014-04-10T10:46:16Z</time>
      </trkpt>
      <trkpt lat="48.68548" lon="-0.6478">
        <ele>264.2</ele>
        <time>2014-04-10T10:46:17Z</time>
      </trkpt>
      <trkpt lat="48.68548" lon="-0.64787">
        <ele>264.4</ele>
        <time>2014-04-10T10:46:18Z</time>
      </trkpt>
      <trkpt lat="48.68549" lon="-0.64794">
        <ele>264.6</ele>
        <time>2014-04-10T10:46:19Z</time>
      </trkpt>
      <trkpt lat="48.6855" lon="-0.64801">
        <ele>264.8</ele>
        <time>2014-04-10T10:46:20Z</time>
      </trkpt>
      <trkpt lat="48.68551" lon="-0.64808">
        <ele>265</ele>
        <time>2014-04-10T10:46:21Z</time>
      </trkpt>
      <trkpt lat="48.68552" lon="-0.64815">
        <ele>265.2</ele>
        <time>2014-04-10T10:46:22Z</time>
      </trkpt>
      <trkpt lat="48.68555" lon="-0.64828">
        <ele>265.6</ele>
        <time>2014-04-10T10:46:24Z</time>
      </trkpt>
      <trkpt lat="48.68557" lon="-0.64835">
        <ele>265.8</ele>
        <time>2014-04-10T10:46:25Z</time>
      </trkpt>
      <trkpt lat="48.68578" lon="-0.64935">
        <ele>268.2</ele>
        <time>2014-04-10T10:46:38Z</time>
      </trkpt>
      <trkpt lat="48.68583" lon="-0.6495">
        <ele>268.6</ele>
        <time>2014-04-10T10:46:40Z</time>
      </trkpt>
      <trkpt lat="48.68586" lon="-0.64957">
        <ele>268.8</ele>
        <time>2014-04-10T10:46:41Z</time>
      </trkpt>
      <trkpt lat="48.68607" lon="-0.64993">
        <ele>269.8</ele>
        <time>2014-04-10T10:46:47Z</time>
      </trkpt>
      <trkpt lat="48.68612" lon="-0.64997">
        <ele>270</ele>
        <time>2014-04-10T10:46:48Z</time>
      </trkpt>
      <trkpt lat="48.68663" lon="-0.65038">
        <ele>272.4</ele>
        <time>2014-04-10T10:46:59Z</time>
      </trkpt>
      <trkpt lat="48.68737" lon="-0.6505">
        <ele>274</ele>
        <time>2014-04-10T10:47:13Z</time>
      </trkpt>
      <trkpt lat="48.68741" lon="-0.65048">
        <ele>274.2</ele>
        <time>2014-04-10T10:47:14Z</time>
      </trkpt>
      <trkpt lat="48.68746" lon="-0.65045">
        <ele>274.4</ele>
        <time>2014-04-10T10:47:15Z</time>
      </trkpt>
      <trkpt lat="48.68751" lon="-0.65041">
        <ele>274.4</ele>
        <time>2014-04-10T10:47:16Z</time>
      </trkpt>
      <trkpt lat="48.68755" lon="-0.65037">
        <ele>274.6</ele>
        <time>2014-04-10T10:47:17Z</time>
      </trkpt>
      <trkpt lat="48.68768" lon="-0.65024">
        <ele>274.8</ele>
        <time>2014-04-10T10:47:20Z</time>
      </trkpt>
      <trkpt lat="48.68813" lon="-0.64983">
        <ele>276</ele>
        <time>2014-04-10T10:47:30Z</time>
      </trkpt>
      <trkpt lat="48.68836" lon="-0.64968">
        <ele>276.8</ele>
        <time>2014-04-10T10:47:35Z</time>
      </trkpt>
      <trkpt lat="48.68881" lon="-0.64948">
        <ele>278</ele>
        <time>2014-04-10T10:47:44Z</time>
      </trkpt>
      <trkpt lat="48.68896" lon="-0.64945">
        <ele>278.2</ele>
        <time>2014-04-10T10:47:47Z</time>
      </trkpt>
      <trkpt lat="48.68902" lon="-0.64946">
        <ele>278.4</ele>
        <time>2014-04-10T10:47:48Z</time>
      </trkpt>
      <trkpt lat="48.68907" lon="-0.64947">
        <ele>278.4</ele>
        <time>2014-04-10T10:47:49Z</time>
      </trkpt>
      <trkpt lat="48.68913" lon="-0.64949">
        <ele>278.4</ele>
        <time>2014-04-10T10:47:50Z</time>
      </trkpt>
      <trkpt lat="48.68919" lon="-0.64952">
        <ele>278.4</ele>
        <time>2014-04-10T10:47:51Z</time>
      </trkpt>
      <trkpt lat="48.68924" lon="-0.64956">
        <ele>278.6</ele>
        <time>2014-04-10T10:47:52Z</time>
      </trkpt>
      <trkpt lat="48.68929" lon="-0.64961">
        <ele>278.6</ele>
        <time>2014-04-10T10:47:53Z</time>
      </trkpt>
      <trkpt lat="48.68934" lon="-0.64966">
        <ele>278.4</ele>
        <time>2014-04-10T10:47:54Z</time>
      </trkpt>
      <trkpt lat="48.68961" lon="-0.64992">
        <ele>278</ele>
        <time>2014-04-10T10:47:59Z</time>
      </trkpt>
      <trkpt lat="48.68967" lon="-0.64995">
        <ele>277.8</ele>
        <time>2014-04-10T10:48:00Z</time>
      </trkpt>
      <trkpt lat="48.68973" lon="-0.64997">
        <ele>277.8</ele>
        <time>2014-04-10T10:48:01Z</time>
      </trkpt>
      <trkpt lat="48.68979" lon="-0.64997">
        <ele>277.6</ele>
        <time>2014-04-10T10:48:02Z</time>
      </trkpt>
      <trkpt lat="48.68985" lon="-0.64996">
        <ele>277.4</ele>
        <time>2014-04-10T10:48:03Z</time>
      </trkpt>
      <trkpt lat="48.6899" lon="-0.64993">
        <ele>277.4</ele>
        <time>2014-04-10T10:48:04Z</time>
      </trkpt>
      <trkpt lat="48.68995" lon="-0.6499">
        <ele>277.2</ele>
        <time>2014-04-10T10:48:05Z</time>
      </trkpt>
      <trkpt lat="48.69" lon="-0.64986">
        <ele>277.2</ele>
        <time>2014-04-10T10:48:06Z</time>
      </trkpt>
      <trkpt lat="48.69009" lon="-0.64978">
        <ele>277.2</ele>
        <time>2014-04-10T10:48:08Z</time>
      </trkpt>
      <trkpt lat="48.69022" lon="-0.64965">
        <ele>277.8</ele>
        <time>2014-04-10T10:48:11Z</time>
      </trkpt>
      <trkpt lat="48.69026" lon="-0.6496">
        <ele>278</ele>
        <time>2014-04-10T10:48:12Z</time>
      </trkpt>
      <trkpt lat="48.69057" lon="-0.64931">
        <ele>279.6</ele>
        <time>2014-04-10T10:48:19Z</time>
      </trkpt>
      <trkpt lat="48.69115" lon="-0.64908">
        <ele>282.6</ele>
        <time>2014-04-10T10:48:30Z</time>
      </trkpt>
      <trkpt lat="48.69135" lon="-0.64906">
        <ele>284.2</ele>
        <time>2014-04-10T10:48:34Z</time>
      </trkpt>
      <trkpt lat="48.6914" lon="-0.64907">
        <ele>284.6</ele>
        <time>2014-04-10T10:48:35Z</time>
      </trkpt>
      <trkpt lat="48.69155" lon="-0.64913">
        <ele>285.6</ele>
        <time>2014-04-10T10:48:38Z</time>
      </trkpt>
      <trkpt lat="48.69184" lon="-0.64939">
        <ele>287.2</ele>
        <time>2014-04-10T10:48:44Z</time>
      </trkpt>
      <trkpt lat="48.69188" lon="-0.64946">
        <ele>287.6</ele>
        <time>2014-04-10T10:48:45Z</time>
      </trkpt>
      <trkpt lat="48.69192" lon="-0.64953">
        <ele>287.8</ele>
        <time>2014-04-10T10:48:46Z</time>
      </trkpt>
      <trkpt lat="48.69195" lon="-0.64961">
        <ele>288</ele>
        <time>2014-04-10T10:48:47Z</time>
      </trkpt>
      <trkpt lat="48.69197" lon="-0.6497">
        <ele>288.4</ele>
        <time>2014-04-10T10:48:48Z</time>
      </trkpt>
      <trkpt lat="48.69199" lon="-0.64978">
        <ele>288.8</ele>
        <time>2014-04-10T10:48:49Z</time>
      </trkpt>
      <trkpt lat="48.69214" lon="-0.65052">
        <ele>291.8</ele>
        <time>2014-04-10T10:48:58Z</time>
      </trkpt>
      <trkpt lat="48.69238" lon="-0.65138">
        <ele>293.2</ele>
        <time>2014-04-10T10:49:12Z</time>
      </trkpt>
      <trkpt lat="48.6926" lon="-0.65205">
        <ele>292.4</ele>
        <time>2014-04-10T10:49:24Z</time>
      </trkpt>
      <trkpt lat="48.69296" lon="-0.65302">
        <ele>290.6</ele>
        <time>2014-04-10T10:49:41Z</time>
      </trkpt>
      <trkpt lat="48.69317" lon="-0.65358">
        <ele>290</ele>
        <time>2014-04-10T10:49:54Z</time>
      </trkpt>
      <trkpt lat="48.69324" lon="-0.65378">
        <ele>289.6</ele>
        <time>2014-04-10T10:49:57Z</time>
      </trkpt>
      <trkpt lat="48.69339" lon="-0.65421">
        <ele>288.8</ele>
        <time>2014-04-10T10:50:03Z</time>
      </trkpt>
      <trkpt lat="48.69351" lon="-0.65449">
        <ele>288</ele>
        <time>2014-04-10T10:50:07Z</time>
      </trkpt>
      <trkpt lat="48.69353" lon="-0.65456">
        <ele>287.8</ele>
        <time>2014-04-10T10:50:08Z</time>
      </trkpt>
      <trkpt lat="48.69357" lon="-0.65463">
        <ele>287.4</ele>
        <time>2014-04-10T10:50:09Z</time>
      </trkpt>
      <trkpt lat="48.69359" lon="-0.6547">
        <ele>287.2</ele>
        <time>2014-04-10T10:50:10Z</time>
      </trkpt>
      <trkpt lat="48.69362" lon="-0.65477">
        <ele>287.2</ele>
        <time>2014-04-10T10:50:11Z</time>
      </trkpt>
      <trkpt lat="48.69367" lon="-0.65492">
        <ele>286.6</ele>
        <time>2014-04-10T10:50:13Z</time>
      </trkpt>
      <trkpt lat="48.69384" lon="-0.65555">
        <ele>284.4</ele>
        <time>2014-04-10T10:50:21Z</time>
      </trkpt>
      <trkpt lat="48.69387" lon="-0.65562">
        <ele>284</ele>
        <time>2014-04-10T10:50:22Z</time>
      </trkpt>
      <trkpt lat="48.69391" lon="-0.65566">
        <ele>283.8</ele>
        <time>2014-04-10T10:50:23Z</time>
      </trkpt>
      <trkpt lat="48.69395" lon="-0.65568">
        <ele>283.4</ele>
        <time>2014-04-10T10:50:24Z</time>
      </trkpt>
      <trkpt lat="48.69398" lon="-0.65567">
        <ele>283.2</ele>
        <time>2014-04-10T10:50:25Z</time>
      </trkpt>
      <trkpt lat="48.69404" lon="-0.65562">
        <ele>282.8</ele>
        <time>2014-04-10T10:50:27Z</time>
      </trkpt>
      <trkpt lat="48.69421" lon="-0.65539">
        <ele>283.2</ele>
        <time>2014-04-10T10:50:32Z</time>
      </trkpt>
      <trkpt lat="48.69435" lon="-0.65513">
        <ele>285.4</ele>
        <time>2014-04-10T10:50:37Z</time>
      </trkpt>
      <trkpt lat="48.69454" lon="-0.65487">
        <ele>287.6</ele>
        <time>2014-04-10T10:50:42Z</time>
      </trkpt>
      <trkpt lat="48.69462" lon="-0.65478">
        <ele>288.4</ele>
        <time>2014-04-10T10:50:44Z</time>
      </trkpt>
      <trkpt lat="48.69468" lon="-0.65467">
        <ele>289.4</ele>
        <time>2014-04-10T10:50:46Z</time>
      </trkpt>
      <trkpt lat="48.69493" lon="-0.65432">
        <ele>293.2</ele>
        <time>2014-04-10T10:50:55Z</time>
      </trkpt>
      <trkpt lat="48.69495" lon="-0.65429">
        <ele>293.6</ele>
        <time>2014-04-10T10:50:56Z</time>
      </trkpt>
      <trkpt lat="48.69507" lon="-0.65417">
        <ele>295.4</ele>
        <time>2014-04-10T10:51:00Z</time>
      </trkpt>
      <trkpt lat="48.69542" lon="-0.65389">
        <ele>297.2</ele>
        <time>2014-04-10T10:51:09Z</time>
      </trkpt>
      <trkpt lat="48.6955" lon="-0.6539">
        <ele>297.6</ele>
        <time>2014-04-10T10:51:11Z</time>
      </trkpt>
      <trkpt lat="48.69565" lon="-0.65406">
        <ele>297.6</ele>
        <time>2014-04-10T10:51:17Z</time>
      </trkpt>
      <trkpt lat="48.69596" lon="-0.65454">
        <ele>295</ele>
        <time>2014-04-10T10:51:29Z</time>
      </trkpt>
      <trkpt lat="48.69598" lon="-0.65457">
        <ele>294.8</ele>
        <time>2014-04-10T10:51:30Z</time>
      </trkpt>
      <trkpt lat="48.69617" lon="-0.65449">
        <ele>292.6</ele>
        <time>2014-04-10T10:51:38Z</time>
      </trkpt>
      <trkpt lat="48.6963" lon="-0.65447">
        <ele>292.2</ele>
        <time>2014-04-10T10:51:41Z</time>
      </trkpt>
      <trkpt lat="48.69665" lon="-0.65418">
        <ele>292</ele>
        <time>2014-04-10T10:51:52Z</time>
      </trkpt>
      <trkpt lat="48.69673" lon="-0.65399">
        <ele>292</ele>
        <time>2014-04-10T10:51:56Z</time>
      </trkpt>
      <trkpt lat="48.69689" lon="-0.65398">
        <ele>291.6</ele>
        <time>2014-04-10T10:52:02Z</time>
      </trkpt>
      <trkpt lat="48.69703" lon="-0.65426">
        <ele>290.2</ele>
        <time>2014-04-10T10:52:13Z</time>
      </trkpt>
      <trkpt lat="48.69709" lon="-0.65432">
        <ele>290</ele>
        <time>2014-04-10T10:52:19Z</time>
      </trkpt>
      <trkpt lat="48.69722" lon="-0.65434">
        <ele>290</ele>
        <time>2014-04-10T10:52:25Z</time>
      </trkpt>
      <trkpt lat="48.69733" lon="-0.65433">
        <ele>289.8</ele>
        <time>2014-04-10T10:52:28Z</time>
      </trkpt>
      <trkpt lat="48.69764" lon="-0.65434">
        <ele>290</ele>
        <time>2014-04-10T10:52:34Z</time>
      </trkpt>
      <trkpt lat="48.6978" lon="-0.65442">
        <ele>290.4</ele>
        <time>2014-04-10T10:52:38Z</time>
      </trkpt>
      <trkpt lat="48.69819" lon="-0.65473">
        <ele>292.6</ele>
        <time>2014-04-10T10:52:49Z</time>
      </trkpt>
      <trkpt lat="48.69827" lon="-0.65482">
        <ele>293</ele>
        <time>2014-04-10T10:52:51Z</time>
      </trkpt>
      <trkpt lat="48.6986" lon="-0.65519">
        <ele>294.6</ele>
        <time>2014-04-10T10:53:00Z</time>
      </trkpt>
      <trkpt lat="48.69895" lon="-0.65527">
        <ele>297</ele>
        <time>2014-04-10T10:53:09Z</time>
      </trkpt>
      <trkpt lat="48.69938" lon="-0.65534">
        <ele>298.6</ele>
        <time>2014-04-10T10:53:19Z</time>
      </trkpt>
      <trkpt lat="48.69978" lon="-0.65558">
        <ele>299.4</ele>
        <time>2014-04-10T10:53:31Z</time>
      </trkpt>
      <trkpt lat="48.69981" lon="-0.65561">
        <ele>299.8</ele>
        <time>2014-04-10T10:53:33Z</time>
      </trkpt>
      <trkpt lat="48.69988" lon="-0.65573">
        <ele>301.2</ele>
        <time>2014-04-10T10:53:44Z</time>
      </trkpt>
      <trkpt lat="48.69989" lon="-0.65576">
        <ele>301.2</ele>
        <time>2014-04-10T10:53:45Z</time>
      </trkpt>
      <trkpt lat="48.70006" lon="-0.65605">
        <ele>302.2</ele>
        <time>2014-04-10T10:53:55Z</time>
      </trkpt>
      <trkpt lat="48.70007" lon="-0.65607">
        <ele>302.4</ele>
        <time>2014-04-10T10:53:57Z</time>
      </trkpt>
      <trkpt lat="48.70006" lon="-0.65606">
        <ele>302.4</ele>
        <time>2014-04-10T10:53:58Z</time>
      </trkpt>
      <trkpt lat="48.70005" lon="-0.65605">
        <ele>302.6</ele>
        <time>2014-04-10T10:53:59Z</time>
      </trkpt>
      <trkpt lat="48.70003" lon="-0.65601">
        <ele>302.6</ele>
        <time>2014-04-10T10:54:01Z</time>
      </trkpt>
      <trkpt lat="48.70002" lon="-0.65598">
        <ele>302.6</ele>
        <time>2014-04-10T10:54:02Z</time>
      </trkpt>
      <trkpt lat="48.70001" lon="-0.65595">
        <ele>302.6</ele>
        <time>2014-04-10T10:54:03Z</time>
      </trkpt>
      <trkpt lat="48.69991" lon="-0.65558">
        <ele>301.6</ele>
        <time>2014-04-10T10:54:15Z</time>
      </trkpt>
      <trkpt lat="48.69985" lon="-0.65506">
        <ele>299.4</ele>
        <time>2014-04-10T10:54:25Z</time>
      </trkpt>
      <trkpt lat="48.69987" lon="-0.6544">
        <ele>296.4</ele>
        <time>2014-04-10T10:54:38Z</time>
      </trkpt>
      <trkpt lat="48.69987" lon="-0.65437">
        <ele>296.2</ele>
        <time>2014-04-10T10:54:39Z</time>
      </trkpt>
      <trkpt lat="48.69988" lon="-0.65433">
        <ele>296</ele>
        <time>2014-04-10T10:54:40Z</time>
      </trkpt>
      <trkpt lat="48.69991" lon="-0.65412">
        <ele>294.8</ele>
        <time>2014-04-10T10:54:50Z</time>
      </trkpt>
      <trkpt lat="48.69992" lon="-0.65412">
        <ele>294.8</ele>
        <time>2014-04-10T10:54:55Z</time>
      </trkpt>
      <trkpt lat="48.6999" lon="-0.65417">
        <ele>294.6</ele>
        <time>2014-04-10T10:55:01Z</time>
      </trkpt>
      <trkpt lat="48.69989" lon="-0.6542">
        <ele>294.6</ele>
        <time>2014-04-10T10:55:02Z</time>
      </trkpt>
      <trkpt lat="48.69989" lon="-0.65423">
        <ele>294.6</ele>
        <time>2014-04-10T10:55:03Z</time>
      </trkpt>
      <trkpt lat="48.69988" lon="-0.65426">
        <ele>294.6</ele>
        <time>2014-04-10T10:55:04Z</time>
      </trkpt>
      <trkpt lat="48.69987" lon="-0.65429">
        <ele>294.6</ele>
        <time>2014-04-10T10:55:05Z</time>
      </trkpt>
      <trkpt lat="48.69987" lon="-0.65433">
        <ele>294.8</ele>
        <time>2014-04-10T10:55:06Z</time>
      </trkpt>
      <trkpt lat="48.69986" lon="-0.65436">
        <ele>294.8</ele>
        <time>2014-04-10T10:55:07Z</time>
      </trkpt>
      <trkpt lat="48.69987" lon="-0.65439">
        <ele>294.8</ele>
        <time>2014-04-10T10:55:08Z</time>
      </trkpt>
      <trkpt lat="48.69987" lon="-0.65442">
        <ele>295</ele>
        <time>2014-04-10T10:55:09Z</time>
      </trkpt>
      <trkpt lat="48.69986" lon="-0.65445">
        <ele>295</ele>
        <time>2014-04-10T10:55:10Z</time>
      </trkpt>
      <trkpt lat="48.69986" lon="-0.65449">
        <ele>295.2</ele>
        <time>2014-04-10T10:55:11Z</time>
      </trkpt>
      <trkpt lat="48.69985" lon="-0.65453">
        <ele>295.4</ele>
        <time>2014-04-10T10:55:12Z</time>
      </trkpt>
      <trkpt lat="48.6999" lon="-0.65503">
        <ele>297</ele>
        <time>2014-04-10T10:55:25Z</time>
      </trkpt>
      <trkpt lat="48.69996" lon="-0.65549">
        <ele>299.6</ele>
        <time>2014-04-10T10:55:36Z</time>
      </trkpt>
      <trkpt lat="48.7001" lon="-0.65593">
        <ele>301.8</ele>
        <time>2014-04-10T10:55:47Z</time>
      </trkpt>
      <trkpt lat="48.70023" lon="-0.65616">
        <ele>303</ele>
        <time>2014-04-10T10:55:54Z</time>
      </trkpt>
      <trkpt lat="48.70024" lon="-0.65618">
        <ele>303</ele>
        <time>2014-04-10T10:55:55Z</time>
      </trkpt>
      <trkpt lat="48.70039" lon="-0.65647">
        <ele>305.4</ele>
        <time>2014-04-10T10:56:05Z</time>
      </trkpt>
      <trkpt lat="48.70059" lon="-0.65676">
        <ele>308.6</ele>
        <time>2014-04-10T10:56:16Z</time>
      </trkpt>
      <trkpt lat="48.70061" lon="-0.65676">
        <ele>309</ele>
        <time>2014-04-10T10:56:17Z</time>
      </trkpt>
      <trkpt lat="48.70111" lon="-0.65666">
        <ele>309.4</ele>
        <time>2014-04-10T10:56:34Z</time>
      </trkpt>
      <trkpt lat="48.70152" lon="-0.6566">
        <ele>308</ele>
        <time>2014-04-10T10:56:46Z</time>
      </trkpt>
      <trkpt lat="48.70207" lon="-0.65646">
        <ele>306.2</ele>
        <time>2014-04-10T10:57:00Z</time>
      </trkpt>
      <trkpt lat="48.70241" lon="-0.65638">
        <ele>305.4</ele>
        <time>2014-04-10T10:57:08Z</time>
      </trkpt>
      <trkpt lat="48.70303" lon="-0.65616">
        <ele>304.2</ele>
        <time>2014-04-10T10:57:21Z</time>
      </trkpt>
      <trkpt lat="48.70347" lon="-0.65574">
        <ele>303.6</ele>
        <time>2014-04-10T10:57:31Z</time>
      </trkpt>
      <trkpt lat="48.7035" lon="-0.65569">
        <ele>303.6</ele>
        <time>2014-04-10T10:57:32Z</time>
      </trkpt>
      <trkpt lat="48.7038" lon="-0.65509">
        <ele>306</ele>
        <time>2014-04-10T10:57:46Z</time>
      </trkpt>
      <trkpt lat="48.70392" lon="-0.65484">
        <ele>307.6</ele>
        <time>2014-04-10T10:57:53Z</time>
      </trkpt>
      <trkpt lat="48.70395" lon="-0.65484">
        <ele>307.8</ele>
        <time>2014-04-10T10:57:54Z</time>
      </trkpt>
      <trkpt lat="48.70398" lon="-0.65484">
        <ele>308</ele>
        <time>2014-04-10T10:57:55Z</time>
      </trkpt>
      <trkpt lat="48.70401" lon="-0.65485">
        <ele>308</ele>
        <time>2014-04-10T10:57:56Z</time>
      </trkpt>
      <trkpt lat="48.70405" lon="-0.65486">
        <ele>308.2</ele>
        <time>2014-04-10T10:57:57Z</time>
      </trkpt>
      <trkpt lat="48.70409" lon="-0.65487">
        <ele>308.2</ele>
        <time>2014-04-10T10:57:58Z</time>
      </trkpt>
      <trkpt lat="48.70447" lon="-0.65498">
        <ele>306.8</ele>
        <time>2014-04-10T10:58:10Z</time>
      </trkpt>
      <trkpt lat="48.70489" lon="-0.6551">
        <ele>305.8</ele>
        <time>2014-04-10T10:58:21Z</time>
      </trkpt>
      <trkpt lat="48.70536" lon="-0.65542">
        <ele>305.8</ele>
        <time>2014-04-10T10:58:32Z</time>
      </trkpt>
      <trkpt lat="48.70556" lon="-0.65558">
        <ele>306</ele>
        <time>2014-04-10T10:58:36Z</time>
      </trkpt>
      <trkpt lat="48.7056" lon="-0.65562">
        <ele>306.2</ele>
        <time>2014-04-10T10:58:37Z</time>
      </trkpt>
      <trkpt lat="48.70564" lon="-0.65565">
        <ele>306.2</ele>
        <time>2014-04-10T10:58:38Z</time>
      </trkpt>
      <trkpt lat="48.70568" lon="-0.65568">
        <ele>306.2</ele>
        <time>2014-04-10T10:58:39Z</time>
      </trkpt>
      <trkpt lat="48.70572" lon="-0.65573">
        <ele>306.2</ele>
        <time>2014-04-10T10:58:40Z</time>
      </trkpt>
      <trkpt lat="48.7058" lon="-0.65581">
        <ele>306.4</ele>
        <time>2014-04-10T10:58:42Z</time>
      </trkpt>
      <trkpt lat="48.70617" lon="-0.65604">
        <ele>306.8</ele>
        <time>2014-04-10T10:58:51Z</time>
      </trkpt>
      <trkpt lat="48.70622" lon="-0.65604">
        <ele>307</ele>
        <time>2014-04-10T10:58:52Z</time>
      </trkpt>
      <trkpt lat="48.70676" lon="-0.65596">
        <ele>308.2</ele>
        <time>2014-04-10T10:59:04Z</time>
      </trkpt>
      <trkpt lat="48.70721" lon="-0.65591">
        <ele>308.8</ele>
        <time>2014-04-10T10:59:16Z</time>
      </trkpt>
      <trkpt lat="48.7076" lon="-0.65582">
        <ele>309.2</ele>
        <time>2014-04-10T10:59:31Z</time>
      </trkpt>
      <trkpt lat="48.70764" lon="-0.65588">
        <ele>309</ele>
        <time>2014-04-10T10:59:34Z</time>
      </trkpt>
      <trkpt lat="48.70767" lon="-0.65595">
        <ele>309</ele>
        <time>2014-04-10T10:59:37Z</time>
      </trkpt>
      <trkpt lat="48.70769" lon="-0.65598">
        <ele>309.2</ele>
        <time>2014-04-10T10:59:39Z</time>
      </trkpt>
      <trkpt lat="48.70771" lon="-0.65598">
        <ele>309.4</ele>
        <time>2014-04-10T10:59:44Z</time>
      </trkpt>
      <trkpt lat="48.70787" lon="-0.65568">
        <ele>252.2</ele>
        <time>2014-04-10T12:08:39Z</time>
      </trkpt>
      <trkpt lat="48.70788" lon="-0.65565">
        <ele>252.2</ele>
        <time>2014-04-10T12:08:40Z</time>
      </trkpt>
      <trkpt lat="48.70789" lon="-0.65561">
        <ele>252.2</ele>
        <time>2014-04-10T12:08:42Z</time>
      </trkpt>
      <trkpt lat="48.70791" lon="-0.65558">
        <ele>252.2</ele>
        <time>2014-04-10T12:08:43Z</time>
      </trkpt>
      <trkpt lat="48.70793" lon="-0.65556">
        <ele>252.2</ele>
        <time>2014-04-10T12:08:44Z</time>
      </trkpt>
      <trkpt lat="48.70796" lon="-0.65554">
        <ele>252.2</ele>
        <time>2014-04-10T12:08:45Z</time>
      </trkpt>
      <trkpt lat="48.70806" lon="-0.65546">
        <ele>252.4</ele>
        <time>2014-04-10T12:08:48Z</time>
      </trkpt>
      <trkpt lat="48.70809" lon="-0.65543">
        <ele>252.4</ele>
        <time>2014-04-10T12:08:49Z</time>
      </trkpt>
      <trkpt lat="48.70843" lon="-0.65517">
        <ele>251.2</ele>
        <time>2014-04-10T12:08:58Z</time>
      </trkpt>
      <trkpt lat="48.70847" lon="-0.65514">
        <ele>251.2</ele>
        <time>2014-04-10T12:08:59Z</time>
      </trkpt>
      <trkpt lat="48.70856" lon="-0.65507">
        <ele>251</ele>
        <time>2014-04-10T12:09:01Z</time>
      </trkpt>
      <trkpt lat="48.70859" lon="-0.65501">
        <ele>250.8</ele>
        <time>2014-04-10T12:09:02Z</time>
      </trkpt>
      <trkpt lat="48.70861" lon="-0.65495">
        <ele>250.6</ele>
        <time>2014-04-10T12:09:03Z</time>
      </trkpt>
      <trkpt lat="48.70868" lon="-0.65467">
        <ele>250</ele>
        <time>2014-04-10T12:09:07Z</time>
      </trkpt>
      <trkpt lat="48.70871" lon="-0.65461">
        <ele>249.8</ele>
        <time>2014-04-10T12:09:08Z</time>
      </trkpt>
      <trkpt lat="48.70876" lon="-0.65455">
        <ele>249.6</ele>
        <time>2014-04-10T12:09:09Z</time>
      </trkpt>
      <trkpt lat="48.70881" lon="-0.65451">
        <ele>249.6</ele>
        <time>2014-04-10T12:09:10Z</time>
      </trkpt>
      <trkpt lat="48.70887" lon="-0.65449">
        <ele>249.4</ele>
        <time>2014-04-10T12:09:11Z</time>
      </trkpt>
      <trkpt lat="48.70893" lon="-0.65448">
        <ele>249.2</ele>
        <time>2014-04-10T12:09:12Z</time>
      </trkpt>
      <trkpt lat="48.70899" lon="-0.65449">
        <ele>249</ele>
        <time>2014-04-10T12:09:13Z</time>
      </trkpt>
      <trkpt lat="48.70981" lon="-0.65467">
        <ele>248.8</ele>
        <time>2014-04-10T12:09:27Z</time>
      </trkpt>
      <trkpt lat="48.70986" lon="-0.65469">
        <ele>248.8</ele>
        <time>2014-04-10T12:09:28Z</time>
      </trkpt>
      <trkpt lat="48.70997" lon="-0.65474">
        <ele>248.8</ele>
        <time>2014-04-10T12:09:30Z</time>
      </trkpt>
      <trkpt lat="48.71003" lon="-0.65475">
        <ele>248.8</ele>
        <time>2014-04-10T12:09:31Z</time>
      </trkpt>
      <trkpt lat="48.71009" lon="-0.65475">
        <ele>249</ele>
        <time>2014-04-10T12:09:32Z</time>
      </trkpt>
      <trkpt lat="48.71015" lon="-0.65474">
        <ele>249</ele>
        <time>2014-04-10T12:09:33Z</time>
      </trkpt>
      <trkpt lat="48.71021" lon="-0.65473">
        <ele>249</ele>
        <time>2014-04-10T12:09:34Z</time>
      </trkpt>
      <trkpt lat="48.71108" lon="-0.65447">
        <ele>251</ele>
        <time>2014-04-10T12:09:50Z</time>
      </trkpt>
      <trkpt lat="48.71114" lon="-0.65446">
        <ele>251.2</ele>
        <time>2014-04-10T12:09:51Z</time>
      </trkpt>
      <trkpt lat="48.71168" lon="-0.65425">
        <ele>254.4</ele>
        <time>2014-04-10T12:10:02Z</time>
      </trkpt>
      <trkpt lat="48.71228" lon="-0.65401">
        <ele>257.4</ele>
        <time>2014-04-10T12:10:15Z</time>
      </trkpt>
      <trkpt lat="48.71232" lon="-0.654">
        <ele>257.6</ele>
        <time>2014-04-10T12:10:16Z</time>
      </trkpt>
      <trkpt lat="48.71279" lon="-0.65381">
        <ele>260.8</ele>
        <time>2014-04-10T12:10:27Z</time>
      </trkpt>
      <trkpt lat="48.71317" lon="-0.65372">
        <ele>264</ele>
        <time>2014-04-10T12:10:37Z</time>
      </trkpt>
      <trkpt lat="48.71356" lon="-0.65372">
        <ele>266.2</ele>
        <time>2014-04-10T12:10:47Z</time>
      </trkpt>
      <trkpt lat="48.71372" lon="-0.65373">
        <ele>267</ele>
        <time>2014-04-10T12:10:51Z</time>
      </trkpt>
      <trkpt lat="48.71459" lon="-0.65374">
        <ele>268.2</ele>
        <time>2014-04-10T12:11:08Z</time>
      </trkpt>
      <trkpt lat="48.71497" lon="-0.65355">
        <ele>268.2</ele>
        <time>2014-04-10T12:11:15Z</time>
      </trkpt>
      <trkpt lat="48.71501" lon="-0.6535">
        <ele>268.2</ele>
        <time>2014-04-10T12:11:16Z</time>
      </trkpt>
      <trkpt lat="48.7151" lon="-0.65338">
        <ele>268</ele>
        <time>2014-04-10T12:11:18Z</time>
      </trkpt>
      <trkpt lat="48.71514" lon="-0.65331">
        <ele>267.8</ele>
        <time>2014-04-10T12:11:19Z</time>
      </trkpt>
      <trkpt lat="48.71517" lon="-0.65323">
        <ele>267.8</ele>
        <time>2014-04-10T12:11:20Z</time>
      </trkpt>
      <trkpt lat="48.7152" lon="-0.65314">
        <ele>267.6</ele>
        <time>2014-04-10T12:11:21Z</time>
      </trkpt>
      <trkpt lat="48.71523" lon="-0.65305">
        <ele>267.4</ele>
        <time>2014-04-10T12:11:22Z</time>
      </trkpt>
      <trkpt lat="48.71525" lon="-0.65296">
        <ele>267.2</ele>
        <time>2014-04-10T12:11:23Z</time>
      </trkpt>
      <trkpt lat="48.71538" lon="-0.65238">
        <ele>266.4</ele>
        <time>2014-04-10T12:11:30Z</time>
      </trkpt>
      <trkpt lat="48.7154" lon="-0.65232">
        <ele>266.4</ele>
        <time>2014-04-10T12:11:31Z</time>
      </trkpt>
      <trkpt lat="48.71564" lon="-0.6517">
        <ele>265.8</ele>
        <time>2014-04-10T12:11:40Z</time>
      </trkpt>
      <trkpt lat="48.71568" lon="-0.65164">
        <ele>265.4</ele>
        <time>2014-04-10T12:11:41Z</time>
      </trkpt>
      <trkpt lat="48.71573" lon="-0.65158">
        <ele>265.2</ele>
        <time>2014-04-10T12:11:42Z</time>
      </trkpt>
      <trkpt lat="48.71637" lon="-0.6508">
        <ele>263</ele>
        <time>2014-04-10T12:11:56Z</time>
      </trkpt>
      <trkpt lat="48.71643" lon="-0.65078">
        <ele>262.8</ele>
        <time>2014-04-10T12:11:57Z</time>
      </trkpt>
      <trkpt lat="48.71649" lon="-0.65078">
        <ele>262.8</ele>
        <time>2014-04-10T12:11:58Z</time>
      </trkpt>
      <trkpt lat="48.71654" lon="-0.6508">
        <ele>262.6</ele>
        <time>2014-04-10T12:11:59Z</time>
      </trkpt>
      <trkpt lat="48.71659" lon="-0.65083">
        <ele>262.6</ele>
        <time>2014-04-10T12:12:00Z</time>
      </trkpt>
      <trkpt lat="48.71664" lon="-0.65086">
        <ele>262.6</ele>
        <time>2014-04-10T12:12:01Z</time>
      </trkpt>
      <trkpt lat="48.71669" lon="-0.6509">
        <ele>262.4</ele>
        <time>2014-04-10T12:12:02Z</time>
      </trkpt>
      <trkpt lat="48.71673" lon="-0.65094">
        <ele>262.4</ele>
        <time>2014-04-10T12:12:03Z</time>
      </trkpt>
      <trkpt lat="48.71677" lon="-0.65098">
        <ele>262.4</ele>
        <time>2014-04-10T12:12:04Z</time>
      </trkpt>
      <trkpt lat="48.71682" lon="-0.651">
        <ele>262.4</ele>
        <time>2014-04-10T12:12:05Z</time>
      </trkpt>
      <trkpt lat="48.71685" lon="-0.65099">
        <ele>262.4</ele>
        <time>2014-04-10T12:12:06Z</time>
      </trkpt>
      <trkpt lat="48.71688" lon="-0.65096">
        <ele>262.4</ele>
        <time>2014-04-10T12:12:07Z</time>
      </trkpt>
      <trkpt lat="48.71689" lon="-0.65091">
        <ele>262.4</ele>
        <time>2014-04-10T12:12:08Z</time>
      </trkpt>
      <trkpt lat="48.71689" lon="-0.65085">
        <ele>262.2</ele>
        <time>2014-04-10T12:12:09Z</time>
      </trkpt>
      <trkpt lat="48.71688" lon="-0.65079">
        <ele>262.4</ele>
        <time>2014-04-10T12:12:10Z</time>
      </trkpt>
      <trkpt lat="48.71686" lon="-0.65037">
        <ele>262.6</ele>
        <time>2014-04-10T12:12:16Z</time>
      </trkpt>
      <trkpt lat="48.71688" lon="-0.65007">
        <ele>263.6</ele>
        <time>2014-04-10T12:12:21Z</time>
      </trkpt>
      <trkpt lat="48.71692" lon="-0.65003">
        <ele>263.8</ele>
        <time>2014-04-10T12:12:22Z</time>
      </trkpt>
      <trkpt lat="48.71752" lon="-0.64929">
        <ele>263</ele>
        <time>2014-04-10T12:12:35Z</time>
      </trkpt>
      <trkpt lat="48.71777" lon="-0.64899">
        <ele>263.4</ele>
        <time>2014-04-10T12:12:41Z</time>
      </trkpt>
      <trkpt lat="48.7178" lon="-0.64893">
        <ele>263.4</ele>
        <time>2014-04-10T12:12:42Z</time>
      </trkpt>
      <trkpt lat="48.71783" lon="-0.64887">
        <ele>263.4</ele>
        <time>2014-04-10T12:12:43Z</time>
      </trkpt>
      <trkpt lat="48.71795" lon="-0.64855">
        <ele>263.8</ele>
        <time>2014-04-10T12:12:48Z</time>
      </trkpt>
      <trkpt lat="48.71798" lon="-0.6485">
        <ele>264</ele>
        <time>2014-04-10T12:12:49Z</time>
      </trkpt>
      <trkpt lat="48.71802" lon="-0.64846">
        <ele>264</ele>
        <time>2014-04-10T12:12:50Z</time>
      </trkpt>
      <trkpt lat="48.71805" lon="-0.64842">
        <ele>264.2</ele>
        <time>2014-04-10T12:12:51Z</time>
      </trkpt>
      <trkpt lat="48.7181" lon="-0.64839">
        <ele>264.4</ele>
        <time>2014-04-10T12:12:52Z</time>
      </trkpt>
      <trkpt lat="48.71815" lon="-0.64837">
        <ele>264.8</ele>
        <time>2014-04-10T12:12:53Z</time>
      </trkpt>
      <trkpt lat="48.71887" lon="-0.64798">
        <ele>267.8</ele>
        <time>2014-04-10T12:13:07Z</time>
      </trkpt>
      <trkpt lat="48.71951" lon="-0.64725">
        <ele>269</ele>
        <time>2014-04-10T12:13:21Z</time>
      </trkpt>
      <trkpt lat="48.71991" lon="-0.64671">
        <ele>270.8</ele>
        <time>2014-04-10T12:13:30Z</time>
      </trkpt>
      <trkpt lat="48.71994" lon="-0.64664">
        <ele>271.2</ele>
        <time>2014-04-10T12:13:31Z</time>
      </trkpt>
      <trkpt lat="48.71996" lon="-0.64656">
        <ele>271.4</ele>
        <time>2014-04-10T12:13:32Z</time>
      </trkpt>
      <trkpt lat="48.71996" lon="-0.64648">
        <ele>271.8</ele>
        <time>2014-04-10T12:13:33Z</time>
      </trkpt>
      <trkpt lat="48.71996" lon="-0.64639">
        <ele>272</ele>
        <time>2014-04-10T12:13:34Z</time>
      </trkpt>
      <trkpt lat="48.71981" lon="-0.64531">
        <ele>275.2</ele>
        <time>2014-04-10T12:13:46Z</time>
      </trkpt>
      <trkpt lat="48.71953" lon="-0.6437">
        <ele>272</ele>
        <time>2014-04-10T12:14:01Z</time>
      </trkpt>
      <trkpt lat="48.71943" lon="-0.64277">
        <ele>269</ele>
        <time>2014-04-10T12:14:08Z</time>
      </trkpt>
      <trkpt lat="48.71942" lon="-0.64211">
        <ele>266.4</ele>
        <time>2014-04-10T12:14:13Z</time>
      </trkpt>
      <trkpt lat="48.71944" lon="-0.64171">
        <ele>265.4</ele>
        <time>2014-04-10T12:14:16Z</time>
      </trkpt>
      <trkpt lat="48.71942" lon="-0.64158">
        <ele>265</ele>
        <time>2014-04-10T12:14:17Z</time>
      </trkpt>
      <trkpt lat="48.71939" lon="-0.64145">
        <ele>264.6</ele>
        <time>2014-04-10T12:14:18Z</time>
      </trkpt>
      <trkpt lat="48.71934" lon="-0.64132">
        <ele>264</ele>
        <time>2014-04-10T12:14:19Z</time>
      </trkpt>
      <trkpt lat="48.71929" lon="-0.64119">
        <ele>263.4</ele>
        <time>2014-04-10T12:14:20Z</time>
      </trkpt>
      <trkpt lat="48.71909" lon="-0.64045">
        <ele>259.6</ele>
        <time>2014-04-10T12:14:25Z</time>
      </trkpt>
      <trkpt lat="48.71904" lon="-0.63996">
        <ele>257.2</ele>
        <time>2014-04-10T12:14:28Z</time>
      </trkpt>
      <trkpt lat="48.71905" lon="-0.63979">
        <ele>256.6</ele>
        <time>2014-04-10T12:14:29Z</time>
      </trkpt>
      <trkpt lat="48.71908" lon="-0.63963">
        <ele>255.8</ele>
        <time>2014-04-10T12:14:30Z</time>
      </trkpt>
      <trkpt lat="48.71924" lon="-0.63902">
        <ele>252.8</ele>
        <time>2014-04-10T12:14:34Z</time>
      </trkpt>
      <trkpt lat="48.7194" lon="-0.63841">
        <ele>249.2</ele>
        <time>2014-04-10T12:14:38Z</time>
      </trkpt>
      <trkpt lat="48.71945" lon="-0.63826">
        <ele>248.4</ele>
        <time>2014-04-10T12:14:39Z</time>
      </trkpt>
      <trkpt lat="48.71953" lon="-0.63796">
        <ele>247</ele>
        <time>2014-04-10T12:14:41Z</time>
      </trkpt>
      <trkpt lat="48.71956" lon="-0.6378">
        <ele>246.4</ele>
        <time>2014-04-10T12:14:42Z</time>
      </trkpt>
      <trkpt lat="48.71959" lon="-0.63764">
        <ele>245.8</ele>
        <time>2014-04-10T12:14:43Z</time>
      </trkpt>
      <trkpt lat="48.71963" lon="-0.63749">
        <ele>245.2</ele>
        <time>2014-04-10T12:14:44Z</time>
      </trkpt>
      <trkpt lat="48.71967" lon="-0.63734">
        <ele>244.6</ele>
        <time>2014-04-10T12:14:45Z</time>
      </trkpt>
      <trkpt lat="48.71973" lon="-0.6372">
        <ele>243.8</ele>
        <time>2014-04-10T12:14:46Z</time>
      </trkpt>
      <trkpt lat="48.71979" lon="-0.63707">
        <ele>243.2</ele>
        <time>2014-04-10T12:14:47Z</time>
      </trkpt>
      <trkpt lat="48.72008" lon="-0.63646">
        <ele>239.8</ele>
        <time>2014-04-10T12:14:52Z</time>
      </trkpt>
      <trkpt lat="48.7202" lon="-0.63625">
        <ele>238.6</ele>
        <time>2014-04-10T12:14:54Z</time>
      </trkpt>
      <trkpt lat="48.72025" lon="-0.63615">
        <ele>238.2</ele>
        <time>2014-04-10T12:14:55Z</time>
      </trkpt>
      <trkpt lat="48.72031" lon="-0.63605">
        <ele>237.8</ele>
        <time>2014-04-10T12:14:56Z</time>
      </trkpt>
      <trkpt lat="48.72037" lon="-0.63596">
        <ele>237.4</ele>
        <time>2014-04-10T12:14:57Z</time>
      </trkpt>
      <trkpt lat="48.72043" lon="-0.63586">
        <ele>237</ele>
        <time>2014-04-10T12:14:58Z</time>
      </trkpt>
      <trkpt lat="48.72064" lon="-0.63546">
        <ele>235.8</ele>
        <time>2014-04-10T12:15:02Z</time>
      </trkpt>
      <trkpt lat="48.72092" lon="-0.63464">
        <ele>235</ele>
        <time>2014-04-10T12:15:10Z</time>
      </trkpt>
      <trkpt lat="48.72095" lon="-0.63454">
        <ele>235</ele>
        <time>2014-04-10T12:15:11Z</time>
      </trkpt>
      <trkpt lat="48.72112" lon="-0.63354">
        <ele>234.8</ele>
        <time>2014-04-10T12:15:21Z</time>
      </trkpt>
      <trkpt lat="48.72113" lon="-0.63343">
        <ele>234.8</ele>
        <time>2014-04-10T12:15:22Z</time>
      </trkpt>
      <trkpt lat="48.72136" lon="-0.632">
        <ele>231.8</ele>
        <time>2014-04-10T12:15:35Z</time>
      </trkpt>
      <trkpt lat="48.72152" lon="-0.6311">
        <ele>228.6</ele>
        <time>2014-04-10T12:15:42Z</time>
      </trkpt>
      <trkpt lat="48.72164" lon="-0.63039">
        <ele>225</ele>
        <time>2014-04-10T12:15:47Z</time>
      </trkpt>
      <trkpt lat="48.7218" lon="-0.62965">
        <ele>221.4</ele>
        <time>2014-04-10T12:15:52Z</time>
      </trkpt>
      <trkpt lat="48.72195" lon="-0.62899">
        <ele>217.8</ele>
        <time>2014-04-10T12:15:56Z</time>
      </trkpt>
      <trkpt lat="48.72212" lon="-0.6285">
        <ele>213.8</ele>
        <time>2014-04-10T12:15:59Z</time>
      </trkpt>
      <trkpt lat="48.72225" lon="-0.6282">
        <ele>210.4</ele>
        <time>2014-04-10T12:16:01Z</time>
      </trkpt>
      <trkpt lat="48.72229" lon="-0.62807">
        <ele>209.2</ele>
        <time>2014-04-10T12:16:02Z</time>
      </trkpt>
      <trkpt lat="48.72232" lon="-0.62794">
        <ele>208</ele>
        <time>2014-04-10T12:16:03Z</time>
      </trkpt>
      <trkpt lat="48.72232" lon="-0.62782">
        <ele>207.2</ele>
        <time>2014-04-10T12:16:04Z</time>
      </trkpt>
      <trkpt lat="48.7223" lon="-0.62772">
        <ele>206.4</ele>
        <time>2014-04-10T12:16:05Z</time>
      </trkpt>
      <trkpt lat="48.72229" lon="-0.62765">
        <ele>206</ele>
        <time>2014-04-10T12:16:06Z</time>
      </trkpt>
      <trkpt lat="48.72229" lon="-0.6276">
        <ele>205.6</ele>
        <time>2014-04-10T12:16:07Z</time>
      </trkpt>
      <trkpt lat="48.72231" lon="-0.62757">
        <ele>205.2</ele>
        <time>2014-04-10T12:16:08Z</time>
      </trkpt>
      <trkpt lat="48.72233" lon="-0.62755">
        <ele>205.2</ele>
        <time>2014-04-10T12:16:09Z</time>
      </trkpt>
      <trkpt lat="48.72236" lon="-0.62752">
        <ele>205.2</ele>
        <time>2014-04-10T12:16:10Z</time>
      </trkpt>
      <trkpt lat="48.72241" lon="-0.6275">
        <ele>205.4</ele>
        <time>2014-04-10T12:16:11Z</time>
      </trkpt>
      <trkpt lat="48.72247" lon="-0.62748">
        <ele>205.4</ele>
        <time>2014-04-10T12:16:12Z</time>
      </trkpt>
      <trkpt lat="48.72254" lon="-0.62746">
        <ele>205.4</ele>
        <time>2014-04-10T12:16:13Z</time>
      </trkpt>
      <trkpt lat="48.72341" lon="-0.62715">
        <ele>203</ele>
        <time>2014-04-10T12:16:26Z</time>
      </trkpt>
      <trkpt lat="48.72415" lon="-0.62673">
        <ele>204.2</ele>
        <time>2014-04-10T12:16:39Z</time>
      </trkpt>
      <trkpt lat="48.72513" lon="-0.62651">
        <ele>205</ele>
        <time>2014-04-10T12:16:54Z</time>
      </trkpt>
      <trkpt lat="48.7257" lon="-0.62647">
        <ele>202.6</ele>
        <time>2014-04-10T12:17:01Z</time>
      </trkpt>
      <trkpt lat="48.72619" lon="-0.62662">
        <ele>199.4</ele>
        <time>2014-04-10T12:17:07Z</time>
      </trkpt>
      <trkpt lat="48.72628" lon="-0.62666">
        <ele>199.2</ele>
        <time>2014-04-10T12:17:08Z</time>
      </trkpt>
      <trkpt lat="48.72636" lon="-0.62668">
        <ele>199</ele>
        <time>2014-04-10T12:17:09Z</time>
      </trkpt>
      <trkpt lat="48.72709" lon="-0.62658">
        <ele>198.8</ele>
        <time>2014-04-10T12:17:20Z</time>
      </trkpt>
      <trkpt lat="48.72761" lon="-0.62621">
        <ele>202.2</ele>
        <time>2014-04-10T12:17:30Z</time>
      </trkpt>
      <trkpt lat="48.72765" lon="-0.62617">
        <ele>202.6</ele>
        <time>2014-04-10T12:17:31Z</time>
      </trkpt>
      <trkpt lat="48.7278" lon="-0.62606">
        <ele>203.8</ele>
        <time>2014-04-10T12:17:34Z</time>
      </trkpt>
      <trkpt lat="48.72784" lon="-0.62601">
        <ele>204</ele>
        <time>2014-04-10T12:17:35Z</time>
      </trkpt>
      <trkpt lat="48.72788" lon="-0.62597">
        <ele>204.4</ele>
        <time>2014-04-10T12:17:36Z</time>
      </trkpt>
      <trkpt lat="48.72828" lon="-0.62559">
        <ele>207.6</ele>
        <time>2014-04-10T12:17:45Z</time>
      </trkpt>
      <trkpt lat="48.72843" lon="-0.62545">
        <ele>208.8</ele>
        <time>2014-04-10T12:17:48Z</time>
      </trkpt>
      <trkpt lat="48.72847" lon="-0.62538">
        <ele>209.2</ele>
        <time>2014-04-10T12:17:49Z</time>
      </trkpt>
      <trkpt lat="48.72851" lon="-0.62531">
        <ele>209.6</ele>
        <time>2014-04-10T12:17:50Z</time>
      </trkpt>
      <trkpt lat="48.72854" lon="-0.62523">
        <ele>210.2</ele>
        <time>2014-04-10T12:17:51Z</time>
      </trkpt>
      <trkpt lat="48.72856" lon="-0.62514">
        <ele>210.6</ele>
        <time>2014-04-10T12:17:52Z</time>
      </trkpt>
      <trkpt lat="48.72859" lon="-0.62505">
        <ele>210.8</ele>
        <time>2014-04-10T12:17:53Z</time>
      </trkpt>
      <trkpt lat="48.72869" lon="-0.62472">
        <ele>212</ele>
        <time>2014-04-10T12:17:57Z</time>
      </trkpt>
      <trkpt lat="48.72873" lon="-0.62464">
        <ele>212</ele>
        <time>2014-04-10T12:17:58Z</time>
      </trkpt>
      <trkpt lat="48.72877" lon="-0.62458">
        <ele>212.2</ele>
        <time>2014-04-10T12:17:59Z</time>
      </trkpt>
      <trkpt lat="48.72897" lon="-0.62434">
        <ele>212.6</ele>
        <time>2014-04-10T12:18:03Z</time>
      </trkpt>
      <trkpt lat="48.72902" lon="-0.62428">
        <ele>212.8</ele>
        <time>2014-04-10T12:18:04Z</time>
      </trkpt>
      <trkpt lat="48.72907" lon="-0.62424">
        <ele>212.8</ele>
        <time>2014-04-10T12:18:05Z</time>
      </trkpt>
      <trkpt lat="48.72918" lon="-0.62413">
        <ele>213</ele>
        <time>2014-04-10T12:18:07Z</time>
      </trkpt>
      <trkpt lat="48.72923" lon="-0.62407">
        <ele>213</ele>
        <time>2014-04-10T12:18:08Z</time>
      </trkpt>
      <trkpt lat="48.72971" lon="-0.62356">
        <ele>212.6</ele>
        <time>2014-04-10T12:18:17Z</time>
      </trkpt>
      <trkpt lat="48.73005" lon="-0.62314">
        <ele>211.4</ele>
        <time>2014-04-10T12:18:24Z</time>
      </trkpt>
      <trkpt lat="48.73042" lon="-0.62261">
        <ele>208.4</ele>
        <time>2014-04-10T12:18:31Z</time>
      </trkpt>
      <trkpt lat="48.73054" lon="-0.62241">
        <ele>207.2</ele>
        <time>2014-04-10T12:18:33Z</time>
      </trkpt>
      <trkpt lat="48.73059" lon="-0.62228">
        <ele>206.6</ele>
        <time>2014-04-10T12:18:34Z</time>
      </trkpt>
      <trkpt lat="48.73062" lon="-0.62215">
        <ele>206.2</ele>
        <time>2014-04-10T12:18:35Z</time>
      </trkpt>
      <trkpt lat="48.73064" lon="-0.622">
        <ele>205.6</ele>
        <time>2014-04-10T12:18:36Z</time>
      </trkpt>
      <trkpt lat="48.73065" lon="-0.62186">
        <ele>205</ele>
        <time>2014-04-10T12:18:37Z</time>
      </trkpt>
      <trkpt lat="48.73065" lon="-0.62172">
        <ele>204.4</ele>
        <time>2014-04-10T12:18:38Z</time>
      </trkpt>
      <trkpt lat="48.73065" lon="-0.62112">
        <ele>201.2</ele>
        <time>2014-04-10T12:18:42Z</time>
      </trkpt>
      <trkpt lat="48.73063" lon="-0.62097">
        <ele>200.6</ele>
        <time>2014-04-10T12:18:43Z</time>
      </trkpt>
      <trkpt lat="48.73059" lon="-0.62083">
        <ele>199.8</ele>
        <time>2014-04-10T12:18:44Z</time>
      </trkpt>
      <trkpt lat="48.73054" lon="-0.62071">
        <ele>199</ele>
        <time>2014-04-10T12:18:45Z</time>
      </trkpt>
      <trkpt lat="48.73048" lon="-0.62058">
        <ele>198.2</ele>
        <time>2014-04-10T12:18:46Z</time>
      </trkpt>
      <trkpt lat="48.73041" lon="-0.62047">
        <ele>197.4</ele>
        <time>2014-04-10T12:18:47Z</time>
      </trkpt>
      <trkpt lat="48.73033" lon="-0.62036">
        <ele>196.6</ele>
        <time>2014-04-10T12:18:48Z</time>
      </trkpt>
      <trkpt lat="48.73005" lon="-0.61991">
        <ele>193</ele>
        <time>2014-04-10T12:18:52Z</time>
      </trkpt>
      <trkpt lat="48.72981" lon="-0.61947">
        <ele>190.4</ele>
        <time>2014-04-10T12:18:56Z</time>
      </trkpt>
      <trkpt lat="48.72978" lon="-0.61937">
        <ele>190.2</ele>
        <time>2014-04-10T12:18:57Z</time>
      </trkpt>
      <trkpt lat="48.72975" lon="-0.61927">
        <ele>190</ele>
        <time>2014-04-10T12:18:58Z</time>
      </trkpt>
      <trkpt lat="48.72973" lon="-0.61918">
        <ele>189.8</ele>
        <time>2014-04-10T12:18:59Z</time>
      </trkpt>
      <trkpt lat="48.72972" lon="-0.61908">
        <ele>190</ele>
        <time>2014-04-10T12:19:00Z</time>
      </trkpt>
      <trkpt lat="48.72972" lon="-0.619">
        <ele>190.2</ele>
        <time>2014-04-10T12:19:01Z</time>
      </trkpt>
      <trkpt lat="48.72971" lon="-0.61891">
        <ele>190.4</ele>
        <time>2014-04-10T12:19:02Z</time>
      </trkpt>
      <trkpt lat="48.72971" lon="-0.61883">
        <ele>190.8</ele>
        <time>2014-04-10T12:19:03Z</time>
      </trkpt>
      <trkpt lat="48.72972" lon="-0.61875">
        <ele>191.2</ele>
        <time>2014-04-10T12:19:04Z</time>
      </trkpt>
      <trkpt lat="48.72974" lon="-0.61852">
        <ele>192.8</ele>
        <time>2014-04-10T12:19:07Z</time>
      </trkpt>
      <trkpt lat="48.72976" lon="-0.61845">
        <ele>193.2</ele>
        <time>2014-04-10T12:19:08Z</time>
      </trkpt>
      <trkpt lat="48.72978" lon="-0.61839">
        <ele>193.6</ele>
        <time>2014-04-10T12:19:09Z</time>
      </trkpt>
      <trkpt lat="48.7298" lon="-0.61833">
        <ele>194</ele>
        <time>2014-04-10T12:19:10Z</time>
      </trkpt>
      <trkpt lat="48.72983" lon="-0.61828">
        <ele>194.2</ele>
        <time>2014-04-10T12:19:11Z</time>
      </trkpt>
      <trkpt lat="48.72986" lon="-0.61822">
        <ele>194.4</ele>
        <time>2014-04-10T12:19:12Z</time>
      </trkpt>
      <trkpt lat="48.72989" lon="-0.61815">
        <ele>194.6</ele>
        <time>2014-04-10T12:19:13Z</time>
      </trkpt>
      <trkpt lat="48.72992" lon="-0.61808">
        <ele>194.8</ele>
        <time>2014-04-10T12:19:14Z</time>
      </trkpt>
      <trkpt lat="48.72998" lon="-0.61795">
        <ele>194.8</ele>
        <time>2014-04-10T12:19:16Z</time>
      </trkpt>
      <trkpt lat="48.73015" lon="-0.61765">
        <ele>192.8</ele>
        <time>2014-04-10T12:19:25Z</time>
      </trkpt>
      <trkpt lat="48.73023" lon="-0.61756">
        <ele>192</ele>
        <time>2014-04-10T12:19:30Z</time>
      </trkpt>
      <trkpt lat="48.73039" lon="-0.61736">
        <ele>191.8</ele>
        <time>2014-04-10T12:19:37Z</time>
      </trkpt>
      <trkpt lat="48.73059" lon="-0.61728">
        <ele>192</ele>
        <time>2014-04-10T12:19:41Z</time>
      </trkpt>
      <trkpt lat="48.73102" lon="-0.61706">
        <ele>192.2</ele>
        <time>2014-04-10T12:19:49Z</time>
      </trkpt>
      <trkpt lat="48.73123" lon="-0.61681">
        <ele>192</ele>
        <time>2014-04-10T12:19:54Z</time>
      </trkpt>
      <trkpt lat="48.73141" lon="-0.61653">
        <ele>191.8</ele>
        <time>2014-04-10T12:19:58Z</time>
      </trkpt>
      <trkpt lat="48.73154" lon="-0.61629">
        <ele>191.6</ele>
        <time>2014-04-10T12:20:01Z</time>
      </trkpt>
      <trkpt lat="48.73168" lon="-0.61578">
        <ele>191.6</ele>
        <time>2014-04-10T12:20:07Z</time>
      </trkpt>
      <trkpt lat="48.73177" lon="-0.61544">
        <ele>191.6</ele>
        <time>2014-04-10T12:20:11Z</time>
      </trkpt>
      <trkpt lat="48.73182" lon="-0.61515">
        <ele>191.4</ele>
        <time>2014-04-10T12:20:14Z</time>
      </trkpt>
      <trkpt lat="48.73191" lon="-0.61477">
        <ele>191.2</ele>
        <time>2014-04-10T12:20:18Z</time>
      </trkpt>
      <trkpt lat="48.73207" lon="-0.61422">
        <ele>191.2</ele>
        <time>2014-04-10T12:20:24Z</time>
      </trkpt>
      <trkpt lat="48.73215" lon="-0.61375">
        <ele>191.2</ele>
        <time>2014-04-10T12:20:29Z</time>
      </trkpt>
      <trkpt lat="48.73216" lon="-0.61356">
        <ele>191.2</ele>
        <time>2014-04-10T12:20:31Z</time>
      </trkpt>
      <trkpt lat="48.73217" lon="-0.61332">
        <ele>191.2</ele>
        <time>2014-04-10T12:20:34Z</time>
      </trkpt>
      <trkpt lat="48.73218" lon="-0.61324">
        <ele>191.2</ele>
        <time>2014-04-10T12:20:35Z</time>
      </trkpt>
      <trkpt lat="48.7323" lon="-0.61249">
        <ele>191.8</ele>
        <time>2014-04-10T12:20:46Z</time>
      </trkpt>
      <trkpt lat="48.73232" lon="-0.61234">
        <ele>191.8</ele>
        <time>2014-04-10T12:20:50Z</time>
      </trkpt>
      <trkpt lat="48.7323" lon="-0.61232">
        <ele>191.8</ele>
        <time>2014-04-10T12:20:51Z</time>
      </trkpt>
      <trkpt lat="48.73229" lon="-0.61228">
        <ele>191.8</ele>
        <time>2014-04-10T12:20:52Z</time>
      </trkpt>
      <trkpt lat="48.73228" lon="-0.61223">
        <ele>191.8</ele>
        <time>2014-04-10T12:20:53Z</time>
      </trkpt>
      <trkpt lat="48.73228" lon="-0.61217">
        <ele>191.6</ele>
        <time>2014-04-10T12:20:54Z</time>
      </trkpt>
      <trkpt lat="48.73228" lon="-0.61211">
        <ele>191.6</ele>
        <time>2014-04-10T12:20:55Z</time>
      </trkpt>
      <trkpt lat="48.7323" lon="-0.61204">
        <ele>191.6</ele>
        <time>2014-04-10T12:20:56Z</time>
      </trkpt>
      <trkpt lat="48.73232" lon="-0.61197">
        <ele>191.6</ele>
        <time>2014-04-10T12:20:57Z</time>
      </trkpt>
      <trkpt lat="48.73234" lon="-0.61189">
        <ele>191.4</ele>
        <time>2014-04-10T12:20:58Z</time>
      </trkpt>
      <trkpt lat="48.73254" lon="-0.61149">
        <ele>190.2</ele>
        <time>2014-04-10T12:21:04Z</time>
      </trkpt>
      <trkpt lat="48.73271" lon="-0.61118">
        <ele>189.2</ele>
        <time>2014-04-10T12:21:09Z</time>
      </trkpt>
      <trkpt lat="48.73274" lon="-0.6111">
        <ele>189</ele>
        <time>2014-04-10T12:21:10Z</time>
      </trkpt>
      <trkpt lat="48.73284" lon="-0.6108">
        <ele>188.6</ele>
        <time>2014-04-10T12:21:14Z</time>
      </trkpt>
      <trkpt lat="48.7329" lon="-0.61055">
        <ele>188.6</ele>
        <time>2014-04-10T12:21:18Z</time>
      </trkpt>
      <trkpt lat="48.73292" lon="-0.61049">
        <ele>188.6</ele>
        <time>2014-04-10T12:21:19Z</time>
      </trkpt>
      <trkpt lat="48.73293" lon="-0.61043">
        <ele>188.6</ele>
        <time>2014-04-10T12:21:20Z</time>
      </trkpt>
      <trkpt lat="48.73293" lon="-0.61036">
        <ele>188.6</ele>
        <time>2014-04-10T12:21:21Z</time>
      </trkpt>
      <trkpt lat="48.73293" lon="-0.61029">
        <ele>188.4</ele>
        <time>2014-04-10T12:21:22Z</time>
      </trkpt>
      <trkpt lat="48.73295" lon="-0.61021">
        <ele>188.4</ele>
        <time>2014-04-10T12:21:23Z</time>
      </trkpt>
      <trkpt lat="48.73297" lon="-0.61012">
        <ele>188.4</ele>
        <time>2014-04-10T12:21:24Z</time>
      </trkpt>
      <trkpt lat="48.73298" lon="-0.61004">
        <ele>188.4</ele>
        <time>2014-04-10T12:21:25Z</time>
      </trkpt>
      <trkpt lat="48.73299" lon="-0.60995">
        <ele>188.4</ele>
        <time>2014-04-10T12:21:26Z</time>
      </trkpt>
      <trkpt lat="48.733" lon="-0.60986">
        <ele>188.6</ele>
        <time>2014-04-10T12:21:27Z</time>
      </trkpt>
      <trkpt lat="48.73297" lon="-0.60949">
        <ele>188.8</ele>
        <time>2014-04-10T12:21:31Z</time>
      </trkpt>
      <trkpt lat="48.73292" lon="-0.60911">
        <ele>189</ele>
        <time>2014-04-10T12:21:35Z</time>
      </trkpt>
      <trkpt lat="48.73292" lon="-0.60902">
        <ele>189.2</ele>
        <time>2014-04-10T12:21:36Z</time>
      </trkpt>
      <trkpt lat="48.73293" lon="-0.60894">
        <ele>189.2</ele>
        <time>2014-04-10T12:21:37Z</time>
      </trkpt>
      <trkpt lat="48.73296" lon="-0.60887">
        <ele>189.2</ele>
        <time>2014-04-10T12:21:38Z</time>
      </trkpt>
      <trkpt lat="48.73298" lon="-0.6088">
        <ele>189.2</ele>
        <time>2014-04-10T12:21:39Z</time>
      </trkpt>
      <trkpt lat="48.73301" lon="-0.60872">
        <ele>189.2</ele>
        <time>2014-04-10T12:21:40Z</time>
      </trkpt>
      <trkpt lat="48.73316" lon="-0.60832">
        <ele>189.4</ele>
        <time>2014-04-10T12:21:45Z</time>
      </trkpt>
      <trkpt lat="48.73326" lon="-0.60811">
        <ele>189.4</ele>
        <time>2014-04-10T12:21:48Z</time>
      </trkpt>
      <trkpt lat="48.73331" lon="-0.60805">
        <ele>189.4</ele>
        <time>2014-04-10T12:21:49Z</time>
      </trkpt>
      <trkpt lat="48.73336" lon="-0.608">
        <ele>189.6</ele>
        <time>2014-04-10T12:21:50Z</time>
      </trkpt>
      <trkpt lat="48.73354" lon="-0.60781">
        <ele>189.8</ele>
        <time>2014-04-10T12:21:54Z</time>
      </trkpt>
      <trkpt lat="48.73358" lon="-0.60776">
        <ele>189.8</ele>
        <time>2014-04-10T12:21:55Z</time>
      </trkpt>
      <trkpt lat="48.73361" lon="-0.60771">
        <ele>189.8</ele>
        <time>2014-04-10T12:21:56Z</time>
      </trkpt>
      <trkpt lat="48.73363" lon="-0.60767">
        <ele>189.8</ele>
        <time>2014-04-10T12:21:57Z</time>
      </trkpt>
      <trkpt lat="48.73365" lon="-0.6076">
        <ele>189.6</ele>
        <time>2014-04-10T12:21:58Z</time>
      </trkpt>
      <trkpt lat="48.73368" lon="-0.60753">
        <ele>189.6</ele>
        <time>2014-04-10T12:21:59Z</time>
      </trkpt>
      <trkpt lat="48.7337" lon="-0.60746">
        <ele>189.8</ele>
        <time>2014-04-10T12:22:00Z</time>
      </trkpt>
      <trkpt lat="48.73372" lon="-0.60738">
        <ele>189.8</ele>
        <time>2014-04-10T12:22:01Z</time>
      </trkpt>
      <trkpt lat="48.7339" lon="-0.60687">
        <ele>190.2</ele>
        <time>2014-04-10T12:22:07Z</time>
      </trkpt>
      <trkpt lat="48.73395" lon="-0.6067">
        <ele>190.4</ele>
        <time>2014-04-10T12:22:09Z</time>
      </trkpt>
      <trkpt lat="48.73398" lon="-0.60663">
        <ele>190.4</ele>
        <time>2014-04-10T12:22:10Z</time>
      </trkpt>
      <trkpt lat="48.734" lon="-0.60655">
        <ele>190.4</ele>
        <time>2014-04-10T12:22:11Z</time>
      </trkpt>
      <trkpt lat="48.73412" lon="-0.60612">
        <ele>191</ele>
        <time>2014-04-10T12:22:16Z</time>
      </trkpt>
      <trkpt lat="48.73415" lon="-0.60603">
        <ele>191.2</ele>
        <time>2014-04-10T12:22:17Z</time>
      </trkpt>
      <trkpt lat="48.73419" lon="-0.60586">
        <ele>191.4</ele>
        <time>2014-04-10T12:22:19Z</time>
      </trkpt>
      <trkpt lat="48.7343" lon="-0.60552">
        <ele>192</ele>
        <time>2014-04-10T12:22:23Z</time>
      </trkpt>
      <trkpt lat="48.73459" lon="-0.60481">
        <ele>192.2</ele>
        <time>2014-04-10T12:22:32Z</time>
      </trkpt>
      <trkpt lat="48.73462" lon="-0.60475">
        <ele>192.2</ele>
        <time>2014-04-10T12:22:33Z</time>
      </trkpt>
      <trkpt lat="48.73464" lon="-0.60469">
        <ele>192.2</ele>
        <time>2014-04-10T12:22:34Z</time>
      </trkpt>
      <trkpt lat="48.73467" lon="-0.60461">
        <ele>192.2</ele>
        <time>2014-04-10T12:22:35Z</time>
      </trkpt>
      <trkpt lat="48.73469" lon="-0.60454">
        <ele>192.2</ele>
        <time>2014-04-10T12:22:36Z</time>
      </trkpt>
      <trkpt lat="48.7347" lon="-0.60445">
        <ele>192.2</ele>
        <time>2014-04-10T12:22:37Z</time>
      </trkpt>
      <trkpt lat="48.73471" lon="-0.60438">
        <ele>192</ele>
        <time>2014-04-10T12:22:38Z</time>
      </trkpt>
      <trkpt lat="48.73473" lon="-0.6043">
        <ele>192</ele>
        <time>2014-04-10T12:22:39Z</time>
      </trkpt>
      <trkpt lat="48.73477" lon="-0.60388">
        <ele>192</ele>
        <time>2014-04-10T12:22:44Z</time>
      </trkpt>
      <trkpt lat="48.73479" lon="-0.6038">
        <ele>192</ele>
        <time>2014-04-10T12:22:45Z</time>
      </trkpt>
      <trkpt lat="48.73498" lon="-0.60259">
        <ele>192.6</ele>
        <time>2014-04-10T12:23:00Z</time>
      </trkpt>
      <trkpt lat="48.73507" lon="-0.60198">
        <ele>193.2</ele>
        <time>2014-04-10T12:23:10Z</time>
      </trkpt>
      <trkpt lat="48.73509" lon="-0.60191">
        <ele>193.2</ele>
        <time>2014-04-10T12:23:11Z</time>
      </trkpt>
      <trkpt lat="48.73544" lon="-0.60111">
        <ele>193.2</ele>
        <time>2014-04-10T12:23:24Z</time>
      </trkpt>
      <trkpt lat="48.73573" lon="-0.60028">
        <ele>192.6</ele>
        <time>2014-04-10T12:23:37Z</time>
      </trkpt>
      <trkpt lat="48.73576" lon="-0.60016">
        <ele>192.4</ele>
        <time>2014-04-10T12:23:39Z</time>
      </trkpt>
      <trkpt lat="48.7362" lon="-0.5994">
        <ele>191</ele>
        <time>2014-04-10T12:23:54Z</time>
      </trkpt>
      <trkpt lat="48.73622" lon="-0.59935">
        <ele>191</ele>
        <time>2014-04-10T12:23:55Z</time>
      </trkpt>
      <trkpt lat="48.73622" lon="-0.59928">
        <ele>190.8</ele>
        <time>2014-04-10T12:23:56Z</time>
      </trkpt>
      <trkpt lat="48.73621" lon="-0.59921">
        <ele>190.6</ele>
        <time>2014-04-10T12:23:57Z</time>
      </trkpt>
      <trkpt lat="48.73618" lon="-0.59916">
        <ele>190.4</ele>
        <time>2014-04-10T12:23:58Z</time>
      </trkpt>
      <trkpt lat="48.73615" lon="-0.59912">
        <ele>190.4</ele>
        <time>2014-04-10T12:23:59Z</time>
      </trkpt>
      <trkpt lat="48.73612" lon="-0.59908">
        <ele>190.4</ele>
        <time>2014-04-10T12:24:00Z</time>
      </trkpt>
      <trkpt lat="48.73602" lon="-0.59891">
        <ele>190.8</ele>
        <time>2014-04-10T12:24:09Z</time>
      </trkpt>
      <trkpt lat="48.73602" lon="-0.59891">
        <ele>190.8</ele>
        <time>2014-04-10T12:24:10Z</time>
      </trkpt>
      <trkpt lat="48.73602" lon="-0.59882">
        <ele>191</ele>
        <time>2014-04-10T12:24:14Z</time>
      </trkpt>
      <trkpt lat="48.73604" lon="-0.59876">
        <ele>191</ele>
        <time>2014-04-10T12:24:15Z</time>
      </trkpt>
      <trkpt lat="48.73607" lon="-0.59871">
        <ele>191</ele>
        <time>2014-04-10T12:24:16Z</time>
      </trkpt>
      <trkpt lat="48.73611" lon="-0.59865">
        <ele>191</ele>
        <time>2014-04-10T12:24:17Z</time>
      </trkpt>
      <trkpt lat="48.73686" lon="-0.59742">
        <ele>190</ele>
        <time>2014-04-10T12:24:34Z</time>
      </trkpt>
      <trkpt lat="48.73773" lon="-0.59567">
        <ele>189.6</ele>
        <time>2014-04-10T12:24:57Z</time>
      </trkpt>
      <trkpt lat="48.73831" lon="-0.59407">
        <ele>189.4</ele>
        <time>2014-04-10T12:25:16Z</time>
      </trkpt>
      <trkpt lat="48.73888" lon="-0.59279">
        <ele>187.8</ele>
        <time>2014-04-10T12:25:32Z</time>
      </trkpt>
      <trkpt lat="48.73916" lon="-0.59226">
        <ele>187.2</ele>
        <time>2014-04-10T12:25:39Z</time>
      </trkpt>
      <trkpt lat="48.73919" lon="-0.59218">
        <ele>187.2</ele>
        <time>2014-04-10T12:25:40Z</time>
      </trkpt>
      <trkpt lat="48.73965" lon="-0.59082">
        <ele>186</ele>
        <time>2014-04-10T12:25:56Z</time>
      </trkpt>
      <trkpt lat="48.74003" lon="-0.58908">
        <ele>183.6</ele>
        <time>2014-04-10T12:26:15Z</time>
      </trkpt>
      <trkpt lat="48.74019" lon="-0.58836">
        <ele>183.4</ele>
        <time>2014-04-10T12:26:23Z</time>
      </trkpt>
      <trkpt lat="48.74021" lon="-0.5882">
        <ele>183.4</ele>
        <time>2014-04-10T12:26:25Z</time>
      </trkpt>
      <trkpt lat="48.74021" lon="-0.58811">
        <ele>183.4</ele>
        <time>2014-04-10T12:26:26Z</time>
      </trkpt>
      <trkpt lat="48.7402" lon="-0.58803">
        <ele>183.4</ele>
        <time>2014-04-10T12:26:27Z</time>
      </trkpt>
      <trkpt lat="48.74022" lon="-0.58794">
        <ele>183.2</ele>
        <time>2014-04-10T12:26:28Z</time>
      </trkpt>
      <trkpt lat="48.74024" lon="-0.58788">
        <ele>183.2</ele>
        <time>2014-04-10T12:26:29Z</time>
      </trkpt>
      <trkpt lat="48.74028" lon="-0.58783">
        <ele>183.2</ele>
        <time>2014-04-10T12:26:30Z</time>
      </trkpt>
      <trkpt lat="48.74033" lon="-0.5878">
        <ele>183</ele>
        <time>2014-04-10T12:26:31Z</time>
      </trkpt>
      <trkpt lat="48.74038" lon="-0.58776">
        <ele>183</ele>
        <time>2014-04-10T12:26:32Z</time>
      </trkpt>
      <trkpt lat="48.74043" lon="-0.58771">
        <ele>183</ele>
        <time>2014-04-10T12:26:33Z</time>
      </trkpt>
      <trkpt lat="48.74049" lon="-0.58766">
        <ele>182.8</ele>
        <time>2014-04-10T12:26:34Z</time>
      </trkpt>
      <trkpt lat="48.74117" lon="-0.5868">
        <ele>183.8</ele>
        <time>2014-04-10T12:26:48Z</time>
      </trkpt>
      <trkpt lat="48.7421" lon="-0.58556">
        <ele>183.6</ele>
        <time>2014-04-10T12:27:08Z</time>
      </trkpt>
      <trkpt lat="48.74271" lon="-0.58432">
        <ele>184</ele>
        <time>2014-04-10T12:27:25Z</time>
      </trkpt>
      <trkpt lat="48.74333" lon="-0.583">
        <ele>182.2</ele>
        <time>2014-04-10T12:27:42Z</time>
      </trkpt>
      <trkpt lat="48.74396" lon="-0.58167">
        <ele>180.8</ele>
        <time>2014-04-10T12:28:00Z</time>
      </trkpt>
      <trkpt lat="48.74436" lon="-0.58082">
        <ele>180.4</ele>
        <time>2014-04-10T12:28:11Z</time>
      </trkpt>
      <trkpt lat="48.74439" lon="-0.58075">
        <ele>180.4</ele>
        <time>2014-04-10T12:28:12Z</time>
      </trkpt>
      <trkpt lat="48.74486" lon="-0.57965">
        <ele>179.6</ele>
        <time>2014-04-10T12:28:26Z</time>
      </trkpt>
      <trkpt lat="48.74549" lon="-0.578">
        <ele>179.4</ele>
        <time>2014-04-10T12:28:46Z</time>
      </trkpt>
      <trkpt lat="48.74558" lon="-0.57775">
        <ele>179.2</ele>
        <time>2014-04-10T12:28:49Z</time>
      </trkpt>
      <trkpt lat="48.74593" lon="-0.57679">
        <ele>179.4</ele>
        <time>2014-04-10T12:29:01Z</time>
      </trkpt>
      <trkpt lat="48.74649" lon="-0.57543">
        <ele>180</ele>
        <time>2014-04-10T12:29:17Z</time>
      </trkpt>
      <trkpt lat="48.74685" lon="-0.5745">
        <ele>178.4</ele>
        <time>2014-04-10T12:29:28Z</time>
      </trkpt>
      <trkpt lat="48.74697" lon="-0.57417">
        <ele>178</ele>
        <time>2014-04-10T12:29:32Z</time>
      </trkpt>
      <trkpt lat="48.74728" lon="-0.57338">
        <ele>175.8</ele>
        <time>2014-04-10T12:29:41Z</time>
      </trkpt>
      <trkpt lat="48.74743" lon="-0.57302">
        <ele>174.4</ele>
        <time>2014-04-10T12:29:48Z</time>
      </trkpt>
      <trkpt lat="48.74763" lon="-0.57248">
        <ele>173.6</ele>
        <time>2014-04-10T12:29:58Z</time>
      </trkpt>
      <trkpt lat="48.74778" lon="-0.57209">
        <ele>173.2</ele>
        <time>2014-04-10T12:30:08Z</time>
      </trkpt>
      <trkpt lat="48.74782" lon="-0.57199">
        <ele>173.2</ele>
        <time>2014-04-10T12:30:16Z</time>
      </trkpt>
      <trkpt lat="48.74788" lon="-0.57227">
        <ele>183.2</ele>
        <time>2014-04-16T12:38:00Z</time>
      </trkpt>
      <trkpt lat="48.74788" lon="-0.57228">
        <ele>183.2</ele>
        <time>2014-04-16T12:38:01Z</time>
      </trkpt>
      <trkpt lat="48.7479" lon="-0.57224">
        <ele>182.8</ele>
        <time>2014-04-16T12:38:30Z</time>
      </trkpt>
      <trkpt lat="48.74819" lon="-0.57244">
        <ele>241.4</ele>
        <time>2014-04-16T13:55:10Z</time>
      </trkpt>
      <trkpt lat="48.74813" lon="-0.57239">
        <ele>241.4</ele>
        <time>2014-04-16T13:55:11Z</time>
      </trkpt>
      <trkpt lat="48.74786" lon="-0.5722">
        <ele>241.4</ele>
        <time>2014-04-16T13:55:36Z</time>
      </trkpt>
      <trkpt lat="48.74787" lon="-0.57222">
        <ele>241.4</ele>
        <time>2014-04-16T13:55:40Z</time>
      </trkpt>
    </trkseg>
  </trk>
</gpx>